[[{"header":{"parameterUnit":"m.s-1","parameterCategory":1,"la1":30.6,"la2":29.2853,"lo1":-89.7004,"lo2":-87.6739,"dy":0.0162,"dx":0.0183,"nx":112,"ny":82,"refTime":"2023-02-24T18:00:00:Z","depth":0,"parameterNumber":2,"parameterNumberName":"U-component_of_WINDS"},"data":[0.0,0.0,0.0,0.0,0.0,0.0,0.0,0.0,0.0,0.0,0.0,0.0,0.0,0.0,0.0,0.0,0.0,0.0,0.0,0.0,0.0,0.0,0.0,0.0,0.0,0.0,0.0,0.0,0.0,0.0,0.0,0.0,0.0,0.0,0.0,0.0,0.0,0.0,0.0,0.0,0.0,0.0,0.0,0.0,0.0,0.0,0.0,0.0,0.0,0.0,0.0,0.0,0.0,0.0,0.0,0.0,0.0,0.0,0.0,0.0,0.0,0.0,0.0,0.0,0.0,0.0,0.0,0.0,0.0,0.0,0.0,0.0,0.0,0.0,0.0,0.0,0.0,0.0,0.0,0.0,0.0,0.0,0.0,0.0,0.0,0.0,0.0,0.0,0.0,0.0,0.0,-1.7603,-1.9138,-2.0154,-2.0288,-2.0304,-2.0581,-2.1274,0.0,0.0,0.0,0.0,0.0,0.0,0.0,0.0,0.0,0.0,0.0,0.0,0.0,0.0,0.0,0.0,0.0,0.0,0.0,0.0,0.0,0.0,0.0,0.0,0.0,0.0,0.0,0.0,0.0,0.0,0.0,0.0,0.0,0.0,0.0,0.0,0.0,0.0,0.0,0.0,0.0,0.0,0.0,0.0,0.0,0.0,0.0,0.0,0.0,0.0,0.0,0.0,0.0,0.0,0.0,0.0,0.0,0.0,0.0,0.0,0.0,0.0,0.0,0.0,0.0,0.0,0.0,0.0,0.0,0.0,0.0,0.0,0.0,0.0,0.0,0.0,0.0,0.0,0.0,0.0,0.0,0.0,0.0,0.0,0.0,0.0,0.0,0.0,0.0,0.0,0.0,0.0,0.0,0.0,0.0,0.0,0.0,0.0,0.0,0.0,0.0,0.0,0.0,0.0,-1.6814,-1.7603,-1.8607,-1.9508,-2.0231,-2.0308,-2.035,-2.0463,0.0,0.0,0.0,0.0,0.0,0.0,0.0,0.0,0.0,0.0,0.0,0.0,0.0,0.0,0.0,0.0,0.0,0.0,0.0,0.0,0.0,0.0,0.0,0.0,0.0,0.0,0.0,0.0,0.0,0.0,0.0,0.0,0.0,0.0,0.0,0.0,0.0,0.0,0.0,0.0,0.0,0.0,0.0,0.0,0.0,0.0,0.0,0.0,0.0,0.0,0.0,0.0,0.0,0.0,0.0,0.0,0.0,0.0,0.0,0.0,0.0,0.0,0.0,0.0,0.0,0.0,0.0,0.0,0.0,0.0,0.0,0.0,0.0,0.0,0.0,0.0,0.0,0.0,0.0,0.0,0.0,0.0,0.0,0.0,0.0,0.0,0.0,0.0,0.0,0.0,0.0,0.0,0.0,0.0,0.0,0.0,0.0,0.0,0.0,0.0,0.0,0.0,0.0,-1.6445,-1.6641,-1.7007,-1.7828,-1.8503,-1.8905,-1.9389,-1.9641,-1.9641,-2.122,0.0,0.0,0.0,0.0,0.0,0.0,0.0,0.0,0.0,0.0,0.0,0.0,0.0,0.0,0.0,0.0,0.0,0.0,0.0,0.0,0.0,0.0,0.0,0.0,0.0,0.0,0.0,0.0,0.0,0.0,0.0,0.0,0.0,0.0,0.0,0.0,0.0,0.0,0.0,0.0,0.0,0.0,0.0,0.0,0.0,0.0,0.0,0.0,0.0,0.0,0.0,0.0,0.0,0.0,0.0,0.0,0.0,0.0,0.0,0.0,0.0,0.0,0.0,0.0,0.0,0.0,0.0,0.0,0.0,0.0,0.0,0.0,0.0,0.0,0.0,0.0,0.0,0.0,0.0,0.0,0.0,0.0,0.0,0.0,0.0,0.0,0.0,0.0,0.0,0.0,0.0,0.0,0.0,0.0,0.0,0.0,0.0,0.0,0.0,0.0,0.0,0.0,-1.5907,-1.6272,-1.6484,-1.7106,-1.7584,-1.7774,-1.8611,-1.9114,-1.9114,-2.0502,0.0,0.0,0.0,0.0,0.0,0.0,0.0,0.0,0.0,0.0,0.0,0.0,0.0,0.0,0.0,0.0,0.0,0.0,0.0,0.0,0.0,0.0,0.0,0.0,0.0,0.0,0.0,0.0,0.0,0.0,0.0,0.0,0.0,0.0,0.0,0.0,0.0,0.0,0.0,0.0,0.0,0.0,0.0,0.0,0.0,0.0,0.0,0.0,0.0,0.0,0.0,0.0,0.0,0.0,0.0,0.0,0.0,0.0,0.0,0.0,0.0,0.0,0.0,0.0,0.0,0.0,0.0,0.0,0.0,0.0,0.0,0.0,0.0,0.0,0.0,0.0,0.0,0.0,0.0,0.0,0.0,0.0,0.0,0.0,0.0,0.0,0.0,0.0,0.0,0.0,0.0,0.0,0.0,0.0,0.0,0.0,0.0,0.0,0.0,0.0,0.0,0.0,-1.5753,-1.5596,-1.6407,-1.6552,-1.6914,-1.7736,-1.8666,-1.9195,-1.9195,-2.002,0.0,0.0,0.0,0.0,0.0,0.0,0.0,0.0,0.0,0.0,0.0,0.0,0.0,0.0,0.0,0.0,0.0,0.0,0.0,0.0,0.0,0.0,0.0,0.0,0.0,0.0,0.0,0.0,0.0,0.0,0.0,0.0,0.0,0.0,0.0,0.0,0.0,0.0,0.0,0.0,0.0,0.0,0.0,0.0,0.0,0.0,0.0,0.0,0.0,0.0,0.0,0.0,0.0,0.0,0.0,0.0,0.0,0.0,0.0,0.0,0.0,0.0,0.0,0.0,0.0,0.0,0.0,0.0,0.0,0.0,0.0,0.0,0.0,0.0,0.0,0.0,0.0,0.0,0.0,0.0,0.0,0.0,0.0,0.0,0.0,0.0,0.0,0.0,0.0,0.0,0.0,0.0,0.0,0.0,0.0,0.0,0.0,0.0,0.0,0.0,0.0,0.0,-1.5734,-1.5347,0.0,-1.5743,-1.59,-1.6269,-1.7622,-1.8454,-1.8454,0.0,0.0,0.0,0.0,0.0,0.0,0.0,0.0,0.0,0.0,0.0,0.0,0.0,0.0,0.0,0.0,0.0,0.0,0.0,0.0,0.0,0.0,0.0,0.0,0.0,0.0,0.0,0.0,0.0,0.0,0.0,0.0,0.0,0.0,0.0,0.0,0.0,0.0,0.0,0.0,0.0,0.0,0.0,0.0,0.0,0.0,0.0,0.0,0.0,0.0,0.0,0.0,0.0,0.0,0.0,0.0,0.0,0.0,0.0,0.0,0.0,0.0,0.0,0.0,0.0,0.0,0.0,0.0,0.0,0.0,0.0,0.0,0.0,0.0,0.0,0.0,0.0,0.0,0.0,0.0,0.0,0.0,0.0,0.0,0.0,0.0,0.0,0.0,0.0,0.0,0.0,0.0,0.0,0.0,0.0,0.0,0.0,0.0,0.0,0.0,0.0,0.0,-1.6987,-1.6138,-1.5532,0.0,-1.531,-1.5329,-1.5392,-1.7009,-1.8008,-1.8008,0.0,0.0,0.0,0.0,0.0,0.0,0.0,0.0,0.0,0.0,0.0,0.0,0.0,0.0,0.0,0.0,0.0,0.0,0.0,0.0,0.0,0.0,0.0,0.0,0.0,0.0,0.0,0.0,0.0,0.0,0.0,0.0,0.0,0.0,0.0,0.0,0.0,0.0,0.0,0.0,0.0,0.0,0.0,0.0,0.0,0.0,0.0,0.0,0.0,0.0,0.0,0.0,0.0,0.0,0.0,0.0,0.0,0.0,0.0,0.0,0.0,0.0,0.0,0.0,0.0,0.0,0.0,0.0,0.0,0.0,0.0,0.0,0.0,0.0,0.0,0.0,0.0,0.0,0.0,0.0,0.0,0.0,0.0,0.0,0.0,0.0,0.0,0.0,0.0,0.0,0.0,0.0,0.0,0.0,0.0,0.0,0.0,0.0,0.0,0.0,0.0,0.0,-1.7815,-1.7007,-1.619,-1.5392,-1.529,-1.533,-1.5393,-1.699,-1.7988,0.0,0.0,0.0,0.0,0.0,0.0,0.0,0.0,0.0,0.0,0.0,0.0,0.0,0.0,0.0,0.0,0.0,0.0,0.0,0.0,0.0,0.0,0.0,0.0,0.0,0.0,0.0,0.0,0.0,0.0,0.0,0.0,0.0,0.0,0.0,0.0,0.0,0.0,0.0,0.0,0.0,0.0,0.0,0.0,0.0,0.0,0.0,0.0,0.0,0.0,0.0,0.0,0.0,0.0,0.0,0.0,0.0,0.0,0.0,0.0,0.0,0.0,0.0,0.0,0.0,0.0,0.0,0.0,0.0,0.0,0.0,0.0,0.0,0.0,0.0,0.0,0.0,0.0,0.0,0.0,0.0,0.0,0.0,0.0,0.0,0.0,0.0,0.0,0.0,0.0,0.0,0.0,0.0,0.0,0.0,0.0,0.0,0.0,0.0,0.0,0.0,0.0,0.0,-1.7956,-1.7021,-1.6217,-1.5443,-1.5361,-1.5375,-1.5408,-1.6426,-1.7344,-1.7969,0.0,0.0,0.0,0.0,0.0,0.0,0.0,0.0,0.0,0.0,0.0,0.0,0.0,0.0,0.0,0.0,0.0,0.0,0.0,0.0,0.0,0.0,0.0,0.0,0.0,0.0,0.0,0.0,0.0,0.0,0.0,0.0,0.0,0.0,0.0,0.0,0.0,0.0,0.0,0.0,0.0,0.0,0.0,0.0,0.0,0.0,0.0,0.0,0.0,0.0,0.0,0.0,0.0,0.0,0.0,0.0,0.0,0.0,0.0,0.0,0.0,0.0,0.0,0.0,0.0,0.0,0.0,0.0,0.0,0.0,0.0,0.0,0.0,0.0,0.0,0.0,0.0,0.0,0.0,0.0,0.0,0.0,0.0,0.0,0.0,0.0,0.0,0.0,0.0,0.0,0.0,0.0,0.0,0.0,0.0,0.0,0.0,0.0,0.0,0.0,0.0,0.0,-1.8104,-1.7381,-1.6638,-1.5526,-1.5394,-1.5402,-1.5391,-1.6191,-1.707,-1.7949,0.0,0.0,0.0,0.0,0.0,0.0,0.0,0.0,0.0,0.0,0.0,0.0,0.0,0.0,0.0,0.0,0.0,0.0,0.0,0.0,0.0,0.0,0.0,0.0,0.0,0.0,0.0,0.0,0.0,0.0,0.0,0.0,0.0,0.0,0.0,0.0,0.0,0.0,0.0,0.0,0.0,0.0,0.0,0.0,0.0,0.0,0.0,0.0,0.0,0.0,0.0,0.0,0.0,0.0,0.0,0.0,0.0,0.0,0.0,0.0,0.0,0.0,0.0,0.0,0.0,0.0,0.0,0.0,0.0,0.0,0.0,0.0,0.0,0.0,0.0,0.0,0.0,0.0,0.0,0.0,0.0,0.0,0.0,0.0,0.0,0.0,0.0,0.0,0.0,0.0,0.0,0.0,0.0,0.0,0.0,0.0,0.0,0.0,0.0,0.0,0.0,0.0,-1.8226,-1.7904,-1.7256,-1.557,-1.5397,-1.5403,-1.5391,-1.6113,-1.6953,-1.7812,0.0,0.0,0.0,0.0,0.0,0.0,0.0,0.0,0.0,0.0,0.0,0.0,0.0,0.0,0.0,0.0,0.0,0.0,0.0,0.0,0.0,0.0,0.0,0.0,0.0,0.0,0.0,0.0,0.0,0.0,0.0,0.0,0.0,0.0,0.0,0.0,0.0,0.0,0.0,0.0,0.0,0.0,0.0,0.0,0.0,0.0,0.0,0.0,0.0,0.0,0.0,0.0,0.0,0.0,0.0,0.0,0.0,0.0,0.0,0.0,-2.1733,0.0,0.0,0.0,0.0,0.0,0.0,0.0,0.0,0.0,0.0,0.0,0.0,0.0,0.0,0.0,0.0,0.0,0.0,0.0,0.0,0.0,0.0,0.0,0.0,0.0,0.0,0.0,0.0,0.0,0.0,0.0,0.0,0.0,0.0,0.0,0.0,0.0,0.0,0.0,0.0,0.0,-1.8304,-1.7899,-1.7266,-1.5584,-1.5409,-1.539,-1.5391,-1.5566,-1.6055,-1.6914,0.0,0.0,0.0,0.0,0.0,0.0,0.0,0.0,0.0,0.0,0.0,0.0,0.0,0.0,0.0,0.0,0.0,0.0,0.0,0.0,0.0,0.0,0.0,0.0,0.0,0.0,0.0,0.0,0.0,0.0,0.0,0.0,0.0,0.0,0.0,0.0,0.0,0.0,0.0,0.0,0.0,0.0,0.0,0.0,0.0,0.0,0.0,0.0,0.0,0.0,0.0,0.0,0.0,0.0,0.0,0.0,0.0,0.0,0.0,0.0,0.0,-2.1922,0.0,0.0,0.0,0.0,0.0,0.0,0.0,0.0,0.0,0.0,0.0,0.0,0.0,0.0,0.0,0.0,0.0,0.0,0.0,0.0,0.0,0.0,0.0,0.0,0.0,0.0,0.0,0.0,0.0,0.0,0.0,0.0,0.0,0.0,0.0,0.0,0.0,0.0,0.0,0.0,-1.8957,-1.8568,-1.8082,-1.6797,-1.6641,-1.6484,-1.6055,-1.6016,-1.6211,-1.668,-1.7949,0.0,0.0,0.0,0.0,0.0,0.0,0.0,0.0,0.0,0.0,0.0,0.0,0.0,0.0,0.0,0.0,0.0,0.0,0.0,0.0,0.0,0.0,0.0,0.0,0.0,0.0,0.0,0.0,0.0,0.0,0.0,0.0,0.0,0.0,0.0,0.0,0.0,0.0,0.0,0.0,0.0,0.0,0.0,0.0,0.0,0.0,0.0,0.0,0.0,0.0,0.0,0.0,0.0,-2.0956,-2.1055,-2.1055,-2.1035,-2.0957,-2.082,-2.0748,-2.1129,-2.1856,0.0,0.0,0.0,0.0,0.0,0.0,0.0,0.0,0.0,0.0,0.0,0.0,0.0,0.0,0.0,0.0,0.0,0.0,0.0,0.0,0.0,0.0,0.0,0.0,0.0,-2.0342,-2.1671,0.0,0.0,0.0,0.0,0.0,0.0,0.0,0.0,0.0,0.0,0.0,0.0,-1.9629,-1.9297,-1.8965,-1.8086,-1.8008,-1.7715,-1.6992,-1.6934,-1.6855,-1.6719,-1.7656,-1.8477,0.0,0.0,0.0,0.0,0.0,0.0,0.0,0.0,0.0,0.0,0.0,0.0,0.0,0.0,0.0,0.0,0.0,0.0,0.0,0.0,0.0,0.0,0.0,0.0,0.0,0.0,0.0,0.0,0.0,0.0,0.0,0.0,-2.3371,-2.4109,0.0,0.0,0.0,0.0,0.0,0.0,0.0,0.0,0.0,0.0,0.0,0.0,0.0,0.0,-2.0476,-2.1303,-2.1718,-2.1718,-2.248,-2.2852,-2.2852,-2.2793,-2.2383,-2.1719,-2.1607,0.0,-2.1796,-2.1866,0.0,0.0,0.0,0.0,0.0,0.0,0.0,0.0,0.0,0.0,0.0,0.0,0.0,0.0,0.0,0.0,0.0,0.0,0.0,0.0,0.0,0.0,-1.8963,-1.9098,-1.9825,-2.0513,0.0,-2.1951,-2.3128,-2.3248,0.0,0.0,0.0,0.0,0.0,0.0,0.0,0.0,-1.9648,-1.9297,-1.8965,-1.8086,-1.8008,-1.7949,-1.7832,-1.7832,-1.7519,-1.6758,-1.8223,-1.8848,-1.8203,-2.0516,0.0,0.0,0.0,0.0,0.0,0.0,0.0,0.0,0.0,0.0,0.0,0.0,0.0,0.0,0.0,0.0,0.0,0.0,0.0,0.0,0.0,0.0,0.0,0.0,0.0,0.0,0.0,0.0,0.0,-2.2653,-2.2417,-2.2694,-2.3193,-2.3853,0.0,0.0,0.0,0.0,0.0,0.0,0.0,0.0,0.0,-2.3831,-2.2634,-2.199,-2.1955,-2.24,-2.2637,-2.2637,-2.2988,-2.3164,-2.3203,-2.3125,-2.291,-2.2578,-2.2479,-2.245,-2.2426,-2.1874,-2.22,-2.3067,0.0,0.0,0.0,0.0,-2.2422,-2.2012,-2.2006,-2.2003,0.0,0.0,0.0,0.0,0.0,0.0,0.0,0.0,0.0,0.0,0.0,0.0,0.0,-2.0992,-2.1108,-2.0974,-2.0962,-2.1269,-2.1691,0.0,-2.2685,-2.3102,-2.3633,0.0,0.0,0.0,0.0,0.0,-2.0234,-2.0039,-1.9883,-1.9492,-1.9453,-1.9258,-1.8769,-1.873,-1.8359,-1.748,-1.8613,-1.9121,-1.875,-2.074,-2.2021,0.0,0.0,0.0,0.0,0.0,0.0,0.0,0.0,0.0,0.0,0.0,0.0,0.0,0.0,0.0,0.0,0.0,0.0,0.0,0.0,0.0,0.0,0.0,0.0,0.0,0.0,0.0,0.0,-2.2598,-2.2063,-2.223,-2.2786,-2.3527,0.0,0.0,0.0,0.0,0.0,0.0,-2.5703,-2.4863,-2.4394,-2.4405,-2.3573,-2.3124,-2.3096,-2.3378,-2.3516,-2.3516,-2.3672,-2.3789,-2.3848,-2.3789,-2.3633,-2.3437,-2.3355,-2.3214,-2.2937,-2.2233,-2.2349,-2.3075,-2.3798,-2.4076,-2.4082,-2.4082,-2.3672,-2.3105,-2.3097,-2.3111,-2.3009,-2.2289,0.0,-2.2777,-2.1515,0.0,0.0,0.0,0.0,-2.0374,-2.168,-2.1487,-2.1264,-2.2573,-2.235,-2.1831,-2.1831,-2.1373,-2.1047,0.0,-2.1612,-2.2018,-2.2713,0.0,0.0,0.0,0.0,-2.1582,-2.0703,-2.0605,-2.0605,-2.0605,-2.0605,-2.0332,-1.9687,-1.9629,-1.9258,-1.8398,-1.9141,-1.9531,-1.9316,-2.0762,-2.1659,-2.1821,0.0,0.0,0.0,0.0,0.0,0.0,0.0,0.0,0.0,0.0,0.0,0.0,0.0,0.0,0.0,0.0,0.0,0.0,0.0,0.0,0.0,0.0,0.0,0.0,0.0,0.0,0.0,0.0,0.0,-2.3881,-2.4066,0.0,0.0,0.0,0.0,-2.5602,-2.5604,-2.5634,-2.5703,-2.4863,-2.4394,-2.4394,-2.3613,-2.3164,-2.3105,-2.3926,-2.4336,-2.4355,-2.5176,-2.5566,-2.5566,-2.5566,-2.5117,-2.4336,-2.4255,-2.3764,-2.2994,-2.2878,-2.2893,-2.3004,-2.3125,-2.3194,-2.3262,-2.3262,-2.3184,-2.3105,-2.3105,-2.3144,-2.3183,-2.3068,-2.3028,-2.2982,-2.2907,-2.287,0.0,0.0,-2.2785,-2.2727,-2.2824,-2.2759,-2.2705,-2.2782,-2.2763,-2.274,-2.274,-2.2755,-2.2281,0.0,-2.1144,-2.1818,-2.1858,0.0,-2.2891,-2.2031,-2.1894,-2.1582,-2.0703,-2.0605,-2.0605,-2.0605,-2.0605,-2.0586,-2.0547,-2.0527,-2.0156,-1.9297,-2.0059,-2.0156,-1.9336,-2.0176,-2.1055,-2.1875,-2.1882,0.0,0.0,0.0,0.0,0.0,0.0,0.0,0.0,0.0,0.0,0.0,0.0,0.0,0.0,0.0,0.0,0.0,0.0,0.0,0.0,0.0,0.0,0.0,0.0,0.0,0.0,0.0,0.0,-2.3303,-2.3781,0.0,0.0,-2.5127,-2.5488,-2.5597,-2.5602,-2.5633,-2.5703,-2.541,-2.5234,-2.5234,-2.4961,-2.4805,-2.4766,-2.5078,-2.5234,-2.5234,-2.5547,-2.5703,-2.5703,-2.5703,-2.5527,-2.5234,-2.5111,-2.491,-2.4591,-2.4533,-2.4241,-2.3844,-2.386,-2.4258,-2.4805,-2.4805,-2.4785,-2.4765,-2.4721,-2.4717,-2.4732,-2.4677,-2.3931,-2.3161,-2.3685,-2.3449,-2.2994,-2.2994,-2.293,-2.2967,-2.3527,-2.3655,-2.3778,-2.4293,-2.4005,-2.3644,-2.3644,-2.3217,-2.2667,-2.2091,-2.2331,-2.2643,-2.2692,-2.2949,-2.3047,-2.2773,-2.2266,-2.1797,-2.1484,-2.0957,-2.0605,-2.0605,-2.0605,-2.0605,-2.0605,-2.0605,-2.0469,-2.0156,-2.043,-2.0469,-2.0156,-2.043,-2.0742,-2.1055,-2.1034,-2.0981,0.0,0.0,0.0,0.0,0.0,0.0,0.0,0.0,0.0,0.0,0.0,0.0,0.0,0.0,0.0,0.0,0.0,0.0,0.0,0.0,0.0,0.0,0.0,0.0,0.0,0.0,-2.4362,-2.3747,-2.4167,-2.4522,-2.4579,-2.5043,-2.5415,-2.5556,-2.5563,-2.5604,-2.5703,-2.5703,-2.5703,-2.5703,-2.5703,-2.584,-2.6133,-2.5859,-2.5859,-2.6133,-2.584,-2.5703,-2.5703,-2.5703,-2.5703,-2.5683,-2.5558,-2.5664,-2.5926,-2.5835,-2.5707,-2.5499,-2.4944,-2.5137,-2.5703,-2.5703,-2.5703,-2.5683,-2.5658,-2.5629,-2.5598,-2.5551,-2.4792,-2.4004,-2.4547,-2.4292,-2.3832,-2.3825,-2.3744,-2.3812,-2.4365,-2.4509,-2.4639,-2.5173,-2.4889,-2.4509,-2.4509,-2.406,-2.369,-2.3737,-2.3383,-2.3081,-2.3141,-2.3125,-2.3125,-2.3184,-2.2715,-2.2227,-2.1934,-2.1406,-2.1035,-2.1035,-2.1035,-2.1152,-2.1426,-2.1445,-2.1445,-2.1484,-2.1191,-2.1035,-2.1035,-2.0762,-2.0722,-2.0993,-2.1257,-2.1323,-2.125,0.0,0.0,0.0,0.0,0.0,0.0,0.0,0.0,0.0,0.0,0.0,0.0,0.0,0.0,0.0,0.0,0.0,0.0,0.0,0.0,0.0,0.0,0.0,-2.4331,-2.4982,-2.5441,-2.5437,-2.5387,-2.5332,-2.5346,-2.5346,-2.5408,-2.5573,-2.5586,-2.5636,-2.5761,-2.5781,-2.5781,-2.5781,-2.5781,-2.6191,-2.7031,-2.6191,-2.6211,-2.7031,-2.6172,-2.5781,-2.5781,-2.5781,-2.5781,-2.5762,-2.5636,-2.607,-2.6826,-2.6702,-2.7176,-2.785,-2.6283,-2.5713,-2.5781,-2.5742,-2.5723,-2.5703,-2.5703,-2.566,-2.5603,-2.5603,-2.5559,-2.5517,-2.5517,-2.5493,-2.5495,-2.5411,-2.5406,-2.5383,-2.5322,-2.5308,-2.5308,-2.5308,-2.5308,-2.5308,-2.5308,-2.5346,-2.5406,-2.5398,-2.413,-2.3093,-2.3159,-2.318,-2.3203,-2.3262,-2.3242,0.0,-2.209,-2.1953,-2.1934,-2.1934,-2.1934,-2.2246,-2.3047,-2.3105,-2.3125,-2.3203,-2.2402,-2.1934,-2.1934,-2.1133,-2.1032,-2.1828,-2.255,-2.2904,-2.2898,0.0,0.0,0.0,0.0,0.0,0.0,0.0,0.0,0.0,0.0,0.0,0.0,0.0,0.0,0.0,0.0,0.0,0.0,0.0,0.0,0.0,0.0,-2.5308,-2.5253,-2.5925,-2.6403,-2.6342,-2.6331,-2.6294,-2.6246,-2.6231,-2.653,-2.7264,-2.7359,-2.7429,-2.7502,-2.7557,-2.7598,-2.7598,-2.7598,-2.7695,-2.7949,-2.7695,-2.7715,-2.7949,-2.7695,-2.7598,-2.7598,-2.7598,-2.7598,-2.7578,-2.7447,-2.7529,-2.7732,-2.7656,-2.7765,-2.7962,-2.7576,-2.745,-2.7447,-2.6854,-2.623,-2.5703,-2.5703,-2.5683,-2.5662,-2.5662,-2.566,-2.5657,-2.5657,-2.559,-2.5506,-2.5485,-2.5409,-2.5317,-2.5298,-2.5308,-2.5308,-2.5308,-2.5308,-2.5308,-2.5308,-2.5317,-2.5348,-2.5383,-2.5036,-2.4754,-2.4823,-2.4871,-2.4929,-2.4948,-2.4431,0.0,-2.373,-2.3203,-2.2812,-2.2773,-2.2773,-2.2871,-2.3144,-2.3125,-2.3125,0.0,-2.2988,-2.2812,-2.2773,-2.2539,-2.2517,-2.2747,-2.2896,-2.2949,0.0,0.0,0.0,0.0,0.0,0.0,0.0,0.0,0.0,0.0,0.0,0.0,0.0,0.0,0.0,0.0,0.0,0.0,0.0,0.0,0.0,0.0,-2.5352,-2.6894,-2.7221,-2.7333,-2.7377,-2.7323,-2.7278,-2.7237,-2.7199,-2.7156,-2.7383,-2.7961,-2.8065,-2.8296,-2.8718,-2.8805,-2.9004,-2.9375,-2.9394,-2.9551,-2.9922,-2.957,-2.9394,-2.9375,-2.9023,-2.8652,-2.8301,-2.8301,-2.8301,0.0,-2.8166,-2.8285,-2.8607,-2.8511,-2.869,0.0,0.0,0.0,0.0,0.0,-2.6445,-2.5703,-2.5703,-2.5703,-2.5703,-2.5703,-2.5703,-2.5703,-2.5703,-2.5657,-2.5567,-2.5524,-2.5447,-2.5379,-2.5317,-2.5308,-2.5308,-2.5308,-2.5308,-2.5308,-2.5308,-2.5308,-2.5308,-2.5361,0.0,0.0,-2.542,-2.5506,-2.5564,-2.5599,-2.5204,-2.4783,0.0,-2.3984,-2.3691,-2.3652,-2.3633,-2.3809,-2.4219,-2.4219,0.0,0.0,0.0,-2.3516,-2.3125,-2.3416,0.0,0.0,0.0,-2.3982,0.0,0.0,0.0,0.0,-2.4601,-2.4851,0.0,0.0,0.0,0.0,0.0,0.0,0.0,0.0,0.0,0.0,0.0,0.0,0.0,0.0,0.0,0.0,-2.7539,-2.9004,-2.9785,-2.9252,-2.8674,-2.8378,-2.8229,-2.8198,-2.8264,-2.8227,-2.8284,-2.8539,-2.8621,-2.9036,-2.9863,0.0,0.0,0.0,0.0,-3.1543,-3.2324,-3.1562,-3.1172,-3.1172,-3.0391,-2.9629,-2.8867,-2.8867,-2.8867,-2.8846,-2.8624,-2.8912,-2.9557,-2.9342,-2.9709,-3.0274,-2.8979,-2.8423,-2.8256,-2.7439,-2.6582,0.0,0.0,0.0,0.0,-2.5703,-2.5703,-2.5703,-2.5703,-2.5683,-2.5661,-2.5541,-2.5486,-2.5465,-2.533,-2.5308,-2.5308,-2.5308,-2.5308,-2.5308,-2.5308,-2.5308,-2.5308,-2.5308,-2.5308,-2.5308,-2.5308,-2.5394,-2.55,-2.557,-2.5599,0.0,-2.4648,-2.4551,-2.4551,-2.4551,0.0,0.0,-2.5625,-2.5703,-2.5703,-2.5703,-2.4961,-2.4199,-2.3437,-2.4074,-2.4452,-2.4448,-2.5082,-2.5418,-2.5408,-2.5346,-2.5312,-2.5312,-2.5303,-2.5308,0.0,0.0,0.0,0.0,0.0,0.0,0.0,0.0,0.0,0.0,0.0,0.0,0.0,0.0,0.0,-2.7793,-2.9844,-3.1504,-3.168,-3.2109,-3.1618,-2.9494,-2.9186,-2.9357,-2.9969,-2.9959,-3.0473,-3.185,-3.2119,-3.2285,-3.2475,-3.2603,0.0,-3.291,-3.293,-3.3008,-3.3164,-3.3008,-3.293,-3.291,0.0,0.0,-3.2402,-3.2351,-3.2337,-3.2295,-3.1446,-3.1164,-3.1252,-3.0458,-3.0285,-3.0461,-3.0231,-2.978,-2.9155,-2.8358,-2.75,-2.6641,-2.5937,-2.5703,-2.5703,-2.5703,-2.5703,-2.5703,-2.5703,-2.5661,0.0,-2.5511,-2.5465,-2.5402,-2.5327,-2.5308,-2.5308,-2.5308,-2.5308,-2.5308,-2.5308,-2.5308,-2.5308,-2.5308,-2.5308,-2.5308,-2.5308,-2.5367,-2.5441,-2.5517,-2.5563,-2.5553,-2.5469,-2.5449,-2.5449,-2.5449,-2.5449,-2.5527,-2.5684,-2.5703,-2.5703,-2.5703,-2.5547,-2.5371,-2.5195,-2.5351,-2.5405,-2.5348,-2.5489,-2.5522,-2.5471,-2.5477,-2.5468,-2.5465,-2.5342,-2.5308,0.0,0.0,0.0,0.0,0.0,0.0,0.0,0.0,0.0,0.0,0.0,-2.582,0.0,0.0,-2.9883,-3.0723,-3.2305,-3.3594,-3.4043,-3.4453,-3.3886,-3.1714,-3.1397,-3.1493,-3.1866,-3.1808,-3.2106,-3.2986,-3.3145,-3.3409,-3.3877,-3.4406,-3.4902,-3.5332,-3.5762,-3.5996,-3.5996,-3.5996,-3.5566,-3.4707,-3.4707,-3.4238,-3.3398,-3.3321,-3.3301,-3.3276,-3.266,-3.2174,-3.1729,-3.0794,-3.0411,-3.0452,-3.0517,-3.0111,-2.9446,-2.9051,-2.8083,-2.6934,-2.6504,-2.6055,-2.5703,-2.5703,-2.5703,-2.5703,-2.5703,-2.5951,-2.6233,-2.6162,-2.6418,-2.6687,-2.6612,-2.6601,-2.6601,-2.6601,-2.6601,-2.6486,-2.6038,-2.5942,-2.5827,-2.5385,-2.5308,-2.5308,-2.5308,-2.534,-2.5379,-2.5444,-2.5517,-2.5567,-2.5636,-2.5683,-2.5703,-2.5703,-2.5703,-2.5703,-2.5703,-2.5703,-2.5703,-2.5703,-2.5703,-2.5703,-2.5703,-2.5703,-2.5683,-2.5658,-2.5628,-2.5573,-2.5552,-2.5526,-2.5491,-2.5508,-2.5431,-2.5406,0.0,0.0,0.0,0.0,0.0,0.0,0.0,0.0,-2.5644,-2.6523,-2.7402,-2.8262,-2.9119,-3.0703,-3.2383,-3.3885,-3.4863,-3.5703,-3.6406,-3.6504,-3.5976,-3.457,-3.3897,-3.3626,-3.3781,-3.3544,-3.3456,-3.367,-3.3701,-3.4123,-3.5069,-3.5836,-3.6641,-3.7539,-3.8223,-3.8594,-3.8594,-3.8594,-3.7891,-3.6504,-3.6328,-3.5508,-3.4139,-3.3877,-3.3769,-3.3731,-3.3391,-3.2676,-3.1729,-3.113,-3.0788,-3.0666,-3.0714,-3.0408,-2.9905,-2.9613,-2.8659,-2.746,-2.7305,-2.6797,-2.6211,-2.6211,-2.6211,-2.6211,-2.6211,-2.6653,-2.7147,-2.7072,-2.7517,-2.7982,-2.7927,-2.7895,-2.7895,-2.7895,-2.7895,-2.7703,-2.7005,-2.6851,-2.664,-2.5942,-2.5808,-2.5808,-2.5808,-2.5808,-2.5721,-2.5433,-2.5465,-2.5513,-2.5597,-2.566,-2.5703,-2.5703,-2.5703,-2.5703,-2.5703,-2.5703,-2.5703,-2.5703,-2.5703,-2.5703,-2.5703,-2.5703,-2.5703,-2.5703,-2.5657,-2.5629,-2.5629,-2.5563,-2.5543,-2.5543,-2.5543,-2.5513,-2.7679,-2.7593,-2.7547,-2.7539,-2.7508,-2.7688,0.0,0.0,-2.9185,-3.0136,-3.1016,-3.1854,-3.2607,-3.4211,-3.5701,-3.6554,-3.7513,-3.8203,-3.8301,-3.8301,-3.8242,-3.8047,-3.5909,-3.4758,-3.5532,-3.4834,-3.4633,-3.5376,-3.5534,-3.5976,-3.6861,-3.7066,-3.7559,-3.8437,-3.8555,-3.8594,-3.8594,-3.8594,-3.8496,-3.8301,-3.7519,-3.7028,-3.6749,-3.5833,-3.5399,-3.5292,-3.444,-3.3166,-3.1761,-3.2378,-3.2199,-3.1564,-3.1563,-3.1553,-3.1386,-3.0016,-2.9387,-2.9122,-2.8397,-2.8086,-2.8008,-2.8008,-2.8008,-2.8008,-2.8008,-2.8021,-2.8047,-2.7975,-2.799,-2.7982,-2.7927,-2.7895,-2.7895,-2.7895,-2.7895,-2.7876,-2.778,-2.7755,-2.7741,-2.7621,-2.7601,-2.7601,-2.7601,-2.7601,-2.7108,-2.5627,-2.5465,-2.5513,-2.5597,-2.566,-2.5703,-2.5703,-2.5703,-2.5703,-2.5703,-2.5703,-2.5703,-2.5703,-2.5703,-2.5703,-2.5703,-2.5703,-2.5703,-2.5703,-2.5683,-2.5683,-2.5683,-2.5683,-2.5682,-2.5682,-2.5682,-2.5607,-2.8395,-2.8546,0.0,0.0,-2.9162,-2.9744,-3.0658,-3.091,-3.1227,-3.2167,-3.2637,-3.3299,-3.4573,-3.5459,-3.656,0.0,-3.9035,-3.9531,-4.0039,-4.0117,-3.9922,-3.9414,-3.7928,-3.6871,-3.6733,-3.5864,-3.5477,-3.5854,-3.6357,-3.6832,-3.724,-3.8241,-3.8984,-3.9355,-3.9844,-4.0117,-4.0117,-4.0117,-3.9863,-3.9355,-3.8984,-3.8258,-3.7172,-3.6682,-3.6141,-3.5542,-3.4603,-3.3813,-3.32,-3.2992,-3.2699,-3.2391,-3.2391,-3.2414,-3.2248,-3.0707,-2.987,-2.9468,-2.9158,-2.8711,-2.8301,-2.8301,-2.8301,-2.8301,-2.8301,-2.8557,-2.8824,-2.8816,-2.909,-2.9398,-2.9363,-2.9352,-2.9352,-2.9352,-2.9352,-2.9217,-2.8703,-2.8607,-2.8453,-2.7992,-2.7895,-2.7895,-2.7895,-2.7895,-2.7661,-2.6964,-2.6482,-2.6036,-2.5549,-2.5588,-2.566,-2.5703,-2.5703,-2.5703,-2.5703,-2.5703,-2.5703,-2.5703,-2.5703,-2.5703,-2.5703,-2.5703,-2.5703,-2.5703,-2.5703,-2.5703,-2.5703,-2.5703,-2.5703,-2.5703,-2.5703,-2.5662,-2.9414,0.0,0.0,-3.0684,-3.1359,-3.2182,-3.3106,-3.3331,-3.3594,-3.4315,-3.4473,-3.4842,-3.6001,-3.6468,0.0,-3.9378,-4.0181,-4.0701,-4.1133,-4.1387,-4.1133,-4.0039,-3.9121,-3.8262,-3.7383,-3.6692,-3.6319,-3.6348,-3.7122,-3.7706,-3.8008,-3.9219,-4.0019,-4.0254,-4.0879,-4.1191,-4.1191,-4.1191,-4.0879,-4.0254,-4.0019,-3.9173,-3.7832,-3.7206,-3.6449,-3.5562,-3.4853,-3.4467,-3.4265,-3.3806,-3.3487,-3.3256,-3.3256,-3.3256,-3.3095,-3.1758,-3.0911,-3.0479,-3.0574,-3.0212,-2.9646,-2.9433,-2.9375,-2.9336,-2.9082,-2.9329,-2.9702,-2.9952,-3.0373,-3.0808,-3.1038,-3.1096,-3.1096,-3.1096,-3.1096,-3.0923,-3.0275,-3.0146,-2.9973,-2.939,-2.9275,-2.9198,-2.8986,-2.8948,-2.8775,-2.8299,-2.7735,-2.6973,-2.5905,-2.5661,-2.5629,-2.5661,-2.5683,-2.5703,-2.5703,-2.5703,-2.5703,-2.5703,-2.5703,-2.5703,-2.5703,-2.5703,-2.5703,-2.5703,-2.5703,-2.5703,-2.5703,-2.5703,-2.5703,-2.5703,-2.5703,-2.5703,0.0,0.0,-3.3297,-3.4137,-3.4845,-3.5611,-3.6624,-3.6846,-3.691,-3.7146,-3.7187,-3.7166,-3.7076,-3.7751,-3.8631,-3.9548,-4.1115,-4.1991,-4.1308,-4.1875,-4.1758,-4.0098,-3.9121,-3.8262,0.0,-3.7266,-3.7266,-3.7266,-3.8066,-3.8926,-3.9785,-3.9863,-4.0293,-4.1133,-4.1191,-4.1191,-4.1191,-4.1191,-4.1191,-4.1152,-4.0293,-3.9769,-3.945,-3.7576,-3.6299,-3.5581,-3.5502,-3.502,-3.4361,-3.5111,-3.493,-3.4167,-3.4167,-3.4167,-3.4071,-3.3227,-3.2905,-3.2927,-3.313,-3.3167,-3.3038,-3.2303,-3.207,-3.1914,-3.1074,-3.0696,-3.0739,-3.1569,-3.1733,-3.1833,-3.2622,-3.2814,-3.2814,-3.2814,-3.2814,-3.2814,-3.2795,-3.2776,-3.2776,-3.2756,-3.2756,-3.2506,-3.1718,-3.1583,-3.1006,-2.9319,-2.9036,-2.8443,-2.6854,-2.6045,-2.5602,-2.5603,-2.5661,-2.5703,-2.5703,-2.5703,-2.5703,-2.5703,-2.5703,-2.5703,-2.5703,-2.5703,-2.5703,-2.5703,-2.5703,-2.5703,-2.5703,-2.5703,-2.5703,-2.5703,-2.5703,-2.5703,0.0,0.0,-3.522,-3.6706,-3.7195,-3.7544,-3.8564,-3.7929,-3.7168,-3.7284,-3.6836,-3.6561,-3.7017,-3.7404,-3.8115,-3.9476,-4.0277,-4.0818,-4.1152,-4.1426,-4.0976,-3.9238,-3.9212,0.0,0.0,0.0,0.0,-3.7305,-3.8633,-3.959,-3.9883,-4.0449,-4.0898,-4.1191,-4.1191,-4.1191,-4.1191,-4.1191,-4.1191,-4.1191,-4.0187,-3.9661,-3.9524,-3.7583,-3.6638,-3.6494,-3.5847,-3.5446,-3.524,-3.546,-3.5379,-3.5064,-3.5064,-3.5064,-3.5026,-3.4751,-3.4654,-3.4523,-3.3568,-3.324,-3.3192,-3.2997,-3.2541,-3.2014,-3.1725,-3.1551,-3.1501,-3.1752,-3.2158,-3.2564,-3.2833,-3.2891,-3.2891,-3.2891,-3.2891,-3.2891,-3.2891,-3.2891,-3.2891,-3.2891,-3.2891,-3.2814,-3.2545,-3.2045,-3.1102,-2.9357,-2.8646,-2.7918,-2.6834,-2.6479,-2.6145,-2.5654,-2.563,-2.5658,-2.5703,-2.5703,-2.5703,-2.5703,-2.5703,-2.5703,-2.5703,-2.5703,-2.5703,-2.5703,-2.5703,-2.5703,-2.5703,-2.5703,-2.5703,-2.5703,-2.5703,-2.5703,0.0,-3.5932,-3.7567,-3.9351,-3.9685,-3.9784,-4.0474,-3.93,-3.7944,-3.7401,-3.6601,-3.5956,-3.5806,-3.6337,-3.7258,-3.8617,-3.9658,-4.0505,-4.1113,-4.1445,-4.0996,-3.9277,-3.9438,0.0,0.0,0.0,0.0,-3.8223,-3.9551,-4.0351,-4.0351,-4.0898,-4.1191,-4.1191,-4.1191,-4.1191,-4.1191,-4.1191,-4.1191,-4.1191,-4.0444,-3.9909,-3.9544,-3.7956,-3.7141,-3.6913,-3.5977,-3.5621,-3.5696,-3.5591,-3.5538,-3.5534,-3.5508,-3.55,-3.55,-3.55,-3.55,-3.5367,-3.4381,-3.4062,-3.402,-3.3796,-3.3349,-3.2842,-3.2517,-3.2372,-3.2357,-3.2618,-3.3029,-3.343,-3.3757,-3.3833,-3.3833,-3.3833,-3.3833,-3.3833,-3.3833,-3.3833,-3.3833,-3.3833,-3.3833,-3.3737,-3.341,-3.2449,-3.1218,-2.9775,-2.9121,-2.8378,-2.7262,-2.688,-2.6527,-2.6048,-2.5759,-2.5629,-2.5661,-2.5683,-2.5703,-2.5703,-2.5703,-2.5703,-2.5703,-2.5703,-2.5703,-2.5703,-2.5703,-2.5703,-2.5703,-2.5703,-2.5703,-2.5703,-2.5703,-2.5703,-3.6523,-3.8603,-4.0253,-4.1995,-4.2262,-4.2146,-4.2278,-4.0922,-3.9195,-3.7577,-3.6543,-3.541,0.0,0.0,-3.6147,-3.7089,-3.9285,-4.0936,-4.1113,-4.1855,-4.1797,0.0,0.0,0.0,0.0,0.0,0.0,-3.9961,0.0,-4.1269,-4.1269,-4.1269,-4.1269,-4.1269,-4.1211,-4.1191,-4.1191,-4.1191,-4.1191,-4.1191,-4.1054,-4.0515,-3.9625,-3.8685,-3.7779,-3.6917,-3.5971,-3.5615,-3.5682,-3.5608,-3.5605,-3.5643,-3.5644,-3.5635,-3.5635,-3.5635,-3.5635,-3.5623,-3.5648,-3.5639,-3.5485,-3.4781,-3.4522,-3.4344,-3.3501,-3.316,-3.3243,-3.407,-3.4291,-3.4449,-3.5288,-3.55,-3.55,-3.55,-3.55,-3.55,-3.55,-3.55,-3.55,-3.55,-3.55,-3.5212,-3.4359,-3.2833,-3.1468,-3.0596,-3.0423,-2.9808,-2.8159,-2.7296,-2.6784,-2.6711,-2.6062,-2.5636,-2.5601,-2.566,-2.5703,-2.5703,-2.5703,-2.5703,-2.5703,-2.5703,-2.5703,-2.5703,-2.5703,-2.5703,-2.5703,-2.5703,-2.5703,-2.5703,-2.5703,-2.5703,-3.8652,-4.04,-4.2079,-4.3862,-4.3279,-4.228,-4.2357,-4.0564,-3.8396,-3.668,-3.5644,-3.4707,0.0,0.0,0.0,-3.6191,-3.7948,0.0,-4.0137,-4.1484,0.0,0.0,0.0,-4.1201,-4.0457,-4.0471,0.0,0.0,-4.1621,-4.209,-4.209,-4.209,-4.209,-4.209,-4.1504,-4.1191,-4.1191,-4.1191,-4.115,-4.1052,-4.0917,-4.0726,-4.0466,-3.9462,-3.8576,-3.7749,-3.6903,-3.6195,-3.5674,-3.63,-3.649,-3.6491,-3.7118,-3.7353,-3.7353,-3.7353,-3.7353,-3.7264,-3.6632,-3.6029,-3.5502,-3.5359,-3.4875,-3.4303,-3.408,-3.3998,-3.4002,-3.4171,-3.4674,-3.5212,-3.5442,-3.55,-3.55,-3.55,-3.55,-3.55,-3.55,-3.55,-3.55,-3.55,-3.55,-3.5212,-3.4359,-3.3314,-3.2314,-3.1487,-3.0827,-3.0,-2.8934,-2.8615,-2.8029,-2.6838,-2.6523,-2.6193,-2.5655,-2.5628,-2.5657,-2.5703,-2.5703,-2.5703,-2.5703,-2.5703,-2.5703,-2.5703,-2.5703,-2.5703,-2.5703,-2.5703,-2.5703,-2.5703,-2.5703,-2.5703,-4.0527,-4.2204,-4.382,-4.5214,-4.4235,-4.2824,-4.248,-4.0137,-3.7539,-3.5781,-3.4453,0.0,0.0,0.0,0.0,0.0,0.0,0.0,-3.9785,-4.1325,-4.2152,0.0,-4.1867,0.0,-4.152,-4.1061,-4.1055,0.0,-4.2128,-4.2402,-4.2402,-4.2754,-4.2969,-4.2969,-4.2168,-4.1562,-4.1191,-4.1149,-4.1078,-4.0994,-4.0864,-4.0773,-4.0718,-3.9785,-3.909,-3.8576,0.0,-3.7112,-3.6723,-3.7197,-3.7353,-3.736,-3.7824,-3.8007,-3.8007,-3.8007,-3.8007,-3.793,-3.745,-3.6712,-3.5982,-3.5655,-3.5235,-3.4838,-3.483,-3.4824,-3.482,-3.4783,-3.5115,-3.55,-3.55,-3.55,-3.55,-3.55,-3.55,-3.55,-3.55,-3.55,-3.55,-3.55,-3.55,-3.5212,-3.4359,-3.3468,-3.2622,-3.1814,-3.0962,-3.0212,-2.9737,-2.9338,-2.875,-2.7851,-2.7127,-2.654,-2.6167,-2.5806,-2.5633,-2.5703,-2.5703,-2.5703,-2.5703,-2.5703,-2.5703,-2.5703,-2.5703,-2.5703,-2.5703,-2.5703,-2.5703,-2.5703,-2.5703,-2.5703,-4.2148,-4.3848,-4.5332,-4.5976,-4.4824,-4.3262,-4.2285,-3.9512,-3.6621,-3.4883,0.0,0.0,-3.1055,0.0,-3.3496,-3.4258,0.0,-3.8555,-3.9413,-4.1035,-4.2154,-4.2253,-4.2102,-4.2028,-4.2081,-4.1412,-4.1347,-4.2223,-4.2572,-4.2754,-4.2754,-4.3359,-4.3594,-4.3379,-4.2637,-4.1894,-4.1171,-4.1054,-4.0992,-4.0964,-4.0847,-4.0762,-4.0678,-3.9892,-3.9458,-3.9265,0.0,0.0,-3.8096,-3.8148,-3.8214,-3.827,-3.8322,-3.8334,-3.8334,-3.8334,-3.8334,-3.8315,-3.82,-3.768,-3.6885,-3.5962,-3.5596,-3.55,-3.55,-3.55,-3.55,-3.55,-3.55,-3.55,-3.55,-3.55,-3.55,-3.55,-3.55,-3.55,-3.55,-3.55,-3.55,-3.55,-3.55,-3.525,-3.4507,-3.3641,-3.2795,-3.1987,-3.1135,-3.0538,-3.0404,-2.9737,-2.9223,-2.9107,-2.7851,-2.6963,-2.6798,-2.6168,-2.5744,-2.5683,-2.5703,-2.5742,-2.5879,-2.5879,-2.5879,-2.5879,-2.5879,-2.582,-2.5703,-2.5703,-2.5703,-2.5703,-2.5703,-2.5703,-4.3203,-4.4746,-4.5937,-4.5371,-4.3906,-4.2226,-4.0684,-3.8203,0.0,0.0,0.0,-3.1934,-3.1055,-3.1738,0.0,-3.2617,0.0,0.0,0.0,0.0,-4.1421,0.0,0.0,0.0,0.0,0.0,0.0,0.0,0.0,0.0,-4.4551,-4.4004,-4.3066,-4.168,-4.1484,-4.1286,-4.1048,-4.1019,-4.0933,-4.0824,-4.0747,-4.0707,-4.0692,-4.0421,-3.993,-3.9284,0.0,0.0,-3.807,-3.8772,-3.9088,-3.9155,-3.9811,-4.0073,-4.0073,-4.0073,-4.0073,-3.9977,-3.9304,-3.8977,-3.8584,-3.7007,-3.6038,-3.55,-3.55,-3.55,-3.55,-3.55,-3.55,-3.55,-3.55,-3.55,-3.55,-3.55,-3.55,-3.55,-3.55,-3.55,-3.55,-3.55,-3.55,-3.5442,-3.5308,-3.4545,-3.368,-3.2814,-3.2006,-3.1212,-3.05,-3.0269,-2.991,-2.9184,-2.8854,-2.8145,-2.6823,-2.664,-2.6301,-2.5665,-2.5662,-2.6016,-2.6738,-2.6777,-2.6777,-2.6777,-2.6777,-2.6426,-2.5703,-2.5703,-2.5703,-2.5703,-2.5703,-2.5703,-4.3457,-4.4961,-4.6094,-4.5215,-4.3691,-4.1836,-3.9707,0.0,0.0,0.0,0.0,-3.1406,-3.0976,0.0,0.0,0.0,0.0,0.0,0.0,0.0,0.0,0.0,0.0,0.0,0.0,0.0,0.0,0.0,0.0,0.0,-4.4355,-4.4355,-4.3594,-4.1875,-4.2222,-4.1974,-4.1016,-4.0903,-4.0803,-4.0742,-4.0636,-4.0589,-4.0589,-4.0534,-4.0285,-3.9919,-3.9919,0.0,-3.9335,-3.9746,-3.9919,-3.9958,-4.0342,-4.0496,-4.0496,-4.0496,-4.0496,-4.0439,-4.0054,-3.9361,-3.8488,-3.7642,-3.6808,-3.6058,-3.5635,-3.55,-3.55,-3.55,-3.55,-3.55,-3.55,-3.55,-3.55,-3.55,-3.55,-3.55,-3.55,-3.55,-3.55,-3.55,-3.55,-3.55,-3.55,-3.4776,-3.4071,-3.3641,-3.2852,-3.2179,-3.1756,-3.1346,-3.0731,-2.9871,-2.9377,-2.879,-2.8053,-2.7237,-2.6601,-2.624,-2.6288,-2.6492,-2.6883,-2.7368,-2.7602,-2.7563,-2.7135,-2.6715,-2.6319,-2.5872,-2.5661,-2.5703,-2.5703,-2.5703,-4.3418,-4.4844,-4.5801,-4.4941,-4.3418,-4.1465,-3.8906,-3.6309,0.0,0.0,-3.1504,-3.0898,-3.0898,0.0,0.0,0.0,0.0,0.0,0.0,0.0,0.0,0.0,0.0,0.0,0.0,0.0,0.0,0.0,0.0,0.0,-4.4023,-4.4608,-4.4256,-4.2713,-4.3056,-4.2617,-4.125,-4.0883,-4.0697,-4.0697,-4.0566,-4.0496,-4.0496,-4.0496,-4.0496,-4.0496,-4.0496,0.0,0.0,-4.0496,-4.0496,-4.0496,-4.0496,-4.0496,-4.0496,-4.0496,-4.0496,-4.0496,-4.0496,-3.9515,-3.8257,-3.8065,-3.7296,-3.6327,-3.5692,-3.55,-3.5538,-3.5712,-3.575,-3.575,-3.575,-3.575,-3.5712,-3.5538,-3.55,-3.55,-3.55,-3.558,-3.5667,-3.5667,-3.5756,-3.5783,-3.5619,-3.5013,-3.4453,-3.4157,-3.353,-3.3057,-3.2923,-3.2352,-3.1698,-3.1,-3.0006,-2.9319,-2.9197,-2.7972,-2.7187,-2.7061,-2.7119,-2.7207,-2.7326,-2.8039,-2.8409,-2.8368,-2.7671,-2.7174,-2.6889,-2.619,-2.5798,-2.566,-2.5854,-2.5934,-4.3262,-4.4394,-4.4902,-4.4043,-4.2558,-4.0625,-3.8008,0.0,0.0,-3.2383,-3.1504,-3.0898,-3.0898,-3.0976,0.0,0.0,0.0,0.0,0.0,0.0,0.0,0.0,0.0,0.0,0.0,0.0,0.0,0.0,0.0,0.0,0.0,-4.4848,-4.4417,-4.3517,-4.2689,-4.2171,-4.1992,-4.1144,-4.0697,-4.0697,-4.0566,-4.0496,-4.0496,-4.0496,-4.0496,-4.0496,0.0,0.0,0.0,-4.0496,-4.0496,-4.0496,-4.0496,-4.0496,-4.0496,-4.0496,-4.0496,-4.0496,-4.0496,-3.9919,-3.9053,-3.8257,-3.693,-3.5596,-3.5519,-3.55,-3.5654,-3.6385,-3.6596,-3.6596,-3.6596,-3.6596,-3.6404,-3.5673,-3.55,-3.55,-3.55,-3.5883,-3.623,-3.623,-3.6624,-3.6715,-3.5991,-3.5802,-3.5305,-3.4029,-3.3775,-3.3521,-3.2968,-3.2833,-3.2756,-3.2679,-3.1231,-2.9967,-2.9182,-2.9028,-2.8666,-2.7942,-2.7948,-2.8318,-2.9038,-2.9141,-2.9199,-2.9193,-2.9116,-2.8321,-2.6806,-2.6731,-2.6291,-2.5546,-2.6335,-2.6736,-4.1738,-4.3183,-4.3887,-4.2539,-4.1308,-3.9609,-3.6445,0.0,0.0,-3.1699,-3.1133,-3.0898,-3.0898,-3.0898,-3.0878,0.0,0.0,0.0,0.0,0.0,0.0,0.0,0.0,0.0,0.0,0.0,0.0,0.0,0.0,0.0,0.0,-4.5158,-4.4428,-4.3626,-4.3551,-4.3056,-4.2042,-4.2118,-4.1622,-4.0588,-4.1586,-4.1797,-4.1296,-4.1835,-4.2066,-4.2066,0.0,0.0,0.0,-4.1277,-4.0969,-4.0496,-4.0496,-4.0496,-4.0496,-4.0496,-4.0496,-4.0439,-3.9958,-3.9227,-3.8373,-3.7507,-3.6442,-3.55,-3.55,-3.5846,-3.6288,-3.6615,-3.7084,-3.7488,-3.7488,-3.7488,-3.7411,-3.7084,-3.7007,-3.7007,-3.7007,-3.7004,-3.7023,-3.7023,-3.7067,-3.7005,-3.6688,-3.6228,-3.5715,-3.5153,-3.4791,-3.45,-3.4263,-3.392,-3.368,-3.368,-3.2179,-3.1044,-3.0698,-2.9729,-2.9008,-2.868,-2.8732,-2.8896,-2.9162,-2.973,-3.0001,-2.9965,-2.9447,-2.8879,-2.8233,-2.7752,-2.7353,-2.7071,-2.7418,-2.7609,-3.9883,-4.1484,-4.2285,-4.1113,-3.9961,-3.8359,0.0,0.0,-3.2637,-3.1191,-3.0898,-3.0898,-3.0898,-3.0898,-3.0878,0.0,0.0,0.0,0.0,0.0,0.0,0.0,0.0,0.0,0.0,0.0,0.0,0.0,0.0,0.0,0.0,-4.5556,-4.4866,-4.4298,-4.4381,-4.3877,-4.2691,-4.2965,-4.247,-4.1285,-4.2508,-4.2777,-4.222,-4.2816,-4.3104,-4.3104,0.0,0.0,0.0,-4.1788,-4.1296,-4.0496,-4.0496,-4.0496,-4.0496,-4.0496,-4.0496,-4.0419,-3.9842,-3.8931,-3.7892,-3.7276,-3.6365,-3.5538,-3.5788,-3.625,-3.6808,-3.7315,-3.7911,-3.8373,-3.8373,-3.818,-3.8007,-3.8007,-3.8007,-3.8007,-3.8007,-3.795,-3.7871,-3.7766,-3.7708,-3.7589,-3.7268,-3.6744,-3.6323,-3.616,-3.5881,-3.5626,-3.5488,-3.5155,-3.4853,-3.4603,-3.3295,-3.2333,-3.2083,-3.0717,-2.9877,-2.9877,-2.9679,-2.9535,-2.9492,-3.0123,-3.0456,-3.0404,-2.9794,-2.9377,-2.9173,-2.8593,-2.8227,-2.8043,-2.8275,-2.8556,-3.793,-3.9277,-3.9941,-3.9922,-3.8613,-3.6875,0.0,0.0,-3.1953,-3.1074,-3.0898,-3.0898,-3.0898,-3.0898,-3.0898,-3.0898,0.0,0.0,0.0,0.0,0.0,0.0,0.0,0.0,0.0,0.0,0.0,0.0,0.0,0.0,0.0,-4.6045,-4.5884,-4.5884,-4.4851,-4.4286,-4.4286,-4.3489,-4.3085,-4.3066,-4.3085,-4.3104,-4.3085,-4.3104,-4.3104,0.0,0.0,0.0,0.0,-4.1788,-4.1296,-4.0496,-4.0496,-4.0496,-4.0496,-4.0496,-4.0496,-4.0496,-4.0496,-3.94,-3.8007,-3.7988,-3.6873,-3.5654,-3.6442,-3.6692,-3.7065,-3.8796,-3.9284,-3.9284,-3.9284,-3.8642,-3.8007,-3.8007,-3.8007,-3.8007,-3.8007,-3.8402,-3.8689,-3.8368,-3.8721,-3.8743,-3.7676,-3.7489,-3.7311,-3.6768,-3.6906,-3.6893,-3.6358,-3.6508,-3.6365,-3.5577,-3.4699,-3.3821,-3.2968,-3.2141,-3.1679,-3.1679,-3.0865,-3.0385,-3.0385,-3.0404,-3.0404,-3.0404,-3.0385,-2.9967,-2.9107,-2.9088,-2.8684,-2.7915,-2.8728,-2.9621,-3.4668,-3.6113,-3.709,-3.6484,-3.5937,-3.5078,-3.3379,0.0,-3.1953,-3.1074,-3.0898,-3.0898,-3.0898,-3.0898,-3.0878,-3.0771,0.0,0.0,0.0,0.0,0.0,0.0,0.0,0.0,0.0,0.0,0.0,0.0,0.0,0.0,0.0,-4.5992,-4.5899,-4.5899,-4.545,-4.4893,-4.4316,-4.4643,-4.422,-4.3104,-4.4259,-4.4489,-4.3932,-4.4528,0.0,0.0,0.0,0.0,0.0,-4.2047,-4.1296,-4.0496,-4.0496,-4.0496,-4.0496,-4.0496,-4.0496,-4.0419,-3.9881,-3.8931,-3.7892,-3.7315,-3.6385,-3.5654,-3.6462,-3.7123,-3.795,-3.965,-4.0131,-4.0131,-4.0131,-3.9919,-3.9708,-3.9708,-3.9708,-3.9708,-3.9708,-3.9702,-3.9671,-3.9543,-3.9305,-3.8997,-3.8646,-3.7981,-3.7495,-3.7519,-3.7275,-3.7131,-3.7184,-3.7424,-3.7257,-3.6404,-3.6065,-3.5334,-3.3917,-3.3006,-3.2295,-3.1737,-3.1448,-3.1019,-3.0423,-3.0404,-3.0404,-3.0404,-3.0404,-3.0269,-2.9981,-2.9981,-2.9865,-2.9615,-2.9865,-3.0186,0.0,-3.3008,-3.3945,-3.3398,-3.3262,0.0,0.0,0.0,-3.1562,-3.1016,-3.0898,-3.0898,-3.0898,-3.0898,-3.0878,0.0,0.0,0.0,0.0,0.0,0.0,0.0,0.0,0.0,0.0,0.0,0.0,0.0,0.0,0.0,0.0,0.0,-4.5866,-4.5866,-4.5696,-4.5344,-4.4797,-4.5325,-4.5075,-4.4066,-4.5094,-4.5325,-4.4797,-4.5344,0.0,0.0,0.0,0.0,0.0,-4.2019,-4.1296,-4.0496,-4.0496,-4.0496,-4.0496,-4.0496,-4.0496,-4.0381,-3.9573,-3.8719,-3.7853,-3.6981,-3.6365,-3.6115,-3.6942,-3.7796,-3.8777,-4.0131,-4.0496,-4.0496,-4.0496,-4.0496,-4.0496,-4.0496,-4.0496,-4.0473,-4.0372,-4.0213,-4.0022,-3.9775,-3.9396,-3.9058,-3.8975,-3.8409,-3.8007,-3.8178,-3.8009,-3.7864,-3.7868,-3.8113,-3.7897,-3.6801,-3.6692,-3.6154,-3.4814,-3.3891,-3.3179,-3.266,-3.2045,-3.1468,-3.0904,-3.0577,-3.0404,-3.0404,-3.0404,-3.0404,-3.0404,-3.0404,-3.0404,-3.0404,-3.0404,-3.0449,0.0,0.0,0.0,0.0,0.0,0.0,0.0,0.0,0.0,0.0,0.0,-3.0898,-3.0898,-3.0898,0.0,0.0,0.0,0.0,0.0,0.0,0.0,0.0,0.0,0.0,0.0,0.0,0.0,0.0,0.0,0.0,0.0,0.0,-4.5796,-4.5783,-4.5665,-4.5594,-4.5594,-4.5594,-4.5594,-4.5594,-4.5594,-4.5594,-4.5594,-4.5537,0.0,0.0,0.0,0.0,0.0,-4.1731,-4.1239,-4.0496,-4.0496,-4.0496,-4.0496,-4.0496,-4.0458,-4.0304,-3.9554,-3.8681,-3.7757,-3.6904,-3.6615,-3.6788,-3.7719,-3.8604,-3.9477,-4.0265,-4.0496,-4.0496,-4.0496,-4.0496,-4.0496,-4.0496,-4.0481,-4.0397,-4.0148,-4.0081,-3.988,-3.9269,-3.9125,-3.9008,-3.8777,-3.8704,-3.8707,-3.8719,-3.8933,-3.8932,-3.849,-3.8703,-3.8343,-3.694,-3.6788,-3.6442,-3.5577,-3.4757,-3.4263,-3.4205,-3.2679,-3.1756,-3.1698,-3.0865,-3.0404,-3.0404,-3.0404,-3.0404,-3.0404,-3.0404,-3.0404,-3.0404,-3.0404,-3.0425,0.0,0.0,0.0,0.0,0.0,0.0,0.0,0.0,0.0,0.0,0.0,0.0,0.0,0.0,0.0,0.0,0.0,0.0,0.0,0.0,0.0,0.0,0.0,0.0,0.0,0.0,0.0,0.0,0.0,0.0,0.0,0.0,-4.5754,-4.566,-4.562,-4.5594,-4.5594,-4.5594,-4.5594,-4.5594,-4.5594,-4.5594,-4.5575,-4.4913,0.0,0.0,0.0,0.0,-4.175,-4.1085,-4.0689,-4.0496,-4.0496,-4.0496,-4.0496,-4.0496,-4.0112,-3.9554,-3.9381,-3.8296,-3.6865,-3.6058,-3.5788,-3.6058,-3.7546,-3.8604,-3.9477,-4.0265,-4.0496,-4.0496,-4.0496,-4.0496,-4.0496,-4.0496,-4.0347,-4.0177,-4.011,-3.9901,-3.9668,-3.9498,-3.9276,-3.9085,-3.9027,-3.8844,-3.8777,-3.899,-3.9044,-3.9227,-3.9635,-3.9747,-3.925,-3.7851,-3.77,-3.7103,-3.5635,-3.5308,-3.4911,-3.4244,-3.3199,-3.2333,-3.1737,-3.0865,-3.0404,-3.0404,-3.0404,-3.0404,-3.0404,-3.0404,-3.0404,-3.0404,-3.0404,-3.0402,0.0,0.0,0.0,0.0,0.0,0.0,0.0,0.0,0.0,0.0,0.0,0.0,0.0,0.0,0.0,0.0,0.0,0.0,0.0,0.0,0.0,0.0,0.0,0.0,0.0,0.0,0.0,0.0,0.0,0.0,0.0,0.0,-4.5082,-4.5017,-4.4998,-4.521,-4.5594,-4.5594,-4.5594,-4.5594,-4.5594,-4.5402,-4.4998,-4.4509,0.0,0.0,0.0,0.0,-4.1162,-4.0689,-4.0496,-4.0496,-4.0496,-4.0496,-4.0458,-4.0092,-3.9669,-3.9188,-3.8373,-3.7257,-3.6077,-3.5635,-3.55,-3.5808,-3.7488,-3.8334,-3.895,-4.0169,-4.0496,-4.0496,-4.0496,-4.0496,-4.0496,-4.0496,-4.0304,-4.0061,-3.9901,-3.9611,-3.9333,-3.9216,-3.9045,-3.8923,-3.8923,-3.8788,-3.8747,-3.8894,-3.8923,-3.9095,-3.9576,-3.9775,-3.9326,-3.7912,-3.7909,-3.7315,-3.5635,-3.55,-3.5141,-3.4263,-3.3372,-3.2545,-3.1737,-3.0865,-3.0404,-3.0404,-3.0404,-3.0404,-3.0404,-3.0404,-3.0404,-3.0404,-3.0404,-3.0404,0.0,0.0,0.0,0.0,0.0,0.0,0.0,0.0,0.0,0.0,0.0,0.0,0.0,0.0,0.0,0.0,0.0,0.0,0.0,0.0,0.0,0.0,0.0,0.0,0.0,0.0,0.0,0.0,0.0,0.0,0.0,0.0,0.0,-4.4124,-4.4124,-4.447,-4.521,-4.5229,-4.5229,-4.5229,-4.5229,-4.4825,-4.4105,-4.397,-4.3143,0.0,0.0,0.0,-4.0496,-4.0496,-4.0496,-4.0496,-4.0496,-4.0419,-4.0227,-3.9554,-3.913,-3.8661,-3.7065,-3.6077,-3.55,-3.55,-3.5577,-3.5962,-3.7526,-3.8084,-3.8527,-4.0073,-4.0496,-4.0496,-4.0496,-4.0496,-4.0489,-4.0457,-4.0232,-3.9922,-3.9599,-3.9269,-3.8957,-3.8732,-3.8707,-3.8707,-3.8707,-3.8707,-3.8707,-3.8707,-3.8707,-3.8803,-3.9077,-3.9339,-3.9052,-3.7842,-3.7825,-3.7317,-3.5808,-3.5577,-3.5141,-3.4263,-3.3372,-3.2487,-3.1545,-3.0788,-3.0404,-3.0404,-3.0404,-3.0404,-3.0404,-3.0404,-3.0404,-3.0404,-3.0404,-3.0404,-2.5703,-2.5658,-2.5602,0.0,0.0,0.0,0.0,0.0,0.0,0.0,0.0,0.0,0.0,0.0,0.0,0.0,0.0,0.0,0.0,0.0,0.0,0.0,0.0,0.0,0.0,0.0,0.0,0.0,0.0,0.0,0.0,0.0,0.0,-4.3278,-4.3278,-4.3355,-4.347,-4.347,-4.347,-4.347,-4.347,-4.3412,-4.3258,-4.2527,-4.2038,0.0,0.0,-4.0631,-4.0496,-4.0496,-4.0496,-4.0496,-4.0496,-4.0073,-3.9477,-3.9361,-3.8373,-3.6962,-3.6,-3.5596,-3.55,-3.55,-3.5962,-3.6692,-3.77,-3.8527,-3.9304,-4.0246,-4.0496,-4.0496,-4.0496,-4.0496,-4.0449,-4.0213,-3.9922,-3.9587,-3.9238,-3.8966,-3.8747,-3.8723,-3.8707,-3.8707,-3.8707,-3.8707,-3.8707,-3.8707,-3.8707,-3.8803,-3.9077,-3.9133,-3.9032,-3.8642,-3.7983,-3.7285,-3.6582,-3.5885,-3.5141,-3.4263,-3.3372,-3.2218,-3.0654,-3.0462,-3.0404,-3.0404,-3.0404,-3.0404,-3.0404,-3.0404,-3.0404,-3.0404,-3.0404,-3.0404,-2.5703,-2.5658,-2.5597,0.0,0.0,0.0,0.0,0.0,0.0,0.0,0.0,0.0,0.0,0.0,0.0,0.0,0.0,0.0,0.0,0.0,0.0,0.0,0.0,0.0,0.0,0.0,0.0,0.0,0.0,0.0,0.0,0.0,0.0,0.0,-4.2412,-4.2162,-4.17,-4.17,-4.2162,-4.3104,-4.3104,-4.2854,-4.2374,-4.1981,-4.1546,-4.1085,0.0,-4.0496,-4.0496,-4.0496,-4.0496,-4.0458,-4.0015,-3.9631,-3.9246,-3.8757,-3.7796,-3.6712,-3.6815,-3.6853,-3.6853,-3.6853,-3.7103,-3.7565,-3.843,-3.8977,-3.9477,-4.0265,-4.0496,-4.0496,-4.0496,-4.0496,-4.0422,-4.0158,-3.9982,-3.9731,-3.9199,-3.9013,-3.8869,-3.8735,-3.8707,-3.875,-3.888,-3.8923,-3.8923,-3.8923,-3.8923,-3.8909,-3.8898,-3.8994,-3.8945,-3.858,-3.8337,-3.7797,-3.6793,-3.6365,-3.5391,-3.3603,-3.2718,-3.1698,-3.0442,-3.0404,-3.0404,-3.0404,-3.0404,-3.0404,-3.0404,-3.0404,-3.0404,-3.0404,-3.0404,-3.0404,-2.5662,-2.5636,-2.5597,0.0,0.0,0.0,0.0,0.0,0.0,0.0,0.0,0.0,0.0,0.0,0.0,0.0,0.0,0.0,0.0,0.0,0.0,0.0,0.0,0.0,0.0,0.0,0.0,0.0,0.0,0.0,0.0,0.0,0.0,0.0,-4.1508,-4.1181,-4.0516,-4.0496,-4.117,-4.2489,-4.2489,-4.2143,-4.1508,-4.1508,-4.1027,-4.0227,-4.0227,-4.0227,-4.0227,-4.0227,-4.0227,-4.0169,-3.9534,-3.9053,-3.8604,-3.795,-3.7276,-3.6827,-3.77,-3.8007,-3.8007,-3.8007,-3.8142,-3.843,-3.9111,-3.9438,-3.9708,-4.0323,-4.0496,-4.0496,-4.0496,-4.0496,-4.0422,-4.0158,-4.0032,-3.9819,-3.9244,-3.9063,-3.8947,-3.875,-3.8747,-3.8855,-3.9058,-3.9178,-3.9186,-3.9125,-3.9112,-3.9022,-3.8815,-3.8971,-3.8995,-3.8757,-3.8782,-3.8237,-3.6813,-3.6692,-3.5699,-3.3353,-3.2256,-3.141,-3.0731,-3.0519,-3.0404,-3.0404,-3.0404,-3.0404,-3.0404,-3.0404,-3.0404,-3.0404,-3.0404,-3.0404,-2.5597,-2.5603,-2.5607,-2.5662,-2.5598,0.0,-2.6601,-2.7485,0.0,0.0,0.0,0.0,0.0,0.0,0.0,0.0,0.0,0.0,0.0,0.0,0.0,0.0,0.0,0.0,0.0,0.0,0.0,0.0,0.0,0.0,0.0,0.0,0.0,0.0,0.0,-4.0554,-4.0496,-4.0496,-4.0554,-4.0689,-4.0689,-4.065,-4.0593,-4.0593,-4.015,-3.94,-3.94,-3.94,-3.94,-3.94,-3.94,-3.9381,-3.9323,-3.8315,-3.6885,-3.6808,-3.675,-3.6827,-3.77,-3.8007,-3.8007,-3.8007,-3.8546,-3.9227,-3.9284,-3.9823,-4.0439,-4.0477,-4.0496,-4.0496,-4.0496,-4.0496,-4.0422,-4.0158,-3.9851,-3.9541,-3.9192,-3.8909,-3.8719,-3.8707,-3.8894,-3.9072,-3.9099,-3.9352,-3.945,-3.9152,-3.9112,-3.9099,-3.9072,-3.9085,-3.9321,-3.9897,-3.9271,-3.8237,-3.6813,-3.6692,-3.5968,-3.4225,-3.2583,-3.1679,-3.1621,-3.0827,-3.0404,-3.0404,-3.0404,-3.0404,-3.0404,-3.0404,-3.0404,-3.0404,-3.0404,-3.0404,-2.5598,-2.5633,-2.566,-2.5636,-2.5602,0.0,0.0,-2.8226,-2.9197,0.0,0.0,0.0,0.0,0.0,0.0,0.0,0.0,0.0,0.0,0.0,0.0,0.0,0.0,0.0,0.0,0.0,0.0,0.0,0.0,0.0,0.0,0.0,0.0,0.0,0.0,-3.895,-3.895,-3.895,-3.895,-3.895,-3.9496,-3.9477,-3.895,-3.895,-3.8777,-3.8488,-3.8488,-3.8488,-3.8488,-3.8488,-3.8488,-3.843,-3.7892,-3.7276,-3.6769,-3.7315,-3.7853,-3.843,-3.9265,-3.9554,-3.9554,-3.9554,-3.9785,-4.0054,-4.0054,-4.0265,-4.0496,-4.0496,-4.0496,-4.0496,-4.0496,-4.0496,-4.0422,-4.0158,-4.0002,-3.9765,-3.9212,-3.9184,-3.9203,-3.899,-3.921,-3.9481,-3.9698,-3.9645,-3.9622,-3.972,-3.9534,-3.9401,-3.9401,-3.9401,-3.9587,-4.0042,-3.9505,-3.8692,-3.7596,-3.7,-3.6212,-3.5084,-3.391,-3.2795,-3.1737,-3.1385,-3.0942,-3.0404,-3.0404,-3.0404,-3.0404,-3.0404,-3.0404,-3.0404,-3.0404,-3.0404,-2.5561,-2.5628,-2.5661,0.0,0.0,0.0,-2.7784,-2.8514,-2.9326,0.0,0.0,0.0,0.0,0.0,0.0,0.0,0.0,0.0,0.0,0.0,0.0,0.0,0.0,0.0,0.0,0.0,0.0,0.0,0.0,0.0,0.0,0.0,0.0,0.0,0.0,0.0,-3.8007,-3.8007,-3.7853,-3.7603,-3.818,-3.8315,-3.8007,-3.8007,-3.7853,-3.7584,-3.7584,-3.7584,-3.7584,-3.7584,-3.7584,-3.7507,-3.6654,-3.6327,-3.6462,-3.7584,-3.8373,-3.9027,-4.0131,-4.0496,-4.0496,-4.0496,-4.0496,-4.0496,-4.0496,-4.0496,-4.0496,-4.0496,-4.0496,-4.0496,-4.0496,-4.0441,-4.033,-4.0139,-3.9932,-3.9656,-3.9199,-3.9276,-3.9364,-3.9133,-3.9469,-3.9819,-4.0071,-3.9983,-3.9934,-4.0081,-3.9901,-3.9765,-3.9765,-3.9765,-3.9872,-4.0195,-3.9671,-3.8957,-3.8065,-3.7199,-3.6365,-3.5558,-3.4949,-3.3968,-3.2545,-3.2237,-3.1795,-3.1192,-3.1192,-3.1192,-3.1192,-3.0923,-3.0808,-3.0808,-3.0538,-3.0404,-2.5473,-2.5552,0.0,0.0,0.0,0.0,0.0,-2.8054,0.0,0.0,0.0,0.0,0.0,0.0,0.0,0.0,0.0,0.0,0.0,0.0,0.0,0.0,0.0,0.0,0.0,0.0,0.0,0.0,0.0,0.0,0.0,0.0,0.0,0.0,0.0,0.0,-3.7988,-3.7988,-3.7546,-3.6692,-3.6692,-3.7142,-3.7988,-3.7988,-3.7507,-3.6692,-3.6692,-3.6692,-3.6692,-3.6692,-3.6692,-3.6615,-3.5808,-3.55,-3.5712,-3.7373,-3.7988,-3.8238,-3.99,-4.0477,-4.0496,-4.0496,-4.0496,-4.0496,-4.0496,-4.0496,-4.0496,-4.0496,-4.0496,-4.0496,-4.0496,-4.0304,-4.0091,-4.0101,-3.9587,-3.9112,-3.9093,-3.9093,-3.9112,-3.9112,-3.9645,-4.0101,-4.0101,-4.0321,-4.0397,-4.0139,-4.0101,-4.0091,-4.0101,-4.0101,-4.0204,-4.0473,-3.9785,-3.895,-3.8065,-3.7192,-3.6365,-3.5558,-3.55,-3.5122,-3.4244,-3.3372,-3.291,-3.2891,-3.2891,-3.2891,-3.2891,-3.2102,-3.1718,-3.1679,-3.0808,-3.0404,-2.5486,0.0,0.0,0.0,0.0,0.0,0.0,0.0,0.0,0.0,0.0,0.0,0.0,0.0,0.0,0.0,0.0,0.0,0.0,0.0,0.0,0.0,0.0,0.0,0.0,0.0,0.0,0.0,0.0,0.0,0.0,0.0,0.0,0.0,0.0,0.0,-3.6231,-3.6231,-3.6115,-3.5865,-3.5865,-3.5981,-3.6231,-3.6231,-3.6096,-3.5865,-3.5865,-3.5865,-3.5865,-3.5865,-3.5865,-3.5827,-3.5596,-3.5846,-3.6404,-3.6904,-3.7469,-3.8065,-3.8565,-3.9142,-3.9669,-3.9669,-4.0035,-4.0496,-4.0496,-4.0496,-4.0496,-4.0496,-4.0496,-4.0457,-4.0278,-3.9983,-3.9808,-4.0032,-3.9587,-3.916,-3.9389,-3.945,-3.9529,-3.9765,-4.0129,-4.0381,-4.0381,-4.0101,-3.9984,-4.0319,-3.9821,-3.9576,-4.0032,-4.0258,-4.0339,-4.0223,-3.9671,-3.8858,-3.7747,-3.7072,-3.6365,-3.5558,-3.55,-3.5122,-3.4244,-3.3955,-3.3526,-3.291,-3.2891,-3.2891,-3.2891,-3.266,-3.2256,-3.1698,-3.1429,-3.0981,-2.5448,0.0,0.0,0.0,0.0,0.0,0.0,0.0,0.0,0.0,0.0,0.0,0.0,0.0,0.0,0.0,0.0,0.0,0.0,0.0,0.0,0.0,0.0,0.0,0.0,0.0,0.0,0.0,0.0,0.0,0.0,0.0,0.0,0.0,0.0,0.0,-3.4462,-3.4814,-3.4988,-3.4988,-3.5327,-3.55,-3.55,-3.55,-3.55,-3.55,-3.55,-3.55,-3.55,-3.55,-3.55,-3.55,-3.55,-3.5808,-3.625,-3.6577,-3.7019,-3.7526,-3.7873,-3.8565,-3.9304,-3.9304,-3.9842,-4.0496,-4.0496,-4.0496,-4.0481,-4.0372,-4.0425,-4.0406,-4.0003,-3.9754,-3.9622,-3.9698,-3.9389,-3.9165,-3.9352,-3.9611,-3.9819,-3.9891,-4.0221,-4.0422,-4.0184,-3.9954,-3.9913,-4.0285,-3.9853,-3.9645,-4.0061,-4.011,-4.0091,-3.9922,-3.9431,-3.867,-3.7603,-3.7014,-3.6365,-3.5558,-3.55,-3.525,-3.4737,-3.4718,-3.4468,-3.3949,-3.393,-3.393,-3.393,-3.3583,-3.2987,-3.2179,-3.1852,-3.1231,0.0,0.0,0.0,0.0,0.0,0.0,0.0,0.0,0.0,0.0,0.0,0.0,0.0,0.0,0.0,0.0,0.0,0.0,0.0,0.0,0.0,0.0,0.0,0.0,0.0,0.0,0.0,0.0,0.0,0.0,0.0,0.0,0.0,0.0,0.0,0.0,-3.2891,-3.3686,-3.409,0.0,-3.4891,-3.525,-3.5269,-3.5423,-3.55,-3.55,-3.55,-3.55,-3.55,-3.55,-3.55,-3.55,-3.55,-3.55,-3.5596,-3.6327,-3.6596,-3.6692,-3.7507,-3.8334,-3.9092,-3.9169,-3.9727,-4.04,-4.0477,-4.0496,-4.043,-4.0177,-4.0286,-4.0328,-3.9724,-3.9545,-3.9462,-3.9139,-3.9085,-3.9112,-3.9152,-3.9622,-3.9963,-3.969,-4.0063,-4.0248,-3.9701,-3.9819,-4.0012,-4.0012,-4.0071,-4.0091,-4.0061,-3.9786,-3.9587,-3.9564,-3.9071,-3.8404,-3.7547,-3.6963,-3.6325,-3.5558,-3.55,-3.55,-3.55,-3.55,-3.55,-3.55,-3.55,-3.55,-3.55,-3.4699,-3.3872,-3.3006,-3.2275,-3.1462,0.0,-2.4483,0.0,0.0,0.0,0.0,0.0,0.0,0.0,0.0,0.0,0.0,0.0,0.0,0.0,0.0,0.0,0.0,0.0,0.0,0.0,0.0,0.0,0.0,0.0,0.0,0.0,0.0,0.0,0.0,0.0,0.0,0.0,0.0,0.0,-3.2891,-3.2891,-3.3083,-3.3179,0.0,-3.3372,-3.3468,-3.3506,-3.4885,-3.55,-3.55,-3.55,-3.55,-3.55,-3.55,-3.55,-3.55,-3.55,-3.55,-3.5519,-3.5692,-3.575,-3.5788,-3.5962,-3.6558,-3.7373,-3.8065,-3.8854,-3.9688,-4.0304,-4.0496,-4.043,-4.0177,-4.0139,-4.0023,-3.9377,-3.9199,-3.9144,-3.8859,-3.8947,-3.916,-3.9445,-3.9611,-3.9765,-3.9962,-3.9882,-3.9757,-3.9622,-3.9438,-3.9333,-3.9333,-3.9765,-4.0002,-3.9742,-3.9645,-3.9505,-3.9244,-3.8722,-3.8069,-3.7265,-3.6682,-3.6127,-3.5551,-3.55,-3.55,-3.55,-3.55,-3.55,-3.55,-3.55,-3.55,-3.55,-3.5308,-3.4776,-3.3917,-3.3744,-3.3199,0.0,0.0,0.0,0.0,0.0,0.0,0.0,0.0,0.0,0.0,0.0,0.0,0.0,0.0,0.0,0.0,0.0,0.0,0.0,0.0,0.0,0.0,0.0,0.0,0.0,0.0,0.0,0.0,0.0,0.0,0.0,0.0,0.0,0.0,-3.1692,-3.1692,-3.1692,-3.2122,-3.2333,-3.2333,-3.2718,-3.2891,-3.2929,-3.3833,-3.425,-3.425,-3.425,-3.4487,-3.4872,-3.4872,-3.5115,-3.55,-3.55,-3.55,-3.55,-3.55,-3.55,-3.55,-3.55,-3.6038,-3.6769,-3.7238,-3.7969,-3.8757,-3.9181,-3.9296,-3.9292,-3.925,-3.9344,-3.9388,-3.9016,-3.8716,-3.8552,-3.867,-3.8909,-3.9186,-3.9529,-3.9599,-3.9645,-3.9819,-3.9731,-3.9505,-3.9216,-3.9262,-3.9276,-3.9107,-3.9522,-3.9742,-3.9401,-3.9249,-3.91,-3.8923,-3.8779,-3.8251,-3.7182,-3.6956,-3.6479,-3.5563,-3.55,-3.55,-3.55,-3.55,-3.55,-3.55,-3.55,-3.55,-3.55,-3.55,-3.5045,-3.4205,-3.4205,-3.3725,0.0,0.0,0.0,0.0,0.0,0.0,0.0,0.0,0.0,0.0,0.0,0.0,0.0,0.0,0.0,0.0,0.0,0.0,0.0,0.0,0.0,0.0,0.0,0.0,0.0,0.0,0.0,0.0,0.0,0.0,0.0,0.0,-2.9962,-2.9962,-2.9962,-2.9962,-2.9962,-3.0679,-3.1044,-3.1044,-3.1852,-3.2237,-3.2256,-3.2391,-3.2622,-3.2891,-3.2891,-3.3314,-3.3994,-3.4148,-3.4622,-3.5288,-3.5442,-3.55,-3.55,-3.55,-3.55,-3.55,-3.55,-3.5942,-3.6519,-3.6654,-3.7199,-3.7808,-3.7893,-3.7924,-3.7945,-3.8005,-3.8223,-3.8404,-3.8311,-3.7964,-3.7765,-3.8342,-3.8648,-3.8971,-3.9491,-3.9545,-3.9541,-3.9587,-3.9517,-3.9294,-3.8777,-3.9149,-3.9414,-3.9133,-3.9346,-3.9414,-3.9139,-3.8869,-3.8707,-3.8707,-3.8894,-3.8518,-3.7209,-3.7296,-3.6875,-3.5582,-3.55,-3.55,-3.55,-3.55,-3.55,-3.55,-3.55,-3.55,-3.55,-3.55,-3.5141,-3.441,-3.441,-3.4045,0.0,0.0,0.0,0.0,0.0,0.0,0.0,0.0,0.0,0.0,0.0,0.0,0.0,0.0,0.0,0.0,0.0,0.0,0.0,0.0,0.0,0.0,0.0,0.0,0.0,0.0,0.0,0.0,0.0,0.0,0.0,-2.8236,-2.8236,-2.8236,-2.8236,-2.8236,-2.8236,-2.8352,-2.8415,-2.8415,-2.9223,-2.9608,-2.9627,-3.039,-3.1519,-3.2891,-3.2891,-3.2968,-3.3122,-3.3898,-3.4263,-3.4449,-3.5212,-3.55,-3.55,-3.55,-3.55,-3.55,-3.55,-3.5577,-3.5788,-3.6462,-3.6769,-3.6971,-3.7496,-3.7655,-3.7556,-3.7057,-3.6938,-3.6914,-3.667,-3.6566,-3.6705,-3.7489,-3.7684,-3.8062,-3.9331,-3.9364,-3.9251,-3.9534,-3.9181,-3.8792,-3.8704,-3.8947,-3.9147,-3.9112,-3.9152,-3.9147,-3.9112,-3.8869,-3.8707,-3.8707,-3.8735,-3.8308,-3.7186,-3.7125,-3.6682,-3.5568,-3.55,-3.55,-3.55,-3.55,-3.55,-3.55,-3.55,-3.55,-3.55,-3.55,-3.5442,-3.5327,-3.5327,-3.525,0.0,0.0,0.0,0.0,0.0,0.0,0.0,0.0,0.0,0.0,0.0,0.0,0.0,0.0,0.0,0.0,0.0,0.0,0.0,0.0,0.0,0.0,0.0,0.0,0.0,0.0,0.0,0.0,0.0,0.0,-2.7895,-2.7895,-2.7895,-2.7895,-2.7895,-2.7895,-2.7895,-2.7895,-2.7895,-2.7895,-2.8261,-2.8434,-2.8453,-2.9294,-3.0333,-3.15,-3.15,-3.1775,-3.2256,-3.2641,-3.3353,-3.4244,-3.4622,-3.4976,-3.5297,-3.5446,-3.5398,-3.5297,-3.5446,-3.55,-3.5558,-3.5904,-3.6038,-3.6082,-3.6347,-3.6321,-3.6205,-3.6241,-3.614,-3.6061,-3.6255,-3.6303,-3.6486,-3.7309,-3.7492,-3.7837,-3.9063,-3.9095,-3.8927,-3.9078,-3.8873,-3.8707,-3.8707,-3.8923,-3.9049,-3.8894,-3.8994,-3.9049,-3.8913,-3.8777,-3.8707,-3.8707,-3.8829,-3.8598,-3.7841,-3.7934,-3.7718,-3.6947,-3.6442,-3.6173,-3.6173,-3.5731,-3.55,-3.55,-3.55,-3.55,-3.55,-3.55,-3.55,-3.55,-3.55,-3.55,0.0,0.0,0.0,0.0,0.0,0.0,0.0,0.0,0.0,0.0,0.0,0.0,0.0,0.0,0.0,0.0,0.0,0.0,0.0,0.0,0.0,0.0,0.0,0.0,0.0,0.0,0.0,0.0,0.0,0.0,-2.7236,-2.7236,-2.7236,-2.7236,-2.7236,-2.7236,-2.7236,-2.7236,-2.7236,-2.7236,-2.7467,-2.7563,-2.7601,-2.8626,-2.9448,-3.0077,-3.0308,-3.0769,-3.1391,-3.1621,-3.2449,-3.359,-3.3801,-3.4235,-3.4806,-3.5072,-3.5128,-3.513,-3.5417,-3.55,-3.55,-3.55,-3.5446,-3.5383,-3.5312,-3.5105,-3.4936,-3.5262,-3.5228,-3.5204,-3.5804,-3.5973,-3.6229,-3.7254,-3.7492,-3.7768,-3.8776,-3.8894,-3.8773,-3.8704,-3.8707,-3.8707,-3.8707,-3.8869,-3.8919,-3.8735,-3.8869,-3.8937,-3.8719,-3.8707,-3.8719,-3.8788,-3.8923,-3.8829,-3.8455,-3.8588,-3.8479,-3.8031,-3.7392,-3.6923,-3.6712,-3.6115,-3.5712,-3.55,-3.55,-3.55,-3.55,-3.55,-3.55,-3.55,-3.55,-3.55,0.0,0.0,0.0,0.0,0.0,0.0,0.0,0.0,0.0,0.0,0.0,0.0,0.0,0.0,0.0,0.0,0.0,0.0,0.0,0.0,0.0,0.0,0.0,0.0,0.0,0.0,0.0,0.0,0.0,0.0,-2.5442,-2.5442,-2.5442,-2.5442,-2.5442,-2.5442,-2.5442,-2.5442,-2.5442,-2.5442,-2.6269,-2.6678,-2.6717,-2.8357,-2.9127,-2.9204,-3.0038,-3.0423,-3.0538,-3.1365,-3.1756,-3.191,-3.2679,-3.3334,-3.389,-3.4176,-3.4618,-3.513,-3.5417,-3.55,-3.55,-3.55,-3.5339,-3.5079,-3.4832,-3.45,-3.4195,-3.3983,-3.3902,-3.4072,-3.4857,-3.5078,-3.5481,-3.7125,-3.7492,-3.7713,-3.8554,-3.8909,-3.8994,-3.8747,-3.8707,-3.8707,-3.8707,-3.8704,-3.8723,-3.8707,-3.8704,-3.8723,-3.8707,-3.8707,-3.8803,-3.9063,-3.8855,-3.8748,-3.8774,-3.8496,-3.8229,-3.7997,-3.7969,-3.7565,-3.6731,-3.6654,-3.6269,-3.5519,-3.55,-3.55,-3.55,-3.55,-3.55,-3.55,-3.55,-3.55,0.0,0.0,0.0,0.0,0.0,0.0,0.0,0.0,0.0,0.0,0.0,0.0,0.0,0.0,0.0,0.0,0.0,0.0,0.0,0.0,0.0,0.0,0.0,0.0,0.0,0.0,0.0,0.0,0.0,0.0,-2.5111,-2.5224,-2.5308,-2.5308,-2.5308,-2.5308,-2.5308,-2.5308,-2.5308,-2.5308,-2.5615,-2.5769,-2.5827,-2.7544,-2.8338,-2.8415,-2.9788,-3.0404,-3.0417,-3.056,-3.104,-3.1705,-3.1832,-3.2657,-3.3816,-3.3915,-3.4336,-3.4889,-3.5138,-3.513,-3.5008,-3.519,-3.507,-3.4832,-3.4724,-3.4869,-3.5014,-3.4921,-3.514,-3.5477,-3.5771,-3.6211,-3.689,-3.7991,-3.8267,-3.834,-3.8634,-3.8777,-3.8667,-3.804,-3.7933,-3.7933,-3.7933,-3.7933,-3.8102,-3.8615,-3.8707,-3.8707,-3.8707,-3.8707,-3.8803,-3.9072,-3.9008,-3.915,-3.9604,-3.9526,-3.9422,-3.9353,-3.8826,-3.8119,-3.725,-3.6714,-3.6147,-3.5519,-3.55,-3.55,-3.55,-3.55,-3.55,-3.55,-3.55,-3.55,0.0,0.0,0.0,0.0,0.0,0.0,0.0,0.0,0.0,0.0,0.0,0.0,0.0,0.0,0.0,0.0,0.0,0.0,0.0,0.0,0.0,0.0,0.0,0.0,0.0,0.0,0.0,0.0,0.0,0.0,-2.501,-2.5135,-2.5224,-2.5303,-2.5308,-2.5308,-2.5308,-2.5308,-2.5264,-2.5203,-2.5203,-2.5203,-2.5261,-2.6998,-2.7832,-2.7986,-2.9582,-3.026,-3.0254,-3.0075,-3.0447,-3.1104,-3.0923,-3.1722,-3.2991,-3.3266,-3.3749,-3.4327,-3.4794,-3.486,-3.4724,-3.4917,-3.4774,-3.4529,-3.4529,-3.4916,-3.5328,-3.5328,-3.5786,-3.6358,-3.6615,-3.7309,-3.8043,-3.8579,-3.8707,-3.8707,-3.8707,-3.8777,-3.8579,-3.7669,-3.7779,-3.7929,-3.7559,-3.7731,-3.8065,-3.8615,-3.8707,-3.8707,-3.8707,-3.8707,-3.8803,-3.9072,-3.9008,-3.9236,-3.988,-3.9819,-3.9808,-3.9922,-3.939,-3.8677,-3.7793,-3.6996,-3.6317,-3.5776,-3.5496,-3.5417,-3.55,-3.55,-3.55,-3.55,-3.55,-3.55,0.0,0.0,0.0,0.0,0.0,0.0,0.0,0.0,0.0,0.0,0.0,0.0,0.0,0.0,0.0,0.0,0.0,0.0,0.0,0.0,0.0,0.0,0.0,0.0,0.0,0.0,0.0,0.0,0.0,-2.5004,-2.4979,-2.501,-2.5099,-2.5284,-2.5308,-2.5308,-2.5308,-2.5284,-2.5179,-2.5004,-2.5004,-2.5004,-2.5068,-2.6766,-2.7675,-2.7975,-2.9351,-2.9972,-2.9984,-2.9984,-2.9991,-2.9991,-2.9984,-3.0517,-3.1386,-3.2167,-3.2841,-3.3513,-3.4353,-3.4655,-3.4674,-3.4674,-3.4456,-3.4188,-3.4188,-3.4572,-3.5004,-3.5004,-3.5628,-3.6505,-3.7327,-3.8102,-3.8707,-3.8707,-3.8707,-3.8707,-3.8707,-3.889,-3.8743,-3.7658,-3.8312,-3.8679,-3.764,-3.812,-3.867,-3.8707,-3.8707,-3.8707,-3.8707,-3.8707,-3.8803,-3.9072,-3.8855,-3.8927,-3.9552,-3.9289,-3.9238,-3.9564,-3.9587,-3.9199,-3.8328,-3.7521,-3.6847,-3.6309,-3.5507,-3.5223,-3.5493,-3.5493,-3.5493,-3.5493,-3.5493,-3.5493,-2.5308,0.0,0.0,0.0,0.0,0.0,0.0,0.0,0.0,0.0,0.0,0.0,0.0,0.0,0.0,0.0,0.0,0.0,0.0,0.0,0.0,0.0,0.0,0.0,0.0,0.0,0.0,0.0,-2.4962,-2.4955,-2.4869,-2.5084,-2.5234,-2.5303,-2.5308,-2.5308,-2.5308,-2.5157,-2.5065,-2.5004,-2.4904,-2.491,-2.5024,-2.6005,-2.6875,-2.7663,-2.8544,-2.9156,-2.9561,-2.9561,-2.9643,-2.9763,-2.9616,-3.0188,-3.1095,-3.112,-3.1967,-3.3156,-3.3392,-3.3711,-3.4074,-3.4277,-3.4153,-3.3915,-3.3915,-3.4425,-3.5004,-3.5004,-3.6046,-3.7345,-3.8157,-3.8524,-3.8707,-3.8707,-3.8707,-3.8707,-3.8707,-3.8446,-3.7907,-3.6849,-3.6881,-3.6965,-3.6681,-3.7309,-3.8028,-3.8615,-3.8707,-3.8707,-3.8707,-3.8707,-3.8803,-3.9072,-3.8855,-3.8927,-3.9552,-3.9289,-3.9152,-3.9225,-3.9238,-3.8857,-3.8047,-3.7237,-3.666,-3.63,-3.5507,-3.513,-3.5207,-3.5207,-3.5207,-3.5207,-3.5207,-3.5312,0.0,0.0,0.0,0.0,0.0,0.0,0.0,-2.3317,0.0,0.0,0.0,0.0,0.0,0.0,0.0,0.0,0.0,0.0,0.0,0.0,0.0,0.0,0.0,0.0,0.0,0.0,0.0,0.0,-2.4137,-2.451,-2.4785,-2.5121,-2.5308,-2.5308,-2.5219,-2.5168,-2.5168,-2.5005,-2.4865,-2.479,-2.4712,-2.4719,-2.4821,-2.5529,-2.625,-2.6928,-2.7915,-2.8521,-2.8881,-2.913,-2.9373,-2.957,-2.9542,-2.9908,-3.0478,-3.0667,-3.1267,-3.2035,-3.2256,-3.276,-3.3319,-3.3487,-3.3664,-3.3807,-3.3807,-3.4362,-3.5004,-3.5004,-3.6211,-3.7603,-3.8065,-3.845,-3.8615,-3.8267,-3.8193,-3.8102,-3.7771,-3.7155,-3.6606,-3.6346,-3.6666,-3.6833,-3.6368,-3.7239,-3.8157,-3.8634,-3.8707,-3.8707,-3.8707,-3.8707,-3.8762,-3.8923,-3.8788,-3.8833,-3.9189,-3.9045,-3.8919,-3.8919,-3.8919,-3.8734,-3.8243,-3.7133,-3.6509,-3.647,-3.5311,-3.4716,-3.4735,-3.499,-3.5034,-3.4935,-3.4935,-3.5008,0.0,0.0,0.0,0.0,0.0,0.0,-2.4394,-2.4168,-2.3663,0.0,0.0,0.0,0.0,0.0,0.0,0.0,0.0,0.0,0.0,0.0,0.0,0.0,0.0,0.0,0.0,0.0,-2.2652,-2.2338,-2.3059,-2.387,-2.474,-2.5121,-2.5308,-2.5308,-2.5099,-2.5004,-2.5004,-2.4836,-2.4678,-2.4503,-2.4478,-2.4478,-2.4522,-2.5211,-2.5685,-2.6042,-2.7279,-2.7893,-2.8116,-2.864,-2.9053,-2.9363,-2.9561,-2.9625,-2.9719,-3.0424,-3.0636,-3.062,-3.1096,-3.1788,-3.2472,-3.2472,-3.3018,-3.3678,-3.3678,-3.4215,-3.4894,-3.4968,-3.6083,-3.7235,-3.7345,-3.79,-3.8248,-3.7547,-3.7364,-3.718,-3.645,-3.561,-3.5224,-3.6009,-3.6989,-3.7426,-3.6452,-3.7624,-3.8707,-3.8707,-3.8707,-3.8707,-3.8707,-3.8707,-3.8707,-3.8707,-3.8707,-3.8707,-3.8707,-3.8707,-3.8707,-3.8707,-3.8707,-3.8707,-3.8707,-3.7147,-3.6436,-3.6695,-3.5063,-3.42,-3.42,-3.4726,-3.4879,-3.4643,-3.4643,-3.4663,0.0,0.0,0.0,0.0,0.0,0.0,-2.5096,-2.4567,-2.3995,0.0,0.0,0.0,0.0,0.0,0.0,0.0,0.0,0.0,0.0,0.0,0.0,0.0,0.0,0.0,0.0,0.0,-2.2652,-2.2338,-2.3042,-2.3879,-2.4747,-2.5121,-2.5308,-2.5308,-2.5099,-2.5004,-2.5004,-2.47,-2.4545,-2.4503,-2.4348,-2.4339,-2.4495,-2.4496,-2.4958,-2.5759,-2.5874,-2.6651,-2.7874,-2.8004,-2.8445,-2.9078,-2.9115,-2.9138,-2.9156,-2.9304,-2.9761,-3.0293,-3.0399,-3.0962,-3.1623,-3.1623,-3.2173,-3.2821,-3.2821,-3.3403,-3.4174,-3.4821,-3.5243,-3.5646,-3.634,-3.6652,-3.6725,-3.656,-3.6523,-3.6486,-3.6321,-3.561,-3.5059,-3.5224,-3.5993,-3.655,-3.6336,-3.7624,-3.8707,-3.8707,-3.8707,-3.8707,-3.8707,-3.8707,-3.8707,-3.8707,-3.8707,-3.8707,-3.8707,-3.8707,-3.8707,-3.8707,-3.8707,-3.8707,-3.8707,-3.7147,-3.6436,-3.6695,-3.5063,-3.42,-3.42,-3.4315,-3.4338,-3.43,-3.43,-3.4434,0.0,0.0,0.0,-2.5308,0.0,0.0,0.0,-2.4981,-2.4582,0.0,0.0,0.0,0.0,0.0,0.0,0.0,0.0,0.0,0.0,0.0,0.0,0.0,0.0,0.0,0.0,0.0,-2.1756,-2.2217,-2.276,-2.3563,-2.4728,-2.5121,-2.5308,-2.5308,-2.5049,-2.4904,-2.4904,-2.4543,-2.4348,-2.4339,-2.4256,-2.4238,-2.4358,-2.4256,-2.4477,-2.4968,-2.5259,-2.5852,-2.6623,-2.7034,-2.7677,-2.8459,-2.899,-2.9123,-2.9017,-2.9156,-2.9381,-2.9592,-2.9592,-3.0136,-3.0797,-3.0797,-3.1623,-3.2601,-3.2601,-3.3151,-3.388,-3.4302,-3.4692,-3.5096,-3.5536,-3.5973,-3.6193,-3.5771,-3.5646,-3.555,-3.5147,-3.4706,-3.4399,-3.4399,-3.544,-3.6303,-3.6303,-3.7624,-3.8707,-3.8707,-3.8707,-3.8707,-3.8707,-3.8707,-3.8707,-3.8707,-3.8707,-3.8707,-3.8707,-3.8707,-3.8707,-3.8707,-3.8707,-3.8707,-3.8707,-3.7533,-3.6573,-3.5872,-3.4628,-3.4012,-3.4012,-3.4012,-3.4012,-3.4012,-3.4012,-3.408,0.0,0.0,0.0,0.0,0.0,-2.5243,0.0,0.0,0.0,0.0,0.0,0.0,0.0,0.0,0.0,0.0,0.0,0.0,0.0,0.0,0.0,0.0,0.0,0.0,0.0,0.0,-2.0766,-2.2142,-2.2423,-2.3213,-2.4766,-2.5132,-2.5308,-2.5308,-2.4962,-2.4804,-2.4804,-2.4401,-2.419,-2.419,-2.419,-2.419,-2.419,-2.419,-2.419,-2.4245,-2.4897,-2.5264,-2.5448,-2.6098,-2.6833,-2.7673,-2.869,-2.9052,-2.904,-2.9235,-2.92,-2.9005,-2.9005,-2.9427,-2.9971,-2.9971,-3.1072,-3.2399,-3.2546,-3.3151,-3.3807,-3.3807,-3.4284,-3.4766,-3.4766,-3.5293,-3.5642,-3.4931,-3.4766,-3.4582,-3.3935,-3.3807,-3.3844,-3.4009,-3.5257,-3.6303,-3.6303,-3.7624,-3.8707,-3.8707,-3.8707,-3.8707,-3.8707,-3.8707,-3.8707,-3.8707,-3.8707,-3.8707,-3.8707,-3.8707,-3.8707,-3.8707,-3.8707,-3.8707,-3.8707,-3.7933,-3.678,-3.5279,-3.4614,-3.4284,-3.4284,-3.4284,-3.4119,-3.3807,-3.3972,-3.4027,0.0,0.0,0.0,0.0,-2.5034,0.0,0.0,0.0,0.0,0.0,0.0,0.0,0.0,0.0,0.0,0.0,0.0,0.0,0.0,0.0,0.0,0.0,0.0,0.0,0.0,0.0,0.0,-2.2331,-2.2374,-2.3101,-2.4879,-2.5168,-2.5308,-2.5308,-2.4962,-2.4804,-2.4804,-2.4401,-2.419,-2.419,-2.419,-2.419,-2.419,-2.419,-2.419,-2.4208,-2.43,-2.475,-2.5411,-2.5503,-2.6017,-2.6814,-2.7665,-2.8397,-2.9005,-2.9021,-2.904,-2.9005,-2.9005,-2.906,-2.9133,-2.9133,-3.0228,-3.1659,-3.2381,-3.3151,-3.3807,-3.3807,-3.3862,-3.3935,-3.3935,-3.4009,-3.4064,-3.3954,-3.3935,-3.3917,-3.3825,-3.3807,-3.4009,-3.4729,-3.5642,-3.6303,-3.6303,-3.7624,-3.8707,-3.8707,-3.8707,-3.8707,-3.8707,-3.8707,-3.8707,-3.8707,-3.8707,-3.8707,-3.8707,-3.8707,-3.8707,-3.8707,-3.8707,-3.8707,-3.8707,-3.7933,-3.7088,-3.6174,-3.6064,-3.6009,-3.6009,-3.6009,-3.5238,-3.3825,-3.4527,-3.4857,0.0,0.0,0.0,0.0,0.0,0.0,0.0,0.0,-2.4924,0.0,0.0,0.0,0.0,0.0,0.0,0.0,0.0,0.0,0.0,0.0,0.0,0.0,0.0,0.0,0.0,0.0,0.0,0.0,0.0,-2.2571,-2.4217,-2.4493,-2.4812,-2.5288,-2.4962,-2.4804,-2.4804,-2.4401,-2.419,-2.419,-2.419,-2.419,-2.419,-2.419,-2.419,-2.419,-2.419,-2.4392,-2.4695,-2.4695,-2.5191,-2.5944,-2.6274,-2.6906,-2.7666,-2.8136,-2.8301,-2.8374,-2.884,-2.9005,-2.9078,-2.9537,-3.0467,-3.1562,-3.2362,-3.3151,-3.3807,-3.3807,-3.3807,-3.3807,-3.3807,-3.3807,-3.3807,-3.3807,-3.4174,-3.4491,-3.4491,-3.489,-3.5349,-3.5697,-3.6431,-3.6997,-3.6997,-3.7936,-3.8707,-3.8707,-3.8707,-3.8707,-3.8707,-3.8707,-3.8707,-3.8707,-3.8707,-3.8707,-3.8707,-3.8707,-3.8707,-3.8707,-3.8707,-3.8707,-3.8707,-3.7933,-3.7345,-3.6997,-3.6541,-3.6303,-3.6303,-3.6303,-3.5936,-3.5257,-3.5605,-3.5752,-2.4804,0.0,0.0,0.0,0.0,0.0,0.0,0.0,0.0,0.0,0.0,0.0,0.0,0.0,0.0,0.0,0.0,0.0,0.0,0.0,0.0,0.0,0.0,0.0,0.0,0.0,0.0,0.0,-2.1378,0.0,-2.3457,-2.388,-2.4341,-2.4868,-2.4828,-2.4775,-2.4716,-2.4375,-2.419,-2.419,-2.419,-2.419,-2.419,-2.419,-2.419,-2.419,-2.419,-2.419,-2.419,-2.419,-2.4548,-2.5081,-2.5301,-2.576,-2.6392,-2.742,-2.7934,-2.8209,-2.8803,-2.9005,-2.9097,-2.9684,-3.0558,-3.1513,-3.21,-3.2999,-3.3807,-3.3807,-3.3807,-3.3807,-3.3807,-3.3807,-3.3807,-3.3807,-3.4399,-3.5004,-3.5004,-3.5665,-3.6358,-3.6578,-3.7107,-3.7566,-3.7786,-3.8303,-3.8707,-3.8707,-3.8707,-3.8707,-3.8707,-3.8707,-3.8707,-3.8707,-3.8707,-3.8707,-3.8707,-3.8707,-3.8707,-3.8707,-3.8707,-3.8707,-3.8707,-3.8138,-3.7841,-3.7841,-3.7257,-3.6964,-3.6964,-3.6964,-3.6964,-3.6945,-3.6725,-3.6615,0.0,0.0,0.0,-2.4569,0.0,0.0,0.0,0.0,-2.4567,0.0,0.0,0.0,0.0,0.0,0.0,0.0,0.0,0.0,0.0,0.0,0.0,0.0,0.0,0.0,0.0,0.0,0.0,-2.1411,-2.1378,0.0,-2.2784,-2.3644,-2.4029,-2.3841,-2.4478,-2.4708,-2.4512,-2.4303,-2.419,-2.419,-2.419,-2.419,-2.419,-2.419,-2.419,-2.419,-2.419,-2.419,-2.419,-2.419,-2.4208,-2.4318,-2.5099,-2.5411,-2.5631,-2.7229,-2.8301,-2.8968,-2.8987,-2.9005,-2.9005,-2.9023,-3.0118,-3.1397,-3.1433,-3.254,-3.3807,-3.3807,-3.3807,-3.3807,-3.3807,-3.3807,-3.3807,-3.3807,-3.4399,-3.5004,-3.5004,-3.5665,-3.6523,-3.7309,-3.7474,-3.7749,-3.8524,-3.8689,-3.8707,-3.8707,-3.8707,-3.8707,-3.8707,-3.8707,-3.8707,-3.8707,-3.8707,-3.8707,-3.8707,-3.8707,-3.8707,-3.8707,-3.8707,-3.8707,-3.8707,-3.8689,-3.867,-3.867,-3.8652,-3.8615,-3.8615,-3.8615,-3.8615,-3.8597,-3.7823,-3.7456,0.0,0.0,-2.4393,-2.4321,0.0,0.0,0.0,0.0,0.0,0.0,0.0,0.0,0.0,0.0,0.0,0.0,0.0,0.0,0.0,0.0,0.0,0.0,0.0,0.0,0.0,0.0,0.0,-2.0673,-2.0659,-2.0985,0.0,-2.2588,-2.3206,-2.3594,-2.4249,-2.4578,-2.4503,-2.4303,-2.419,-2.419,-2.419,-2.419,-2.419,-2.419,-2.419,-2.419,-2.419,-2.419,-2.419,-2.419,-2.4511,-2.5026,-2.5283,-2.6054,-2.7045,-2.7596,-2.797,-2.8282,-2.8822,-2.9005,-2.9097,-2.961,-3.0522,-3.1507,-3.2027,-3.2944,-3.3807,-3.3807,-3.3807,-3.3807,-3.3807,-3.3807,-3.3807,-3.3807,-3.4853,-3.5862,-3.5862,-3.6927,-3.7973,-3.823,-3.8285,-3.8377,-3.8652,-3.8707,-3.8707,-3.8707,-3.8707,-3.8707,-3.8707,-3.8707,-3.8707,-3.8707,-3.8707,-3.8707,-3.8707,-3.8707,-3.8707,-3.8707,-3.8707,-3.8707,-3.8707,-3.8707,-3.8707,-3.8707,-3.8707,-3.8707,-3.8707,-3.8707,-3.8707,-3.8689,-3.8414,-3.8285,-2.419,-2.419,0.0,0.0,-2.4294,0.0,-2.4228,0.0,0.0,0.0,0.0,0.0,0.0,0.0,0.0,0.0,0.0,0.0,0.0,0.0,0.0,0.0,0.0,0.0,0.0,0.0,-2.021,-2.0285,-2.0308,-2.0606,0.0,0.0,-2.2879,-2.3483,-2.4219,-2.4545,-2.4401,-2.4257,-2.419,-2.419,-2.419,-2.419,-2.419,-2.419,-2.419,-2.419,-2.419,-2.419,-2.419,-2.419,-2.4677,-2.5429,-2.5723,-2.6641,-2.7798,-2.7798,-2.797,-2.8301,-2.8822,-2.9005,-2.9133,-2.9953,-3.0742,-3.1562,-3.2362,-3.3151,-3.3807,-3.3807,-3.3807,-3.3807,-3.3807,-3.3807,-3.3807,-3.3807,-3.5073,-3.6303,-3.6303,-3.7412,-3.8465,-3.8658,-3.8546,-3.8481,-3.8676,-3.8707,-3.8707,-3.8707,-3.8707,-3.8707,-3.8707,-3.8707,-3.8707,-3.8707,-3.8707,-3.8707,-3.8707,-3.8707,-3.8707,-3.8707,-3.8707,-3.8707,-3.8707,-3.8707,-3.8707,-3.8707,-3.8707,-3.8611,-3.8433,-3.8433,-3.8433,-3.8433,-3.8433,-3.853]},{"header":{"parameterUnit":"m.s-1","parameterCategory":1,"la1":30.6,"la2":29.2853,"lo1":-89.7004,"lo2":-87.6739,"dy":0.0162,"dx":0.0183,"nx":112,"ny":82,"refTime":"2023-02-24T18:00:00:Z","depth":0,"parameterNumber":3,"parameterNumberName":"V-component_of_WINDS"},"data":[0.0,0.0,0.0,0.0,0.0,0.0,0.0,0.0,0.0,0.0,0.0,0.0,0.0,0.0,0.0,0.0,0.0,0.0,0.0,0.0,0.0,0.0,0.0,0.0,0.0,0.0,0.0,0.0,0.0,0.0,0.0,0.0,0.0,0.0,0.0,0.0,0.0,0.0,0.0,0.0,0.0,0.0,0.0,0.0,0.0,0.0,0.0,0.0,0.0,0.0,0.0,0.0,0.0,0.0,0.0,0.0,0.0,0.0,0.0,0.0,0.0,0.0,0.0,0.0,0.0,0.0,0.0,0.0,0.0,0.0,0.0,0.0,0.0,0.0,0.0,0.0,0.0,0.0,0.0,0.0,0.0,0.0,0.0,0.0,0.0,0.0,0.0,0.0,0.0,0.0,0.0,-0.3084,-0.3375,-0.3576,-0.36,-0.3512,-0.3513,-0.3632,0.0,0.0,0.0,0.0,0.0,0.0,0.0,0.0,0.0,0.0,0.0,0.0,0.0,0.0,0.0,0.0,0.0,0.0,0.0,0.0,0.0,0.0,0.0,0.0,0.0,0.0,0.0,0.0,0.0,0.0,0.0,0.0,0.0,0.0,0.0,0.0,0.0,0.0,0.0,0.0,0.0,0.0,0.0,0.0,0.0,0.0,0.0,0.0,0.0,0.0,0.0,0.0,0.0,0.0,0.0,0.0,0.0,0.0,0.0,0.0,0.0,0.0,0.0,0.0,0.0,0.0,0.0,0.0,0.0,0.0,0.0,0.0,0.0,0.0,0.0,0.0,0.0,0.0,0.0,0.0,0.0,0.0,0.0,0.0,0.0,0.0,0.0,0.0,0.0,0.0,0.0,0.0,0.0,0.0,0.0,0.0,0.0,0.0,0.0,0.0,0.0,0.0,0.0,0.0,-0.2946,-0.3084,-0.3239,-0.3418,-0.359,-0.3126,-0.2837,-0.2876,0.0,0.0,0.0,0.0,0.0,0.0,0.0,0.0,0.0,0.0,0.0,0.0,0.0,0.0,0.0,0.0,0.0,0.0,0.0,0.0,0.0,0.0,0.0,0.0,0.0,0.0,0.0,0.0,0.0,0.0,0.0,0.0,0.0,0.0,0.0,0.0,0.0,0.0,0.0,0.0,0.0,0.0,0.0,0.0,0.0,0.0,0.0,0.0,0.0,0.0,0.0,0.0,0.0,0.0,0.0,0.0,0.0,0.0,0.0,0.0,0.0,0.0,0.0,0.0,0.0,0.0,0.0,0.0,0.0,0.0,0.0,0.0,0.0,0.0,0.0,0.0,0.0,0.0,0.0,0.0,0.0,0.0,0.0,0.0,0.0,0.0,0.0,0.0,0.0,0.0,0.0,0.0,0.0,0.0,0.0,0.0,0.0,0.0,0.0,0.0,0.0,0.0,0.0,-0.29,-0.2916,-0.298,-0.2923,-0.291,-0.2994,-0.251,-0.2216,-0.2216,-0.2959,0.0,0.0,0.0,0.0,0.0,0.0,0.0,0.0,0.0,0.0,0.0,0.0,0.0,0.0,0.0,0.0,0.0,0.0,0.0,0.0,0.0,0.0,0.0,0.0,0.0,0.0,0.0,0.0,0.0,0.0,0.0,0.0,0.0,0.0,0.0,0.0,0.0,0.0,0.0,0.0,0.0,0.0,0.0,0.0,0.0,0.0,0.0,0.0,0.0,0.0,0.0,0.0,0.0,0.0,0.0,0.0,0.0,0.0,0.0,0.0,0.0,0.0,0.0,0.0,0.0,0.0,0.0,0.0,0.0,0.0,0.0,0.0,0.0,0.0,0.0,0.0,0.0,0.0,0.0,0.0,0.0,0.0,0.0,0.0,0.0,0.0,0.0,0.0,0.0,0.0,0.0,0.0,0.0,0.0,0.0,0.0,0.0,0.0,0.0,0.0,0.0,0.0,-0.2805,-0.2869,-0.2907,-0.2614,-0.2452,-0.2498,-0.1936,-0.1588,-0.1588,-0.2245,0.0,0.0,0.0,0.0,0.0,0.0,0.0,0.0,0.0,0.0,0.0,0.0,0.0,0.0,0.0,0.0,0.0,0.0,0.0,0.0,0.0,0.0,0.0,0.0,0.0,0.0,0.0,0.0,0.0,0.0,0.0,0.0,0.0,0.0,0.0,0.0,0.0,0.0,0.0,0.0,0.0,0.0,0.0,0.0,0.0,0.0,0.0,0.0,0.0,0.0,0.0,0.0,0.0,0.0,0.0,0.0,0.0,0.0,0.0,0.0,0.0,0.0,0.0,0.0,0.0,0.0,0.0,0.0,0.0,0.0,0.0,0.0,0.0,0.0,0.0,0.0,0.0,0.0,0.0,0.0,0.0,0.0,0.0,0.0,0.0,0.0,0.0,0.0,0.0,0.0,0.0,0.0,0.0,0.0,0.0,0.0,0.0,0.0,0.0,0.0,0.0,0.0,-0.2778,-0.2768,-0.2893,-0.2492,-0.2302,-0.2493,-0.1551,-0.0964,-0.0964,-0.1532,0.0,0.0,0.0,0.0,0.0,0.0,0.0,0.0,0.0,0.0,0.0,0.0,0.0,0.0,0.0,0.0,0.0,0.0,0.0,0.0,0.0,0.0,0.0,0.0,0.0,0.0,0.0,0.0,0.0,0.0,0.0,0.0,0.0,0.0,0.0,0.0,0.0,0.0,0.0,0.0,0.0,0.0,0.0,0.0,0.0,0.0,0.0,0.0,0.0,0.0,0.0,0.0,0.0,0.0,0.0,0.0,0.0,0.0,0.0,0.0,0.0,0.0,0.0,0.0,0.0,0.0,0.0,0.0,0.0,0.0,0.0,0.0,0.0,0.0,0.0,0.0,0.0,0.0,0.0,0.0,0.0,0.0,0.0,0.0,0.0,0.0,0.0,0.0,0.0,0.0,0.0,0.0,0.0,0.0,0.0,0.0,0.0,0.0,0.0,0.0,0.0,0.0,-0.2774,-0.2603,0.0,-0.1916,-0.1566,-0.1388,-0.0731,-0.0342,-0.0342,0.0,0.0,0.0,0.0,0.0,0.0,0.0,0.0,0.0,0.0,0.0,0.0,0.0,0.0,0.0,0.0,0.0,0.0,0.0,0.0,0.0,0.0,0.0,0.0,0.0,0.0,0.0,0.0,0.0,0.0,0.0,0.0,0.0,0.0,0.0,0.0,0.0,0.0,0.0,0.0,0.0,0.0,0.0,0.0,0.0,0.0,0.0,0.0,0.0,0.0,0.0,0.0,0.0,0.0,0.0,0.0,0.0,0.0,0.0,0.0,0.0,0.0,0.0,0.0,0.0,0.0,0.0,0.0,0.0,0.0,0.0,0.0,0.0,0.0,0.0,0.0,0.0,0.0,0.0,0.0,0.0,0.0,0.0,0.0,0.0,0.0,0.0,0.0,0.0,0.0,0.0,0.0,0.0,0.0,0.0,0.0,0.0,0.0,0.0,0.0,0.0,0.0,-0.2976,-0.2846,-0.2564,0.0,-0.1575,-0.1139,-0.0739,-0.0278,0.0,0.0,0.0,0.0,0.0,0.0,0.0,0.0,0.0,0.0,0.0,0.0,0.0,0.0,0.0,0.0,0.0,0.0,0.0,0.0,0.0,0.0,0.0,0.0,0.0,0.0,0.0,0.0,0.0,0.0,0.0,0.0,0.0,0.0,0.0,0.0,0.0,0.0,0.0,0.0,0.0,0.0,0.0,0.0,0.0,0.0,0.0,0.0,0.0,0.0,0.0,0.0,0.0,0.0,0.0,0.0,0.0,0.0,0.0,0.0,0.0,0.0,0.0,0.0,0.0,0.0,0.0,0.0,0.0,0.0,0.0,0.0,0.0,0.0,0.0,0.0,0.0,0.0,0.0,0.0,0.0,0.0,0.0,0.0,0.0,0.0,0.0,0.0,0.0,0.0,0.0,0.0,0.0,0.0,0.0,0.0,0.0,0.0,0.0,0.0,0.0,0.0,0.0,0.0,-0.3121,-0.298,-0.2655,-0.2044,-0.1573,-0.1122,-0.0723,-0.0259,0.0,0.0,0.0,0.0,0.0,0.0,0.0,0.0,0.0,0.0,0.0,0.0,0.0,0.0,0.0,0.0,0.0,0.0,0.0,0.0,0.0,0.0,0.0,0.0,0.0,0.0,0.0,0.0,0.0,0.0,0.0,0.0,0.0,0.0,0.0,0.0,0.0,0.0,0.0,0.0,0.0,0.0,0.0,0.0,0.0,0.0,0.0,0.0,0.0,0.0,0.0,0.0,0.0,0.0,0.0,0.0,0.0,0.0,0.0,0.0,0.0,0.0,0.0,0.0,0.0,0.0,0.0,0.0,0.0,0.0,0.0,0.0,0.0,0.0,0.0,0.0,0.0,0.0,0.0,0.0,0.0,0.0,0.0,0.0,0.0,0.0,0.0,0.0,0.0,0.0,0.0,0.0,0.0,0.0,0.0,0.0,0.0,0.0,0.0,0.0,0.0,0.0,0.0,0.0,-0.2744,-0.2525,-0.2063,-0.1182,-0.0956,-0.0688,-0.0252,-0.0072,0.0,0.0,0.0,0.0,0.0,0.0,0.0,0.0,0.0,0.0,0.0,0.0,0.0,0.0,0.0,0.0,0.0,0.0,0.0,0.0,0.0,0.0,0.0,0.0,0.0,0.0,0.0,0.0,0.0,0.0,0.0,0.0,0.0,0.0,0.0,0.0,0.0,0.0,0.0,0.0,0.0,0.0,0.0,0.0,0.0,0.0,0.0,0.0,0.0,0.0,0.0,0.0,0.0,0.0,0.0,0.0,0.0,0.0,0.0,0.0,0.0,0.0,0.0,0.0,0.0,0.0,0.0,0.0,0.0,0.0,0.0,0.0,0.0,0.0,0.0,0.0,0.0,0.0,0.0,0.0,0.0,0.0,0.0,0.0,0.0,0.0,0.0,0.0,0.0,0.0,0.0,0.0,0.0,0.0,0.0,0.0,0.0,0.0,0.0,0.0,0.0,0.0,0.0,0.0,-0.2243,-0.2038,-0.1639,-0.0797,-0.0706,-0.0504,-0.0034,0.0,0.0,0.0,0.0,0.0,0.0,0.0,0.0,0.0,0.0,0.0,0.0,0.0,0.0,0.0,0.0,0.0,0.0,0.0,0.0,0.0,0.0,0.0,0.0,0.0,0.0,0.0,0.0,0.0,0.0,0.0,0.0,0.0,0.0,0.0,0.0,0.0,0.0,0.0,0.0,0.0,0.0,0.0,0.0,0.0,0.0,0.0,0.0,0.0,0.0,0.0,0.0,0.0,0.0,0.0,0.0,0.0,0.0,0.0,0.0,0.0,0.0,0.0,0.0,0.0,0.0,0.0,0.0,0.0,0.0,0.0,0.0,0.0,0.0,0.0,0.0,0.0,0.0,0.0,0.0,0.0,0.0,0.0,0.0,0.0,0.0,0.0,0.0,0.0,0.0,0.0,0.0,0.0,0.0,0.0,0.0,0.0,0.0,0.0,0.0,0.0,0.0,0.0,0.0,0.0,-0.1655,-0.1527,-0.1301,-0.0697,-0.0639,-0.0471,-0.0034,0.0,0.0,0.0,0.0,0.0,0.0,0.0,0.0,0.0,0.0,0.0,0.0,0.0,0.0,0.0,0.0,0.0,0.0,0.0,0.0,0.0,0.0,0.0,0.0,0.0,0.0,0.0,0.0,0.0,0.0,0.0,0.0,0.0,0.0,0.0,0.0,0.0,0.0,0.0,0.0,0.0,0.0,0.0,0.0,0.0,0.0,0.0,0.0,0.0,0.0,0.0,0.0,0.0,0.0,0.0,0.0,0.0,0.0,0.0,0.0,0.0,0.0,0.0,0.0498,0.0,0.0,0.0,0.0,0.0,0.0,0.0,0.0,0.0,0.0,0.0,0.0,0.0,0.0,0.0,0.0,0.0,0.0,0.0,0.0,0.0,0.0,0.0,0.0,0.0,0.0,0.0,0.0,0.0,0.0,0.0,0.0,0.0,0.0,0.0,0.0,0.0,0.0,0.0,0.0,0.0,-0.114,-0.1056,-0.081,-0.0221,-0.0151,-0.0101,-0.0017,0.0,0.0,0.0,0.0,0.0,0.0,0.0,0.0,0.0,0.0,0.0,0.0,0.0,0.0,0.0,0.0,0.0,0.0,0.0,0.0,0.0,0.0,0.0,0.0,0.0,0.0,0.0,0.0,0.0,0.0,0.0,0.0,0.0,0.0,0.0,0.0,0.0,0.0,0.0,0.0,0.0,0.0,0.0,0.0,0.0,0.0,0.0,0.0,0.0,0.0,0.0,0.0,0.0,0.0,0.0,0.0,0.0,0.0,0.0,0.0,0.0,0.0,0.0,0.0,0.0718,0.0,0.0,0.0,0.0,0.0,0.0,0.0,0.0,0.0,0.0,0.0,0.0,0.0,0.0,0.0,0.0,0.0,0.0,0.0,0.0,0.0,0.0,0.0,0.0,0.0,0.0,0.0,0.0,0.0,0.0,0.0,0.0,0.0,0.0,0.0,0.0,0.0,0.0,0.0,0.0,-0.0558,-0.0466,-0.0355,-0.0037,0.0,0.0,0.0,0.0,0.0,0.0,0.0,0.0,0.0,0.0,0.0,0.0,0.0,0.0,0.0,0.0,0.0,0.0,0.0,0.0,0.0,0.0,0.0,0.0,0.0,0.0,0.0,0.0,0.0,0.0,0.0,0.0,0.0,0.0,0.0,0.0,0.0,0.0,0.0,0.0,0.0,0.0,0.0,0.0,0.0,0.0,0.0,0.0,0.0,0.0,0.0,0.0,0.0,0.0,0.0,0.0,0.0,0.0,0.0,0.0,0.0229,0.0,0.0,0.0,0.0,0.0045,0.0747,0.0992,0.0906,0.0,0.0,0.0,0.0,0.0,0.0,0.0,0.0,0.0,0.0,0.0,0.0,0.0,0.0,0.0,0.0,0.0,0.0,0.0,0.0,0.0,0.0,0.0,0.0,0.0,0.1668,0.1944,0.0,0.0,0.0,0.0,0.0,0.0,0.0,0.0,0.0,0.0,0.0,0.0,-0.0086,0.0,0.0,0.0,0.0,0.0,0.0,0.0,0.0,0.0,0.0,0.0,0.0,0.0,0.0,0.0,0.0,0.0,0.0,0.0,0.0,0.0,0.0,0.0,0.0,0.0,0.0,0.0,0.0,0.0,0.0,0.0,0.0,0.0,0.0,0.0,0.0,0.0,0.0,0.0,0.0,0.0,0.0,0.0,-0.1123,-0.2083,0.0,0.0,0.0,0.0,0.0,0.0,0.0,0.0,0.0,0.0,0.0,0.0,0.0,0.0,0.114,0.0465,0.0118,0.0118,0.0049,0.0,0.0,0.0,0.0,0.0071,0.1203,0.0,0.0952,0.1457,0.0,0.0,0.0,0.0,0.0,0.0,0.0,0.0,0.0,0.0,0.0,0.0,0.0,0.0,0.0,0.0,0.0,0.0,0.0,0.0,0.0,0.0,0.2454,0.2472,0.2919,0.3203,0.0,0.1631,0.0883,0.0786,0.0,0.0,0.0,0.0,0.0,0.0,0.0,0.0,-0.0021,0.0,0.0,0.0,0.0,0.0,0.0,0.0,0.0,0.0,0.0,0.0,0.0,-0.0694,0.0,0.0,0.0,0.0,0.0,0.0,0.0,0.0,0.0,0.0,0.0,0.0,0.0,0.0,0.0,0.0,0.0,0.0,0.0,0.0,0.0,0.0,0.0,0.0,0.0,0.0,0.0,0.0,0.0,-0.1014,-0.169,-0.251,-0.2617,-0.2507,0.0,0.0,0.0,0.0,0.0,0.0,0.0,0.0,0.0,0.0884,0.0321,0.0288,0.0887,0.0293,0.0,0.0,0.0,0.0,0.0,0.0,0.0,0.0074,0.135,0.1767,0.1568,0.2082,0.1942,0.1335,0.0,0.0,0.0,0.0,0.0,0.0048,0.048,0.0624,0.0,0.0,0.0,0.0,0.0,0.0,0.0,0.0,0.0,0.0,0.0,0.0,0.0,0.2903,0.332,0.3651,0.3367,0.2588,0.1707,0.0,0.0693,0.0403,0.0052,0.0,0.0,0.0,0.0,0.0,0.0,0.0,0.0,0.0,0.0,0.0,0.0,0.0,0.0,0.0,0.0,0.0,0.0,-0.0317,-0.0673,0.0,0.0,0.0,0.0,0.0,0.0,0.0,0.0,0.0,0.0,0.0,0.0,0.0,0.0,0.0,0.0,0.0,0.0,0.0,0.0,0.0,0.0,0.0,0.0,0.0,0.0,0.0,0.0,-0.163,-0.2343,-0.2927,-0.3456,-0.3385,0.0,0.0,0.0,0.0,0.0,0.0,0.0,0.0,0.0213,0.0666,0.0231,0.0227,0.0655,0.023,0.0,0.0,0.0,0.0,0.0,0.0,0.0,0.0077,0.1428,0.2005,0.2032,0.2582,0.2423,0.1791,0.1195,0.0552,0.0,0.0,0.0,0.0076,0.063,0.0807,0.0929,0.1559,0.0,0.2068,0.1434,0.0,0.0,0.0,0.0,0.2164,0.2255,0.2733,0.3202,0.3298,0.359,0.3849,0.3849,0.3266,0.2468,0.0,0.1109,0.0769,0.0297,0.0,0.0,0.0,0.0,0.0,0.0,0.0,0.0,0.0,0.0,0.0,0.0,0.0,0.0,0.0,0.0,0.0,0.0,0.0,-0.026,-0.081,0.0,0.0,0.0,0.0,0.0,0.0,0.0,0.0,0.0,0.0,0.0,0.0,0.0,0.0,0.0,0.0,0.0,0.0,0.0,0.0,0.0,0.0,0.0,0.0,0.0,0.0,0.0,0.0,0.0,-0.325,-0.3195,0.0,0.0,0.0,0.0,-0.109,-0.1034,-0.0727,-0.0028,0.0,0.0027,0.0053,0.0026,0.0025,0.005,0.0026,0.0,0.0,0.0,0.0,0.0,0.0,0.0,0.008,0.143,0.2001,0.2062,0.2784,0.2659,0.1937,0.1338,0.0633,0.0,0.0,0.0,0.0,0.005,0.005,0.0177,0.0906,0.1636,0.2188,0.2155,0.2127,0.0,0.0,0.2571,0.3043,0.3055,0.3503,0.3953,0.3966,0.3963,0.3984,0.3984,0.3401,0.2835,0.0,0.1687,0.0881,0.0859,0.0,0.0,0.0,0.0,0.0,0.0,0.0,0.0,0.0,0.0,0.0,0.0,0.0,0.0,0.0,0.0,0.0,0.0,0.0,-0.0023,-0.0048,-0.074,0.0,0.0,0.0,0.0,0.0,0.0,0.0,0.0,0.0,0.0,0.0,0.0,0.0,0.0,0.0,0.0,0.0,0.0,0.0,0.0,0.0,0.0,0.0,0.0,0.0,0.0,0.0,0.0,-0.3691,-0.3793,0.0,0.0,-0.3057,-0.2454,-0.1202,-0.109,-0.0783,-0.0028,0.0,0.0,0.0,0.0,0.0,0.0,0.0,0.0,0.0,0.0,0.0,0.0,0.0,0.0,0.0083,0.1508,0.2125,0.2178,0.2931,0.2735,0.1981,0.1773,0.098,0.0,0.0,0.0,0.0081,0.0539,0.0701,0.0837,0.1563,0.1595,0.1391,0.1475,0.1768,0.2062,0.2062,0.2841,0.3689,0.3779,0.3959,0.4166,0.4284,0.4233,0.4142,0.4142,0.3859,0.3463,0.2933,0.1782,0.0766,0.0396,0.015,0.0,0.0,0.0,0.0,0.0,0.0,0.0,0.0,0.0,0.0,0.0,0.0,0.0,0.0,0.0,0.0,0.0,0.0,0.0,0.0,-0.0252,-0.0801,0.0,0.0,0.0,0.0,0.0,0.0,0.0,0.0,0.0,0.0,0.0,0.0,0.0,0.0,0.0,0.0,0.0,0.0,0.0,0.0,0.0,0.0,0.0,0.0,0.0,0.0,-0.3343,-0.3761,-0.4098,-0.4104,-0.3619,-0.3687,-0.3121,-0.1591,-0.148,-0.1034,-0.0056,0.0,0.0,0.0,0.0,0.0,0.0,0.0,0.0,0.0,0.0,0.0,0.0,0.0,0.0,0.0084,0.1563,0.2245,0.2382,0.3373,0.3299,0.2539,0.1936,0.0988,0.0,0.0,0.0,0.0056,0.056,0.0895,0.1174,0.1675,0.1598,0.1363,0.1448,0.1752,0.2111,0.2399,0.31,0.3851,0.4214,0.4294,0.4345,0.4467,0.4389,0.4294,0.4294,0.4026,0.362,0.3151,0.2097,0.1058,0.0404,0.0126,0.0,0.0,0.0,0.0,0.0,0.0,0.0,0.0,0.0,0.0,0.0,0.0,0.0,0.0,0.0,0.0,0.0,0.0,-0.0113,-0.0366,-0.0742,-0.1374,-0.2233,0.0,0.0,0.0,0.0,0.0,0.0,0.0,0.0,0.0,0.0,0.0,0.0,0.0,0.0,0.0,0.0,0.0,0.0,0.0,0.0,0.0,0.0,0.0,-0.1089,-0.2405,-0.3378,-0.3405,-0.4021,-0.4467,-0.4498,-0.4498,-0.3882,-0.2378,-0.2238,-0.1568,-0.0112,-0.0028,0.0,0.0,0.0,0.0,0.0,0.0,0.0,0.0,0.0,0.0,0.0,0.0,0.0,0.0084,0.1568,0.2309,0.2613,0.408,0.4335,0.3636,0.1838,0.0701,0.0028,0.0,0.0,0.0,0.0,0.0476,0.1062,0.1062,0.1535,0.212,0.212,0.2174,0.2371,0.3148,0.3345,0.3511,0.4294,0.4491,0.4491,0.4491,0.4491,0.4491,0.4491,0.3901,0.3345,0.34,0.2669,0.1817,0.1062,0.043,0.0025,0.0025,0.0025,0.0,0.0,0.0,0.0,0.0,0.0,0.0,0.0,0.0,0.0,0.0,0.0,0.0,0.0,0.0,-0.0344,-0.1096,-0.2196,-0.2888,-0.3091,0.0,0.0,0.0,0.0,0.0,0.0,0.0,0.0,0.0,0.0,0.0,0.0,0.0,0.0,0.0,0.0,0.0,0.0,0.0,0.0,0.0,0.0,-0.0497,-0.102,-0.1927,-0.2717,-0.3264,-0.3496,-0.39,-0.4569,-0.4655,-0.4291,-0.3438,-0.2785,-0.1978,-0.099,-0.0331,0.0,0.0,0.0,0.0,0.0,0.0,0.0,0.0,0.0,0.0,0.0,0.0,0.0,0.009,0.1709,0.2439,0.2579,0.361,0.3964,0.3681,0.2564,0.1649,0.0869,0.0234,0.0,0.0,0.0,0.014,0.0308,0.0308,0.0448,0.0616,0.0616,0.1341,0.2259,0.2482,0.3317,0.4208,0.4432,0.4491,0.4491,0.4491,0.4491,0.4491,0.4491,0.4322,0.4015,0.3511,0.3157,0.2711,0.1981,0.1249,0.0789,0.0789,0.0346,0.0,0.0,0.0,0.0,0.0,0.0,0.0,0.0,0.0,0.0,0.0,0.0,0.0,0.0,0.0,-0.0344,-0.1093,-0.1827,-0.2513,0.0,0.0,0.0,0.0,0.0,0.0,0.0,0.0,0.0,0.0,0.0,0.0,0.0,0.0,0.0,0.0,0.0,0.0,0.0,0.0,0.0,0.0,0.0,-0.0147,-0.0564,-0.1283,-0.1884,-0.233,-0.2987,-0.3646,-0.4186,-0.4575,-0.4521,-0.3836,-0.2981,-0.2165,-0.1348,-0.0471,0.0,0.0,0.0,0.0,0.0,0.0,0.0,0.0,0.0,0.0,0.0,0.0,0.0,0.0,0.1784,0.2537,0.266,0.3848,0.4384,0.0,0.0,0.0,0.0,0.0,0.0,0.0,0.0,0.0,0.0,0.0,0.0,0.0,0.0,0.0588,0.1396,0.2037,0.2843,0.368,0.4322,0.4491,0.4491,0.4491,0.4491,0.4491,0.4491,0.4491,0.4377,0.3932,0.0,0.0,0.3234,0.2259,0.1452,0.1146,0.0743,0.0351,0.0,0.0,0.0,0.0,0.0,0.0,0.0,0.0,0.0,0.0,0.0,0.0,0.0,-0.0307,0.0,0.0,0.0,-0.2759,0.0,0.0,0.0,0.0,-0.4338,-0.4382,0.0,0.0,0.0,0.0,0.0,0.0,0.0,0.0,0.0,0.0,0.0,0.0,0.0,0.0,0.0,0.0,0.0,0.0,0.0,-0.0574,-0.1001,-0.1084,-0.2501,-0.3525,-0.3627,-0.4439,-0.4701,-0.4074,-0.3103,-0.2221,-0.1532,0.0,0.0,0.0,0.0,0.0,0.0,0.0,0.0,0.0,0.0,0.0,0.0,0.0126,0.0189,0.0283,0.197,0.2752,0.2976,0.4516,0.5172,0.4998,0.244,0.1396,0.1203,0.0329,0.0,0.0,0.0,0.0,0.0,0.0,0.0,0.0,0.0,0.0056,0.042,0.1814,0.2258,0.2676,0.4125,0.4491,0.4491,0.4491,0.4491,0.4491,0.4491,0.4491,0.4491,0.4491,0.4491,0.4491,0.4491,0.3287,0.2091,0.134,0.1146,0.0,0.0108,0.0,0.0,0.0,0.0,0.0,0.0,0.0,0.0,0.0,0.0,0.0,0.0,-0.063,-0.1014,-0.1094,-0.2387,-0.3093,-0.3176,-0.3901,-0.4236,-0.4236,-0.4405,-0.4491,0.0,0.0,0.0,0.0,0.0,0.0,0.0,0.0,0.0,0.0,0.0,0.0,0.0,0.0,0.0,0.0,0.0,0.0,0.0,-0.014,-0.0448,-0.103,-0.2041,-0.3021,-0.3846,-0.4745,-0.5339,-0.5401,-0.3802,-0.2754,-0.2591,-0.0961,0.0,0.0,0.0,0.0,0.0,0.0,0.0,0.0,0.0,0.0,0.0035,0.0882,0.1306,0.1375,0.3132,0.3895,0.3976,0.496,0.4932,0.4146,0.2911,0.1952,0.1209,0.0309,0.0,0.0,0.0,0.0,0.0,0.0,0.0,0.0,0.0,0.042,0.0,0.1952,0.2676,0.3372,0.4267,0.4491,0.4491,0.4491,0.4491,0.4491,0.4491,0.4491,0.4491,0.4491,0.4491,0.4491,0.4491,0.3763,0.2899,0.212,0.148,0.0837,0.0083,0.0,0.0,0.0,0.0,0.0,0.0,0.0,0.0,0.0,0.0,0.0,0.0,-0.0138,-0.0499,-0.1079,-0.1392,-0.1813,-0.2425,-0.2565,-0.2649,-0.2676,-0.3929,-0.4491,0.0,0.0,0.0,0.0,0.0,0.0,0.0,0.0,0.0,0.0,0.0,0.0,0.0,0.0,0.0,0.0,0.0,0.0,0.0,0.0,-0.0148,-0.0519,-0.1337,-0.2099,-0.2613,-0.3941,-0.4655,-0.427,-0.3411,-0.2666,-0.2146,-0.0751,0.0,0.0,0.0,0.0,0.0,0.0,0.0,0.0,0.0,0.0,0.0036,0.1127,0.16,0.1708,0.3541,0.4307,0.4248,0.5084,0.5123,0.4619,0.3713,0.2502,0.1253,0.0824,0.0368,0.0,0.0,0.0,0.0,0.0,0.0,0.0,0.0,0.0566,0.1375,0.2145,0.2952,0.378,0.4513,0.4691,0.4691,0.4691,0.4691,0.467,0.4621,0.4604,0.4583,0.4505,0.4491,0.4491,0.4491,0.4184,0.368,0.2871,0.212,0.1396,0.0643,0.0224,0.0,0.0,0.0,0.0,0.0,0.0,0.0,0.0,0.0,0.0,0.0,0.0,-0.0168,-0.0532,-0.0923,-0.1284,-0.1647,-0.2009,-0.2202,-0.2232,-0.2982,-0.3345,0.0,0.0,0.0,0.0,0.0,0.0,0.0,0.0,-0.0196,-0.0029,0.0,0.0062,0.0318,0.0167,0.0071,0.0296,0.0152,0.0,0.0,0.0,0.0,0.0,-0.0777,-0.1321,-0.1364,-0.2935,-0.3627,-0.2835,-0.2689,-0.2274,-0.1416,-0.0508,0.0,0.0,0.0,0.0,0.0,0.0,0.0,0.0,0.0,0.0116,0.0335,0.1405,0.1991,0.2285,0.4026,0.4665,0.453,0.5209,0.5463,0.5373,0.459,0.3297,0.1829,0.1455,0.0844,0.024,0.006,0.0,0.0,0.0,0.0,0.0,0.0,0.0611,0.1482,0.2279,0.3135,0.3964,0.4705,0.4887,0.4887,0.4887,0.4887,0.4854,0.4762,0.4735,0.4697,0.4604,0.458,0.458,0.458,0.458,0.4275,0.3433,0.2676,0.1924,0.1202,0.0448,0.0,0.0,0.0,0.0,0.0,0.0,0.0,0.0,0.0,0.0,0.0,0.0,0.0,0.0,-0.0588,-0.0895,-0.0895,-0.148,-0.1786,-0.1786,-0.1786,-0.1924,0.0936,-0.0512,-0.2228,-0.2319,-0.2861,-0.3185,0.0,0.0,-0.0924,-0.0164,0.0,0.0313,0.1388,0.0709,0.0351,0.1436,0.0696,0.0,0.0,0.0,0.0,0.0,-0.0784,-0.1366,-0.1551,-0.2474,-0.303,-0.3056,-0.2251,-0.1689,-0.1569,-0.0566,0.0,0.0,0.0,0.0,0.0,0.0,0.0,0.0,0.0,0.0485,0.1444,0.2466,0.3447,0.4411,0.5416,0.5699,0.5458,0.5673,0.5677,0.5566,0.5459,0.4786,0.368,0.1934,0.1251,0.1049,0.0279,0.0,0.0,0.0,0.0,0.0,0.0,0.0611,0.147,0.2263,0.3127,0.3964,0.4705,0.4887,0.4887,0.4887,0.4887,0.4884,0.4867,0.4894,0.486,0.487,0.4867,0.4867,0.4867,0.4867,0.4506,0.3459,0.2676,0.1924,0.1202,0.0448,0.0,0.0,0.0,0.0,0.0,0.0,0.0,0.0,0.0,0.0,0.0,0.0,0.0,0.0,-0.0084,-0.0112,-0.0112,-0.0196,-0.0252,-0.0252,-0.0252,-0.095,0.0434,-0.0685,0.0,0.0,-0.3001,-0.3257,-0.275,-0.2026,-0.1193,-0.0211,0.0,0.0363,0.1585,0.0812,0.0399,0.0,0.0767,0.0,0.0,0.0,0.0,0.0,-0.0331,-0.0563,-0.0641,-0.1566,-0.1898,-0.133,-0.1468,-0.1326,-0.0691,-0.025,0.0,0.0,0.0,0.0,0.0,0.0,0.0,0.0,0.0,0.0543,0.1623,0.2645,0.3679,0.4758,0.5635,0.562,0.4999,0.5558,0.5766,0.5711,0.5711,0.5461,0.4891,0.2855,0.1762,0.119,0.0318,0.0,0.0,0.0,0.0,0.0,0.0,0.0997,0.2174,0.2521,0.3636,0.4788,0.5111,0.5176,0.5176,0.5176,0.5176,0.5152,0.5029,0.5012,0.4985,0.4904,0.4887,0.4887,0.4887,0.4887,0.4753,0.4301,0.3545,0.2851,0.2432,0.1369,0.0476,0.0056,0.0,0.0,0.0,0.0,0.0,0.0,0.0,0.0,0.0,0.0,0.0,0.0,0.0,0.0,0.0,0.0,0.0,0.0,0.0,-0.0336,0.0064,0.0,0.0,-0.2684,-0.34,-0.3773,-0.3006,-0.2404,-0.1614,-0.0262,0.0,0.038,0.1572,0.1074,0.0,0.1676,0.1052,0.04,0.0045,0.0,0.0,0.0,0.0,0.0,0.0,-0.0721,-0.0832,-0.004,-0.0729,-0.0823,-0.0041,0.0,0.0,0.0,0.0,0.0,0.0,0.0,0.0,0.0,0.0,0.0727,0.2107,0.3419,0.4274,0.4761,0.5676,0.5498,0.4587,0.5544,0.5905,0.5864,0.5864,0.5864,0.565,0.3864,0.2772,0.2031,0.0834,0.0428,0.0388,0.0096,0.0,0.0,0.0,0.1248,0.2697,0.2752,0.4066,0.5467,0.5508,0.5518,0.5518,0.5518,0.5518,0.5487,0.5338,0.5282,0.5251,0.5182,0.5162,0.5148,0.5111,0.5104,0.5074,0.4958,0.4424,0.3851,0.3439,0.2048,0.0895,0.0364,0.0112,0.0,0.0,0.0,0.0,0.0,0.0,0.0,0.0,0.0,0.0,0.0,0.0,0.0,0.0,0.0,0.0,0.0,0.0,0.0,0.0,0.0,-0.306,-0.3099,-0.4665,-0.564,-0.3567,-0.3062,-0.246,-0.0405,0.0,0.0365,0.1578,0.1772,0.1771,0.1813,0.175,0.1329,0.018,0.0,0.0,0.0,0.0,0.0,0.0,-0.0041,-0.0041,0.0,-0.0042,-0.0042,0.0,0.0,0.0,0.0,0.0,0.0,0.0,0.0,0.0,0.0,0.0,0.1128,0.3321,0.5448,0.579,0.4763,0.5822,0.5625,0.46,0.5797,0.6159,0.5986,0.5986,0.5986,0.5854,0.4818,0.4442,0.4116,0.2208,0.1557,0.137,0.0352,0.0,0.0,0.0,0.1273,0.2723,0.2866,0.4213,0.5613,0.5752,0.5786,0.5786,0.5786,0.5786,0.5786,0.5783,0.5779,0.5779,0.5776,0.5776,0.5732,0.5593,0.5569,0.5467,0.5137,0.5055,0.4696,0.3714,0.2136,0.109,0.1062,0.042,0.0,0.0,0.0,0.0,0.0,0.0,0.0,0.0,0.0,0.0,0.0,0.0,0.0,0.0,0.0,0.0,0.0,0.0,0.0,0.0,0.0,-0.3043,-0.2285,-0.3745,-0.4818,-0.2612,-0.2112,-0.1704,-0.0285,0.0,0.0359,0.1576,0.1143,0.0873,0.168,0.1143,0.0445,0.0045,0.0,0.0,0.0,-0.0727,0.0,0.0,0.0,0.0,0.0,0.0,0.0,0.0,0.0,0.0,0.0,0.0,0.0,0.0,0.0,0.0,0.0,0.1491,0.26,0.3371,0.5533,0.5516,0.3876,0.4839,0.4588,0.3665,0.4786,0.5604,0.6183,0.6183,0.6183,0.6176,0.5815,0.5683,0.5391,0.3306,0.258,0.243,0.1405,0.1065,0.1048,0.09,0.1792,0.2964,0.3583,0.4699,0.5742,0.5789,0.58,0.58,0.58,0.58,0.58,0.58,0.58,0.58,0.58,0.58,0.5786,0.5739,0.565,0.5484,0.5143,0.5019,0.4641,0.3712,0.3105,0.2345,0.1232,0.0867,0.0532,0.0028,0.0,0.0,0.0,0.0,0.0,0.0,0.0,0.0,0.0,0.0,0.0,0.0,0.0,0.0,0.0,0.0,0.0,0.0,-0.1333,-0.2586,-0.1847,-0.308,-0.3962,-0.2077,-0.1673,-0.1366,-0.0245,0.0,0.0235,0.1016,0.0872,0.0772,0.1096,0.0865,0.0486,0.0045,0.0,0.0,0.0,-0.1076,0.0,0.0,0.0,0.0,-0.0042,0.0,0.0,0.0,0.0,0.0,0.0,0.0,0.0,0.0,0.0,0.0,0.0,0.1898,0.2966,0.3373,0.5123,0.5178,0.4002,0.4896,0.4453,0.3202,0.4686,0.547,0.5747,0.6141,0.63,0.63,0.63,0.63,0.6037,0.4298,0.3655,0.3501,0.2474,0.2149,0.2117,0.1989,0.2654,0.3615,0.4222,0.5084,0.5895,0.5952,0.5966,0.5966,0.5966,0.5966,0.5966,0.5966,0.5966,0.5966,0.5966,0.5966,0.5949,0.5891,0.5722,0.5504,0.525,0.5135,0.4844,0.4166,0.3808,0.3198,0.2107,0.1463,0.0895,0.042,0.014,0.0,0.0,0.0,0.0,0.0,0.0,0.0,0.0,0.0,0.0,0.0,0.0,0.0,0.0,0.0,0.0,0.0,-0.0884,-0.1801,-0.1742,-0.2631,-0.3178,-0.1985,-0.1697,-0.1369,-0.0246,0.0,0.0,0.0,0.0,0.1341,0.0202,0.0943,0.1295,0.0179,0.0,-0.0046,0.0,0.0,0.0,0.0,0.0,0.0,-0.0087,0.0,0.0,0.0,0.0,0.0,0.0,0.0,0.0,0.0,0.0,0.0045,0.009,0.1299,0.2389,0.3336,0.4493,0.4974,0.4942,0.5858,0.5085,0.3357,0.5401,0.5679,0.489,0.5925,0.6323,0.6323,0.6323,0.6323,0.6161,0.5129,0.4771,0.4593,0.3541,0.3172,0.3194,0.3189,0.3815,0.4561,0.4712,0.5355,0.6074,0.6262,0.63,0.63,0.63,0.63,0.63,0.63,0.63,0.63,0.63,0.63,0.6248,0.602,0.5789,0.5549,0.5429,0.5399,0.5289,0.4965,0.4201,0.3645,0.3606,0.2166,0.1203,0.1118,0.0448,0.0028,0.0,0.0,0.0,0.0,0.0,0.0,0.0,0.0,0.0,0.0,0.0,0.0,0.0,0.0,0.0,0.0,-0.0882,-0.1607,-0.067,-0.137,-0.1938,-0.0739,-0.0443,-0.0377,-0.008,0.0,0.0,0.0,0.0,0.0,0.0039,0.0248,0.0,0.0044,0.0,0.0,0.0,0.0,-0.27,-0.159,-0.2475,0.0,0.0,0.0,0.0,0.0,0.0,0.0,0.0,0.0,0.0,0.0,0.0,0.0449,0.1344,0.2547,0.3295,0.3585,0.5502,0.5894,0.5054,0.5186,0.4886,0.4341,0.4981,0.5576,0.6066,0.6461,0.6586,0.6586,0.6586,0.6586,0.6529,0.6171,0.5989,0.5702,0.4655,0.4282,0.4288,0.4184,0.4363,0.4779,0.5489,0.5919,0.6248,0.6289,0.63,0.63,0.63,0.63,0.63,0.63,0.63,0.63,0.63,0.63,0.6248,0.602,0.5874,0.5698,0.5552,0.547,0.5324,0.5069,0.4853,0.4439,0.3682,0.3227,0.2464,0.1204,0.0923,0.0588,0.0028,0.0,0.0,0.0,0.0,0.0,0.0,0.0,0.0,0.0,0.0,0.0,0.0,0.0,0.0,0.0,-0.0506,-0.0861,-0.0148,-0.0531,-0.0841,-0.0139,0.0,0.0,0.0,0.0,0.0,0.0,0.0,0.0,0.0,0.0,0.0,0.0,-0.0496,-0.115,0.0,-0.3479,0.0,-0.2903,-0.3277,-0.2826,0.0,-0.0322,0.0,0.0,0.0,0.0,0.0,0.0,0.0,0.0,0.0539,0.1121,0.1835,0.3037,0.3881,0.4414,0.5591,0.6017,0.5894,0.0,0.5381,0.4916,0.5476,0.5749,0.5959,0.6499,0.6702,0.6702,0.6702,0.6702,0.6688,0.6603,0.6515,0.6264,0.5607,0.5384,0.5401,0.5322,0.536,0.5515,0.5977,0.6231,0.63,0.63,0.63,0.63,0.63,0.63,0.63,0.63,0.63,0.63,0.63,0.63,0.6248,0.602,0.5901,0.5752,0.561,0.5494,0.5361,0.5243,0.514,0.4876,0.4318,0.3873,0.3083,0.183,0.1324,0.0783,0.0056,0.0,0.0,0.0,0.0,0.0,0.0,0.0,0.0,0.0,0.0,0.0,0.0,0.0,0.0,0.0,0.0,0.0,0.0,0.0,0.0,0.0,0.0,0.0,0.0,0.0,0.0,0.0,0.0,0.0,0.0,0.0,-0.0042,-0.0215,-0.1254,-0.2117,-0.2446,-0.4332,-0.516,-0.4145,-0.376,-0.3118,-0.189,-0.0697,0.0,0.0,0.0,0.0,0.0,0.0,0.0091,0.0225,0.1299,0.1879,0.2057,0.326,0.4374,0.5401,0.5385,0.5941,0.6879,0.0,0.0,0.5396,0.6341,0.6181,0.5421,0.637,0.6759,0.6759,0.6759,0.6759,0.6756,0.6736,0.6644,0.6545,0.6381,0.6317,0.63,0.63,0.63,0.63,0.63,0.63,0.63,0.63,0.63,0.63,0.63,0.63,0.63,0.63,0.63,0.63,0.63,0.63,0.6255,0.6084,0.5932,0.5783,0.564,0.5525,0.5419,0.5395,0.5243,0.512,0.51,0.4318,0.349,0.2698,0.1801,0.0955,0.0196,0.0056,0.0,0.0,0.0,0.0,0.0,0.0,0.0,0.0,0.0,0.0,0.0,0.0,0.0,0.0,0.0,0.0,0.0,0.0,0.0,0.0,0.0,0.0,0.0,0.0,0.0,0.0,0.0,0.0,0.0,0.0,0.0,0.0,0.0,-0.2624,0.0,0.0,0.0,0.0,0.0,0.0,0.0,0.0,0.0,0.0,0.0,0.0,0.0,0.0,0.0495,0.1478,0.1701,0.228,0.3303,0.4508,0.5179,0.5447,0.6357,0.6816,0.6883,0.0,0.0,0.6456,0.6749,0.676,0.6596,0.693,0.7021,0.7021,0.7021,0.7021,0.7004,0.6886,0.6829,0.6803,0.6525,0.6395,0.63,0.63,0.63,0.63,0.63,0.63,0.63,0.63,0.63,0.63,0.63,0.63,0.63,0.63,0.63,0.63,0.63,0.63,0.6289,0.6265,0.6091,0.5939,0.5786,0.5644,0.5539,0.5412,0.5371,0.5274,0.5113,0.4958,0.4458,0.3502,0.2712,0.1868,0.098,0.0336,0.0,0.0,0.0,0.0,0.0,0.0,0.0,0.0,0.0,0.0,0.0,0.0,0.0,0.0,0.0,0.0,0.0,0.0,0.0,0.0,0.0,0.0,0.0,0.0,0.0,0.0,0.0,0.0,0.0,0.0,0.0,0.0,0.0,0.0,0.0,0.0,0.0,0.0,0.0,0.0,0.0,0.0,0.0,0.0,0.0,0.0,0.0,0.0599,0.1237,0.1791,0.304,0.3974,0.4552,0.5711,0.6293,0.6293,0.6874,0.7058,0.6994,0.6994,0.0,0.6936,0.6964,0.6994,0.7001,0.7068,0.7095,0.7095,0.7095,0.7095,0.7085,0.7018,0.6896,0.6787,0.6637,0.6532,0.6399,0.6323,0.63,0.63,0.63,0.63,0.63,0.63,0.63,0.63,0.63,0.63,0.63,0.63,0.63,0.63,0.63,0.63,0.63,0.63,0.6132,0.5969,0.5932,0.5793,0.5674,0.5599,0.5562,0.5453,0.5267,0.5147,0.4753,0.388,0.3344,0.2708,0.1892,0.1033,0.078,0.1291,0.0896,0.0904,0.1384,0.1333,0.1108,0.0689,0.0593,0.0364,0.0,0.0,0.0,0.0,0.0,0.0,0.0,0.0,0.0,0.0,0.0,0.0,0.0,0.0,0.0,0.0,0.0,0.0,0.0,0.0,0.0,0.0,0.0,0.0,0.0,0.0,0.0,0.0,0.0,0.0,0.0,0.0,0.0,0.0,0.0292,0.0434,0.0419,0.1598,0.2233,0.2207,0.4342,0.5403,0.5403,0.6561,0.7095,0.7095,0.7095,0.7095,0.7095,0.7095,0.0,0.0,0.7095,0.7095,0.7095,0.7095,0.7095,0.7095,0.7095,0.7095,0.7095,0.7095,0.6923,0.6746,0.6712,0.6576,0.6446,0.6334,0.63,0.6306,0.6337,0.6344,0.6344,0.6344,0.6344,0.6337,0.6306,0.63,0.63,0.63,0.6514,0.6691,0.6691,0.695,0.7118,0.7045,0.6885,0.6697,0.6369,0.6215,0.6089,0.5842,0.5705,0.5589,0.5501,0.5291,0.4906,0.4298,0.39,0.3428,0.2814,0.1926,0.1783,0.2511,0.193,0.1955,0.27,0.2603,0.2228,0.1556,0.1459,0.107,0.0476,0.0508,0.0424,0.0,0.0,0.0,0.0,0.0,0.0,0.0,0.0,0.0,0.0,0.0,0.0,0.0,0.0,0.0,0.0,0.0,0.0,0.0,0.0,0.0,0.0,0.0,0.0,0.0,0.0,0.0,0.0,0.0,0.0,0.0,0.1174,0.1794,0.1805,0.2985,0.3597,0.3628,0.4824,0.5403,0.5403,0.6561,0.7095,0.7095,0.7095,0.7095,0.7095,0.0,0.0,0.0,0.7095,0.7095,0.7095,0.7095,0.7095,0.7095,0.7095,0.7095,0.7095,0.7095,0.6994,0.6842,0.6746,0.6512,0.6317,0.6303,0.63,0.6327,0.6457,0.6494,0.6494,0.6494,0.6494,0.646,0.633,0.63,0.63,0.63,0.7219,0.8032,0.8032,0.9004,0.9752,0.9434,0.9384,0.8884,0.7583,0.7372,0.6972,0.5924,0.5789,0.5776,0.5762,0.5542,0.5284,0.5014,0.4371,0.3869,0.3679,0.2968,0.2602,0.2668,0.2614,0.2619,0.2682,0.2675,0.2571,0.2404,0.2368,0.2242,0.2011,0.2188,0.1811,0.0,0.0,0.0,0.0,0.0,0.0,0.0,0.0,0.0,0.0,0.0,0.0,0.0,0.0,-0.0168,0.0,0.0,0.0,0.0,0.0,0.0,0.0,0.0,0.0,0.0,0.0,0.0,0.0,0.0,0.0,0.0,0.1281,0.1988,0.2,0.3954,0.4953,0.4883,0.6107,0.6639,0.6428,0.7099,0.737,0.7282,0.7377,0.7417,0.7417,0.0,0.0,0.0,0.7278,0.7224,0.7095,0.7095,0.7095,0.7095,0.7095,0.7095,0.7085,0.7001,0.6873,0.6766,0.6614,0.6467,0.63,0.63,0.6361,0.6439,0.6497,0.6539,0.661,0.661,0.661,0.6597,0.6539,0.6525,0.6525,0.6525,0.7487,0.8335,0.8335,0.9328,1.0176,1.0002,0.9834,0.9486,0.8928,0.8192,0.753,0.7049,0.6363,0.5939,0.5939,0.5674,0.5474,0.5413,0.4942,0.4627,0.4575,0.3815,0.3612,0.4131,0.3716,0.375,0.4311,0.4204,0.3898,0.3404,0.3315,0.3026,0.2517,0.258,0.2416,0.0,0.0,0.0,0.0,0.0,0.0,0.0,0.0,0.0,0.0,0.0,0.0,0.0,0.0,-0.0202,0.0,0.0,0.0,0.0,0.0,0.0,0.0,0.0,0.0,0.0,0.0,0.0,0.0,0.0,0.0,0.0,0.1641,0.2597,0.2612,0.5057,0.6362,0.6237,0.7142,0.7489,0.7233,0.7495,0.7543,0.7444,0.755,0.76,0.76,0.0,0.0,0.0,0.7415,0.7282,0.7095,0.7095,0.7095,0.7095,0.7095,0.7095,0.7082,0.698,0.6865,0.6681,0.6573,0.6453,0.6306,0.6351,0.6433,0.6532,0.658,0.6685,0.6766,0.6766,0.6732,0.6702,0.6702,0.6702,0.6702,0.6702,0.7635,0.8569,0.8936,0.9972,1.0912,1.1172,1.1015,1.0716,1.0369,0.9238,0.8307,0.7949,0.6873,0.6146,0.6101,0.5871,0.5701,0.5657,0.5416,0.5235,0.5235,0.4634,0.4546,0.5167,0.4704,0.4722,0.5395,0.5254,0.4916,0.4327,0.4241,0.3904,0.335,0.3378,0.3159,0.0,0.0,0.0,0.0,0.0,0.0,0.0,0.0,0.0,0.0,0.0,0.0,0.0,0.0,0.0,0.0,0.0,0.0,0.0,0.0,0.0,0.0,0.0,0.0,0.0,0.0,0.0,0.0,0.0,0.0,0.0,0.2514,0.3964,0.3964,0.6453,0.7759,0.7759,0.7668,0.7597,0.7594,0.7597,0.76,0.7597,0.76,0.76,0.0,0.0,0.0,0.0,0.7415,0.7282,0.7095,0.7095,0.7095,0.7095,0.7095,0.7095,0.7095,0.7095,0.6903,0.6702,0.6698,0.6502,0.6327,0.6467,0.6511,0.6536,0.6841,0.6883,0.6883,0.6883,0.6814,0.6702,0.6702,0.6702,0.6702,0.6702,0.7769,0.9021,1.0146,1.1424,1.2542,1.3434,1.3552,1.3121,1.1858,1.067,0.9455,0.8352,0.7179,0.6453,0.6313,0.6118,0.5925,0.5813,0.5667,0.5586,0.5586,0.5477,0.5392,0.5392,0.5395,0.5395,0.5395,0.5392,0.5284,0.51,0.5096,0.5026,0.4891,0.5001,0.4229,0.0,0.0,0.0,0.0,0.0,0.0,0.0,0.0,0.0,0.0,0.0,0.0,0.0,0.0,-0.0202,-0.0806,0.0,0.0,0.0,0.0,0.0,0.0,0.0,0.0,0.0,0.0,0.0,0.0,0.0,0.0,0.0,0.3065,0.4016,0.4016,0.6539,0.7916,0.7814,0.7872,0.7797,0.76,0.7804,0.7845,0.7746,0.7851,0.0,0.0,0.0,0.0,0.0,0.7414,0.7282,0.7095,0.7095,0.7095,0.7095,0.7095,0.7095,0.7082,0.6987,0.6865,0.6681,0.658,0.6457,0.6327,0.647,0.6546,0.6692,0.6947,0.7031,0.7031,0.7031,0.6994,0.6957,0.6957,0.6957,0.6957,0.6957,0.7942,0.8931,0.9311,1.0946,1.2389,1.265,1.3217,1.3186,1.201,1.0732,0.9473,0.8329,0.7275,0.6569,0.646,0.6359,0.623,0.5942,0.582,0.5694,0.5596,0.5545,0.5504,0.5399,0.5395,0.5395,0.5395,0.5395,0.5371,0.532,0.532,0.53,0.5255,0.53,0.468,0.0,0.0,0.0,0.0,0.0,0.0,0.0,0.0,0.0,0.0,0.0,0.0,0.0,0.0,-0.0168,0.0,0.0,0.0,0.0,0.0,0.0,0.0,0.0,0.0,0.0,0.0,0.0,0.0,0.0,0.0,0.0,0.0,0.477,0.477,0.688,0.7944,0.7899,0.7941,0.7897,0.777,0.7901,0.7941,0.7899,0.7944,0.0,0.0,0.0,0.0,0.0,0.7456,0.7282,0.7095,0.7095,0.7095,0.7095,0.7095,0.7095,0.7075,0.6933,0.6827,0.6675,0.6562,0.6453,0.6409,0.6555,0.6664,0.6837,0.7031,0.7095,0.7095,0.7095,0.7095,0.7095,0.7095,0.7095,0.7228,0.7665,0.8364,0.9148,1.0009,1.1343,1.2456,1.2899,1.3413,1.3553,1.2821,1.1621,1.0367,0.9179,0.8101,0.7195,0.6572,0.6511,0.6416,0.6139,0.5976,0.585,0.5759,0.565,0.5549,0.5484,0.5426,0.5395,0.5395,0.5395,0.5395,0.5395,0.5395,0.5395,0.5395,0.5395,0.4891,0.0,0.0,0.0,0.0,0.0,0.0,0.0,0.0,0.0,0.0,0.0,0.0,0.0,0.0,0.0,0.0,0.0,0.0,0.0,0.0,0.0,0.0,0.0,0.0,0.0,0.0,0.0,0.0,0.0,0.0,0.0,0.0,0.6029,0.6129,0.7335,0.7988,0.7988,0.7988,0.7988,0.7988,0.7988,0.7988,0.7988,0.7978,0.0,0.0,0.0,0.0,0.0,0.7405,0.7272,0.7095,0.7095,0.7095,0.7095,0.7095,0.7088,0.7061,0.693,0.682,0.6658,0.6549,0.6497,0.6528,0.6651,0.6807,0.6916,0.7055,0.7095,0.7095,0.7095,0.7095,0.7095,0.7095,0.7183,0.7533,0.8671,0.8978,0.9666,1.1772,1.2242,1.2674,1.3779,1.4039,1.4088,1.3997,1.3027,1.181,1.0448,0.9381,0.815,0.668,0.6528,0.6467,0.6313,0.6129,0.6003,0.5993,0.5762,0.5599,0.5589,0.5477,0.5395,0.5395,0.5395,0.5395,0.5395,0.5395,0.5395,0.5395,0.5395,0.4921,0.0,0.0,0.0,0.0,0.0,0.0,0.0,0.0,0.0,0.0,0.0,0.0,0.0,0.0,0.0,0.0,0.0,0.0,0.0,0.0,0.0,0.0,0.0,0.0,0.0,0.0,0.0,0.0,0.0,0.0,0.0,0.0,0.6481,0.7487,0.7839,0.7988,0.7988,0.7988,0.7988,0.7988,0.7988,0.7988,0.7985,0.7919,0.0,0.0,0.0,0.0,0.7409,0.7244,0.7129,0.7095,0.7095,0.7095,0.7095,0.7095,0.7028,0.693,0.69,0.6753,0.6542,0.6399,0.6351,0.6399,0.662,0.6807,0.6916,0.7055,0.7095,0.7095,0.7095,0.7095,0.7095,0.7095,0.7797,0.854,0.8846,0.9579,1.0351,1.0907,1.1681,1.237,1.2681,1.347,1.3779,1.2857,1.2498,1.1573,0.9516,0.9039,0.8298,0.6802,0.6647,0.6542,0.6323,0.6265,0.6156,0.6,0.5854,0.5701,0.5596,0.5477,0.5395,0.5395,0.5395,0.5395,0.5395,0.5395,0.5395,0.5395,0.5395,0.5292,0.0,0.0,0.0,0.0,0.0,0.0,0.0,0.0,0.0,0.0,0.0,0.0,0.0,0.0,0.0,0.0,0.0,0.0,0.0,0.0,0.0,0.0,0.0,0.0,0.0,0.0,0.0,0.0,0.0,0.0,0.0,0.0,0.714,0.7887,0.7884,0.7921,0.7988,0.7988,0.7988,0.7988,0.7988,0.7955,0.7884,0.7848,0.0,0.0,0.0,0.0,0.7258,0.7129,0.7095,0.7095,0.7095,0.7095,0.7088,0.7024,0.695,0.6866,0.6766,0.6569,0.6402,0.6323,0.63,0.6354,0.661,0.6759,0.6868,0.7038,0.7095,0.7095,0.7095,0.7095,0.7095,0.7095,0.8017,0.9065,0.9579,1.0567,1.1558,1.2083,1.2687,1.3118,1.3118,1.3688,1.3864,1.3203,1.3118,1.2467,1.0697,1.0009,0.9124,0.7627,0.7026,0.658,0.6323,0.63,0.6196,0.6003,0.5884,0.5739,0.5596,0.5477,0.5395,0.5395,0.5395,0.5395,0.5395,0.5395,0.5395,0.5395,0.5395,0.5395,0.0,0.0,0.0,0.0,0.0,0.0,0.0,0.0,0.0,0.0,0.0,0.0,0.0,0.0,0.0,0.0,0.0,0.0,0.0,0.0,0.0,0.0,0.0,0.0,0.0,0.0,0.0,0.0,0.0,0.0,0.0,0.0,0.0,0.778,0.778,0.7841,0.7921,0.7924,0.7924,0.7924,0.7924,0.7853,0.7777,0.7753,0.7607,0.0,0.0,0.0,0.7095,0.7095,0.7095,0.7095,0.7095,0.7082,0.7048,0.693,0.6856,0.6817,0.6536,0.6402,0.63,0.63,0.6313,0.6381,0.6617,0.6715,0.6793,0.7021,0.7095,0.7095,0.7095,0.7095,0.7139,0.7316,0.8277,0.9492,1.0611,1.1772,1.2893,1.3906,1.4088,1.4088,1.4088,1.4088,1.4088,1.4088,1.4088,1.3646,1.2462,1.1466,1.0236,0.8606,0.7567,0.679,0.6354,0.6313,0.6196,0.6003,0.5884,0.5728,0.5562,0.5463,0.5395,0.5395,0.5395,0.5395,0.5395,0.5395,0.5395,0.5395,0.5395,0.5395,0.0,0.0532,0.109,0.0,0.0,0.0,0.0,0.0,0.0,0.0,0.0,0.0,0.0,0.0,0.0,0.0,0.0,0.0,0.0,0.0,0.0,0.0,0.0,0.0,0.0,0.0,0.0,0.0,0.0,0.0,0.0,0.0,0.0,0.7631,0.7631,0.7645,0.7665,0.7665,0.7665,0.7665,0.7665,0.7655,0.7628,0.7499,0.746,0.0,0.0,0.7119,0.7095,0.7095,0.7095,0.7095,0.7095,0.7021,0.6916,0.6896,0.6766,0.6559,0.6388,0.6317,0.63,0.63,0.6381,0.6511,0.6647,0.6793,0.6886,0.7051,0.7095,0.7095,0.7095,0.7095,0.736,0.8364,0.9492,1.0654,1.1809,1.2991,1.3864,1.4046,1.4088,1.4088,1.4088,1.4088,1.4088,1.4088,1.4088,1.3646,1.2462,1.2151,1.1192,0.8877,0.8334,0.7671,0.6574,0.6368,0.6196,0.6003,0.5884,0.5681,0.544,0.5405,0.5395,0.5395,0.5395,0.5395,0.5395,0.5395,0.5395,0.5395,0.5395,0.5395,0.0,0.0532,0.1202,0.0,0.0,0.0,0.0,0.0,0.0,0.0,0.0,0.0,0.0,0.0,0.0,0.0,0.0,0.0,0.0,0.0,0.0,0.0,0.0,0.0,0.0,0.0,0.0,0.0,0.0,0.0,0.0,0.0,0.0,0.0,0.7478,0.7434,0.7353,0.7353,0.7434,0.76,0.76,0.7556,0.7472,0.745,0.7326,0.7244,0.0,0.7095,0.7095,0.7095,0.7095,0.7088,0.7011,0.6943,0.6876,0.6834,0.6664,0.6515,0.6491,0.6498,0.6498,0.6498,0.6542,0.6624,0.6776,0.6829,0.6916,0.7055,0.7095,0.7095,0.7095,0.7095,0.7401,0.8627,0.9323,1.0183,1.1938,1.2723,1.3336,1.3955,1.4088,1.3913,1.3245,1.3118,1.3118,1.3118,1.3118,1.316,1.3252,1.2717,1.1629,0.9798,0.8983,0.7991,0.6612,0.6453,0.624,0.5925,0.5769,0.5589,0.5402,0.5395,0.5395,0.5395,0.5395,0.5395,0.5395,0.5395,0.5395,0.5395,0.5395,0.5395,0.0308,0.0671,0.1202,0.0,0.0,0.0,0.0,0.0,0.0,0.0,0.0,0.0,0.0,0.0,0.0,0.0,0.0,0.0,0.0,0.0,0.0,0.0,0.0,0.0,0.0,0.0,0.0,0.0,0.0,0.0,0.0,0.0,0.0,0.0,0.7319,0.7261,0.7098,0.7095,0.7213,0.7492,0.7492,0.7431,0.7319,0.7319,0.7234,0.7048,0.7048,0.7048,0.7048,0.7048,0.7048,0.7038,0.6927,0.6842,0.6807,0.6692,0.6573,0.6535,0.6647,0.6702,0.6702,0.6702,0.6725,0.6776,0.6852,0.691,0.6957,0.7065,0.7095,0.7095,0.7095,0.7095,0.7401,0.8627,0.9104,0.9836,1.1858,1.2504,1.2984,1.3913,1.3864,1.3379,1.2456,1.2072,1.198,1.2242,1.2285,1.2632,1.3555,1.2851,1.1736,1.0204,0.9221,0.8084,0.6615,0.6511,0.6295,0.5881,0.5688,0.5538,0.5453,0.5416,0.5395,0.5395,0.5395,0.5395,0.5395,0.5395,0.5395,0.5395,0.5395,0.5395,0.1202,0.1062,0.095,0.0308,0.1174,0.0,0.3237,0.2889,0.0,0.0,0.0,0.0,0.0,0.0,0.0,0.0,0.0,0.0,0.0,0.0,0.0,0.0,0.0,0.0,0.0,0.0,0.0,0.0,0.0,0.0,0.0,0.0,0.0,0.0,0.0,0.7105,0.7095,0.7095,0.7105,0.7129,0.7129,0.7122,0.7112,0.7112,0.7034,0.6903,0.6903,0.6903,0.6903,0.6903,0.6903,0.69,0.6889,0.6756,0.6545,0.6532,0.6521,0.6535,0.6647,0.6702,0.6702,0.6702,0.6797,0.6873,0.6883,0.6977,0.7085,0.7092,0.7095,0.7095,0.7095,0.7095,0.7401,0.8627,0.9705,1.0826,1.2029,1.316,1.3997,1.4088,1.3203,1.2413,1.2328,1.1423,1.108,1.2157,1.2285,1.2328,1.2413,1.237,1.1461,0.9257,0.8841,0.8084,0.6615,0.6511,0.6342,0.5996,0.5745,0.5586,0.5576,0.547,0.5395,0.5395,0.5395,0.5395,0.5395,0.5395,0.5395,0.5395,0.5395,0.5395,0.1174,0.0755,0.0448,0.0643,0.109,0.0,0.0,0.2749,0.323,0.0,0.0,0.0,0.0,0.0,0.0,0.0,0.0,0.0,0.0,0.0,0.0,0.0,0.0,0.0,0.0,0.0,0.0,0.0,0.0,0.0,0.0,0.0,0.0,0.0,0.0,0.6868,0.6868,0.6868,0.6868,0.6868,0.692,0.6916,0.6868,0.6868,0.6837,0.6787,0.6787,0.6787,0.6787,0.6787,0.6787,0.6776,0.6681,0.6573,0.6525,0.658,0.6675,0.6776,0.6879,0.693,0.693,0.693,0.697,0.7018,0.7018,0.7055,0.7095,0.7095,0.7095,0.7095,0.7095,0.7095,0.7401,0.8627,0.9235,1.0053,1.1895,1.212,1.2126,1.2857,1.2035,1.1042,1.0313,1.0438,1.0524,1.0226,1.0778,1.1252,1.1252,1.1252,1.0654,0.9061,0.8127,0.7302,0.6672,0.6566,0.6426,0.6186,0.5979,0.5783,0.5596,0.5569,0.5491,0.5395,0.5395,0.5395,0.5395,0.5395,0.5395,0.5395,0.5395,0.5395,0.1507,0.0923,0.042,0.0,0.0,0.0,0.1638,0.2808,0.3796,0.0,0.0,0.0,0.0,0.0,0.0,0.0,0.0,0.0,0.0,0.0,0.0,0.0,0.0,0.0,0.0,0.0,0.0,0.0,0.0,0.0,0.0,0.0,0.0,0.0,0.0,0.0,0.6702,0.6702,0.6675,0.663,0.6732,0.6756,0.6702,0.6702,0.6675,0.6627,0.6627,0.6627,0.6627,0.6627,0.6627,0.6614,0.6504,0.6446,0.647,0.6627,0.6766,0.6881,0.7031,0.7095,0.7095,0.7095,0.7095,0.7095,0.7095,0.7095,0.7095,0.7095,0.7095,0.7095,0.7095,0.7404,0.7885,0.8715,0.9449,1.0394,1.1938,1.1681,1.1381,1.2151,1.1085,0.9836,0.9021,0.9231,0.9357,0.8978,0.9579,1.0053,1.0053,1.0053,0.9618,0.8452,0.7487,0.6825,0.6712,0.6559,0.6453,0.631,0.6162,0.5989,0.5739,0.5684,0.5606,0.5535,0.5535,0.5535,0.5535,0.5487,0.5467,0.5467,0.5419,0.5395,0.2397,0.1647,0.0,0.0,0.0,0.0,0.0,0.3258,0.0,0.0,0.0,0.0,0.0,0.0,0.0,0.0,0.0,0.0,0.0,0.0,0.0,0.0,0.0,0.0,0.0,0.0,0.0,0.0,0.0,0.0,0.0,0.0,0.0,0.0,0.0,0.0,0.6698,0.6698,0.662,0.6511,0.6511,0.6549,0.6698,0.6698,0.6614,0.6511,0.6511,0.6511,0.6511,0.6511,0.6511,0.6497,0.6354,0.63,0.6337,0.659,0.6698,0.6742,0.6991,0.7092,0.7095,0.7095,0.7095,0.7095,0.7095,0.7095,0.7095,0.7095,0.7095,0.7095,0.7095,0.8017,0.8934,0.889,1.0654,1.2285,1.2279,1.2279,1.2285,1.2285,1.0438,0.889,0.889,0.7929,0.7533,0.8715,0.889,0.8934,0.889,0.889,0.8408,0.7228,0.697,0.6868,0.6712,0.66,0.6453,0.631,0.63,0.6193,0.6,0.5884,0.5803,0.58,0.58,0.58,0.58,0.5661,0.5593,0.5586,0.5467,0.5395,0.2258,0.0,0.0,0.0,0.0,0.0,0.0,0.0,0.0,0.0,0.0,0.0,0.0,0.0,0.0,0.0,0.0,0.0,0.0,0.0,0.0,0.0,0.0,0.0,0.0,0.0,0.0,0.0,0.0,0.0,0.0,0.0,0.0,0.0,0.0,0.0,0.6429,0.6429,0.6409,0.6364,0.6364,0.6385,0.6429,0.6429,0.6405,0.6364,0.6364,0.6364,0.6364,0.6364,0.6364,0.6358,0.6317,0.6361,0.646,0.6549,0.6607,0.6712,0.68,0.6902,0.695,0.695,0.7014,0.7095,0.7095,0.7095,0.7095,0.7095,0.7095,0.7316,0.8149,0.9231,0.9879,0.9104,1.0654,1.2066,1.1295,1.108,1.0869,1.0053,0.8667,0.7621,0.7621,0.8707,0.9139,0.7837,0.9744,1.0697,0.9104,0.8145,0.7841,0.8321,0.7487,0.7158,0.7851,0.7038,0.6453,0.631,0.63,0.6193,0.6,0.5949,0.5911,0.5803,0.58,0.58,0.58,0.5759,0.5688,0.5589,0.5542,0.5498,0.1752,0.0,0.0,0.0,0.0,0.0,0.0,0.0,0.0,0.0,0.0,0.0,0.0,0.0,0.0,0.0,0.0,0.0,0.0,0.0,0.0,0.0,0.0,0.0,0.0,0.0,0.0,0.0,0.0,0.0,0.0,0.0,0.0,0.0,0.0,0.0,0.6115,0.6139,0.6169,0.6169,0.6269,0.63,0.63,0.63,0.63,0.63,0.63,0.63,0.63,0.63,0.63,0.63,0.63,0.6354,0.6433,0.6491,0.6569,0.6617,0.6678,0.68,0.6886,0.6886,0.698,0.7095,0.7095,0.7095,0.7183,0.7665,0.7492,0.7489,0.9144,1.0096,1.0524,1.0313,1.1295,1.2114,1.1423,1.0567,0.9836,0.9623,0.8229,0.7401,0.8313,0.927,0.9444,0.8013,0.9614,1.0438,0.9065,0.8663,0.875,0.9492,0.8381,0.7823,0.8336,0.7237,0.6453,0.631,0.63,0.6255,0.6125,0.6122,0.6078,0.5986,0.5983,0.5983,0.5983,0.5922,0.5817,0.5674,0.5616,0.5542,0.0,0.0,0.0,0.0,0.0,0.0,0.0,0.0,0.0,0.0,0.0,0.0,0.0,0.0,0.0,0.0,0.0,0.0,0.0,0.0,0.0,0.0,0.0,0.0,0.0,0.0,0.0,0.0,0.0,0.0,0.0,0.0,0.0,0.0,0.0,0.0,0.58,0.5902,0.5973,0.0,0.6152,0.6255,0.6259,0.6286,0.63,0.63,0.63,0.63,0.63,0.63,0.63,0.63,0.63,0.63,0.6317,0.6446,0.6494,0.6511,0.6614,0.6759,0.6849,0.6862,0.696,0.7078,0.7092,0.7095,0.7356,0.854,0.8105,0.7793,1.0135,1.0735,1.1037,1.22,1.237,1.2285,1.2157,1.0524,0.9318,1.0265,0.879,0.8097,1.0221,0.9836,0.9192,0.9192,0.9021,0.8934,0.9065,0.9966,1.0654,1.074,0.9606,0.8778,0.8582,0.7394,0.6569,0.631,0.63,0.63,0.63,0.63,0.63,0.63,0.63,0.63,0.63,0.6118,0.5973,0.582,0.5691,0.5583,0.0,0.0668,0.0,0.0,0.0,0.0,0.0,0.0,0.0,0.0,0.0,0.0,0.0,0.0,0.0,0.0,0.0,0.0,0.0,0.0,0.0,0.0,0.0,0.0,0.0,0.0,0.0,0.0,0.0,0.0,0.0,0.0,0.0,0.0,0.0,0.58,0.58,0.5833,0.585,0.0,0.5884,0.5901,0.5908,0.619,0.63,0.63,0.63,0.63,0.63,0.63,0.63,0.63,0.63,0.63,0.6303,0.6334,0.6344,0.6351,0.6381,0.6487,0.659,0.6712,0.6851,0.6953,0.7061,0.7095,0.7356,0.854,0.8715,0.9056,1.1338,1.1938,1.2248,1.3428,1.2984,1.2066,1.1171,1.0567,1.0053,0.941,0.9575,1.0005,1.0524,1.1123,1.1558,1.1558,1.0053,0.9235,1.0139,1.0438,1.0956,1.1858,1.0784,0.9978,0.9811,0.8595,0.7391,0.6349,0.63,0.63,0.63,0.63,0.63,0.63,0.63,0.63,0.63,0.6265,0.6132,0.5942,0.5912,0.5854,0.0,0.0,0.0,0.0,0.0,0.0,0.0,0.0,0.0,0.0,0.0,0.0,0.0,0.0,0.0,0.0,0.0,0.0,0.0,0.0,0.0,0.0,0.0,0.0,0.0,0.0,0.0,0.0,0.0,0.0,0.0,0.0,0.0,0.0,0.5624,0.5624,0.5624,0.5664,0.5701,0.5701,0.5769,0.58,0.5806,0.5966,0.6078,0.6078,0.6078,0.6081,0.6149,0.6149,0.6231,0.63,0.63,0.63,0.63,0.63,0.63,0.63,0.63,0.6395,0.6525,0.6566,0.6695,0.6834,0.6909,0.6929,0.7282,0.9107,0.9219,0.9456,1.2395,1.2626,1.2433,1.3789,1.316,1.198,1.0869,1.0611,1.0438,0.9836,1.0183,1.0956,1.2083,1.1863,1.1681,1.2237,1.0821,1.0139,1.1252,1.1906,1.2516,1.3118,1.2041,1.1013,1.0268,0.9043,0.7712,0.6391,0.63,0.63,0.63,0.63,0.63,0.63,0.63,0.63,0.63,0.63,0.6179,0.5993,0.5993,0.5909,0.0,0.0,0.0,0.0,0.0,0.0,0.0,0.0,0.0,0.0,0.0,0.0,0.0,0.0,0.0,0.0,0.0,0.0,0.0,0.0,0.0,0.0,0.0,0.0,0.0,0.0,0.0,0.0,0.0,0.0,0.0,0.0,0.5317,0.5317,0.5317,0.5317,0.5317,0.541,0.5474,0.5474,0.5616,0.5684,0.5688,0.5711,0.5752,0.58,0.58,0.5874,0.5956,0.5983,0.6105,0.6262,0.6289,0.63,0.63,0.63,0.63,0.63,0.63,0.6378,0.648,0.6504,0.6559,0.6709,0.6895,0.6943,0.7462,0.9917,0.993,0.9932,1.3098,1.3026,1.2453,1.3719,1.326,1.2147,1.0859,1.0735,1.0826,1.0654,1.0913,1.1826,1.3779,1.2297,1.1209,1.2151,1.1515,1.1209,1.22,1.3336,1.4088,1.4088,1.3203,1.196,1.0319,0.9299,0.8006,0.6394,0.63,0.63,0.63,0.63,0.63,0.63,0.63,0.63,0.63,0.63,0.6196,0.6067,0.6067,0.6003,0.0,0.0,0.0,0.0,0.0,0.0,0.0,0.0,0.0,0.0,0.0,0.0,0.0,0.0,0.0,0.0,0.0,0.0,0.0,0.0,0.0,0.0,0.0,0.0,0.0,0.0,0.0,0.0,0.0,0.0,0.0,0.4979,0.4979,0.4979,0.4979,0.4979,0.4979,0.4999,0.4978,0.4978,0.512,0.5187,0.5191,0.5359,0.5593,0.58,0.58,0.5813,0.584,0.5939,0.6003,0.6074,0.6248,0.63,0.63,0.63,0.63,0.63,0.63,0.6313,0.6351,0.647,0.6525,0.6727,0.7714,0.8004,0.8455,1.0713,1.1249,1.1462,1.2941,1.3174,1.3133,1.3552,1.353,1.292,1.1,1.1381,1.1766,1.0778,1.226,1.3737,1.4039,1.2984,1.2109,1.2285,1.2157,1.2109,1.2285,1.3336,1.4088,1.4088,1.3955,1.2864,1.04,1.0034,0.8934,0.6472,0.63,0.63,0.63,0.63,0.63,0.63,0.63,0.63,0.63,0.63,0.6289,0.6269,0.6269,0.6255,0.0,0.0,0.0,0.0,0.0,0.0,0.0,0.0,0.0,0.0,0.0,0.0,0.0,0.0,0.0,0.0,0.0,0.0,0.0,0.0,0.0,0.0,0.0,0.0,0.0,0.0,0.0,0.0,0.0,0.0,0.4887,0.4887,0.4887,0.4887,0.4887,0.4887,0.4887,0.4887,0.4887,0.4887,0.4951,0.4982,0.4985,0.5165,0.5348,0.559,0.559,0.5603,0.5688,0.5755,0.5881,0.6,0.6105,0.6561,0.7061,0.649,0.6641,0.7061,0.649,0.63,0.631,0.6371,0.6395,0.6484,0.6983,0.7513,0.8317,1.0008,1.092,1.163,1.2883,1.3213,1.328,1.3533,1.36,1.3213,1.1849,1.2467,1.3167,1.265,1.3385,1.4088,1.4088,1.3118,1.2547,1.3203,1.2717,1.2547,1.3209,1.3779,1.4088,1.4088,1.3512,1.2355,1.045,0.9722,0.8535,0.664,0.6467,0.6419,0.6419,0.634,0.63,0.63,0.63,0.63,0.63,0.63,0.63,0.63,0.63,0.63,0.0,0.0,0.0,0.0,0.0,0.0,0.0,0.0,0.0,0.0,0.0,0.0,0.0,0.0,0.0,0.0,0.0,0.0,0.0,0.0,0.0,0.0,0.0,0.0,0.0,0.0,0.0,0.0,0.0,0.0,0.4802,0.4802,0.4802,0.4802,0.4802,0.4802,0.4802,0.4802,0.4802,0.4802,0.4843,0.486,0.4867,0.5015,0.5192,0.5337,0.5378,0.546,0.5535,0.5576,0.5722,0.5885,0.5922,0.6693,0.7597,0.6579,0.6908,0.7668,0.6644,0.63,0.63,0.63,0.649,0.6718,0.6984,0.7783,0.8832,1.0028,1.0897,1.1737,1.2811,1.3093,1.3186,1.3513,1.36,1.3467,1.288,1.3203,1.373,1.4039,1.4088,1.4088,1.4088,1.3336,1.3069,1.3955,1.3336,1.3075,1.3997,1.4088,1.3997,1.3688,1.3118,1.201,1.0124,0.9442,0.8443,0.6791,0.6593,0.6552,0.6515,0.6409,0.6337,0.63,0.63,0.63,0.63,0.63,0.63,0.63,0.63,0.63,0.0,0.0,0.0,0.0,0.0,0.0,0.0,0.0,0.0,0.0,0.0,0.0,0.0,0.0,0.0,0.0,0.0,0.0,0.0,0.0,0.0,0.0,0.0,0.0,0.0,0.0,0.0,0.0,0.0,0.0,0.4515,0.4515,0.4515,0.4515,0.4515,0.4515,0.4515,0.4515,0.4515,0.4515,0.4662,0.4704,0.4711,0.4968,0.5103,0.5117,0.533,0.5399,0.5419,0.5566,0.5599,0.5627,0.5762,0.6517,0.7397,0.6373,0.6768,0.7668,0.6644,0.63,0.63,0.63,0.6949,0.7897,0.8846,0.9852,1.0864,1.1868,1.2214,1.2317,1.273,1.2811,1.2958,1.3467,1.36,1.368,1.3937,1.316,1.2717,1.3864,1.4088,1.4088,1.4088,1.4039,1.4046,1.4088,1.4039,1.4046,1.4088,1.4088,1.3646,1.2504,1.3379,1.259,0.9085,0.9732,0.9266,0.6871,0.6695,0.6624,0.6518,0.6504,0.6436,0.6303,0.63,0.63,0.63,0.63,0.63,0.63,0.63,0.63,0.0,0.0,0.0,0.0,0.0,0.0,0.0,0.0,0.0,0.0,0.0,0.0,0.0,0.0,0.0,0.0,0.0,0.0,0.0,0.0,0.0,0.0,0.0,0.0,0.0,0.0,0.0,0.0,0.0,0.0,0.5109,0.4732,0.4491,0.4491,0.4491,0.4491,0.4491,0.4491,0.4491,0.4491,0.4545,0.4573,0.4583,0.4857,0.4965,0.4978,0.5286,0.5395,0.5432,0.6044,0.6034,0.5662,0.626,0.6904,0.7458,0.7093,0.773,0.8618,0.7629,0.7668,0.8122,0.748,0.7936,0.8846,0.9183,1.0122,1.1124,1.1473,1.2228,1.2913,1.3019,1.318,1.3427,1.3828,1.3928,1.3955,1.4062,1.3779,1.3503,1.3751,1.376,1.376,1.376,1.376,1.3868,1.4055,1.4088,1.4088,1.4088,1.4088,1.3646,1.2413,1.2674,1.1829,0.9052,0.9216,0.9056,0.8185,0.8032,0.7885,0.7748,0.7637,0.719,0.6303,0.63,0.63,0.63,0.63,0.63,0.63,0.63,0.63,0.0,0.0,0.0,0.0,0.0,0.0,0.0,0.0,0.0,0.0,0.0,0.0,0.0,0.0,0.0,0.0,0.0,0.0,0.0,0.0,0.0,0.0,0.0,0.0,0.0,0.0,0.0,0.0,0.0,0.0,0.5487,0.5085,0.4732,0.4519,0.4491,0.4491,0.4491,0.4491,0.4625,0.4842,0.4842,0.4842,0.4853,0.5126,0.5127,0.4935,0.5549,0.5848,0.5881,0.6461,0.6402,0.6011,0.6608,0.7069,0.7389,0.7413,0.818,0.9158,0.8514,0.8732,0.9183,0.8504,0.8993,0.982,0.982,1.0716,1.1735,1.1735,1.2453,1.3233,1.3327,1.3533,1.38,1.4041,1.4088,1.4088,1.4088,1.3779,1.3519,1.3571,1.3378,1.3246,1.3531,1.3686,1.3854,1.4055,1.4088,1.4088,1.4088,1.4088,1.3646,1.2413,1.2674,1.1949,0.9666,0.9836,0.9879,0.9492,0.9366,0.9241,0.9073,0.8882,0.8176,0.6954,0.6859,0.6644,0.63,0.63,0.63,0.63,0.63,0.63,0.0,0.0,0.0,0.0,0.0,0.0,0.0,0.0,0.0,0.0,0.0,0.0,0.0,0.0,0.0,0.0,0.0,0.0,0.0,0.0,0.0,0.0,0.0,0.0,0.0,0.0,0.0,0.0,0.0,0.5515,0.5538,0.5487,0.5164,0.4515,0.4491,0.4491,0.4491,0.4515,0.4866,0.5515,0.5515,0.5515,0.55,0.5873,0.5631,0.4996,0.6205,0.6748,0.6785,0.6785,0.6752,0.6752,0.6785,0.6905,0.7138,0.7316,0.8112,0.9176,0.9285,0.9367,0.9372,0.9372,1.0002,1.082,1.082,1.1778,1.2784,1.2784,1.3012,1.3287,1.354,1.3868,1.4088,1.4088,1.4088,1.4088,1.4088,1.3154,1.2542,1.3428,1.2912,1.2614,1.3421,1.3874,1.4075,1.4088,1.4088,1.4088,1.4088,1.4088,1.3646,1.2413,1.3379,1.3167,1.0783,1.1638,1.1809,1.074,1.0654,1.0595,1.0449,1.0141,0.9401,0.8216,0.7953,0.7326,0.6338,0.6338,0.6338,0.6338,0.6338,0.6338,0.4491,0.0,0.0,0.0,0.0,0.0,0.0,0.0,0.0,0.0,0.0,0.0,0.0,0.0,0.0,0.0,0.0,0.0,0.0,0.0,0.0,0.0,0.0,0.0,0.0,0.0,0.0,0.0,0.5792,0.5733,0.6258,0.5332,0.4677,0.4519,0.4491,0.4491,0.4491,0.4976,0.5328,0.5515,0.6036,0.6009,0.5519,0.6303,0.6359,0.588,0.6853,0.7778,0.8581,0.8581,0.8221,0.7697,0.8318,0.8301,0.8006,0.874,0.9469,1.0058,1.009,1.071,1.136,1.0602,1.1056,1.1885,1.1885,1.2318,1.2784,1.2784,1.312,1.3547,1.3888,1.4021,1.4088,1.4088,1.4088,1.4088,1.4088,1.3004,1.2271,1.3139,1.3106,1.3045,1.326,1.3533,1.3841,1.4055,1.4088,1.4088,1.4088,1.4088,1.3646,1.2413,1.3379,1.3167,1.0783,1.1638,1.2157,1.1852,1.1809,1.1787,1.1632,1.134,1.0253,0.8255,0.7953,0.7668,0.7403,0.7403,0.7403,0.7403,0.7403,0.6984,0.0,0.0,0.0,0.0,0.0,0.0,0.0,0.4085,0.0,0.0,0.0,0.0,0.0,0.0,0.0,0.0,0.0,0.0,0.0,0.0,0.0,0.0,0.0,0.0,0.0,0.0,0.0,0.0,0.6046,0.6083,0.6583,0.5254,0.4491,0.4491,0.4759,0.4921,0.4921,0.5601,0.6113,0.6411,0.6853,0.6826,0.6448,0.705,0.7003,0.6558,0.7578,0.8448,0.9141,0.9641,0.9332,0.8549,0.8716,0.8505,0.8202,0.8902,0.9559,1.0178,1.0637,1.14,1.2045,1.1449,1.1715,1.2305,1.2305,1.2549,1.2784,1.2784,1.318,1.364,1.3854,1.3995,1.4055,1.3928,1.3901,1.3868,1.3748,1.2975,1.2471,1.3094,1.2894,1.2772,1.3147,1.3554,1.3888,1.4062,1.4088,1.4088,1.4088,1.4088,1.3822,1.3118,1.3688,1.3561,1.2169,1.2687,1.3069,1.3069,1.3069,1.3007,1.2935,1.256,1.1511,0.9687,0.9255,0.9059,0.9064,0.8199,0.8008,0.8428,0.8428,0.8122,0.0,0.0,0.0,0.0,0.0,0.0,0.4274,0.4207,0.4146,0.0,0.0,0.0,0.0,0.0,0.0,0.0,0.0,0.0,0.0,0.0,0.0,0.0,0.0,0.0,0.0,0.0,0.4557,0.5907,0.6233,0.6452,0.66,0.5254,0.4491,0.4491,0.5164,0.5515,0.5515,0.6308,0.7047,0.7696,0.7777,0.7777,0.7702,0.7919,0.7639,0.71,0.8307,0.8895,0.9034,1.0107,1.011,0.9364,0.8581,0.8285,0.8312,0.8545,0.9148,0.9986,1.1012,1.157,1.1859,1.1859,1.2017,1.2258,1.2258,1.2496,1.2744,1.277,1.3133,1.3507,1.3547,1.3794,1.3921,1.362,1.3553,1.3487,1.3267,1.3005,1.2864,1.3106,1.2556,1.2296,1.3088,1.3694,1.4088,1.4088,1.4088,1.4088,1.4088,1.4088,1.4088,1.4088,1.4088,1.4088,1.4088,1.4088,1.4088,1.4088,1.4088,1.4088,1.4088,1.352,1.2724,1.1702,1.1097,1.0783,1.0783,0.9021,0.8575,0.9485,0.9485,0.941,0.0,0.0,0.0,0.0,0.0,0.0,0.4453,0.4304,0.4177,0.0,0.0,0.0,0.0,0.0,0.0,0.0,0.0,0.0,0.0,0.0,0.0,0.0,0.0,0.0,0.0,0.0,0.4557,0.5907,0.6147,0.6343,0.6573,0.5254,0.4491,0.4491,0.5164,0.5515,0.5515,0.6821,0.7563,0.7696,0.8295,0.8262,0.7723,0.8345,0.8381,0.7998,0.8783,0.9405,0.9871,1.0089,1.0248,1.0333,1.0168,1.0104,1.011,1.0162,1.0393,1.0764,1.0989,1.1269,1.151,1.151,1.171,1.1986,1.1986,1.2158,1.2438,1.2717,1.2871,1.3018,1.3227,1.334,1.3367,1.3307,1.3293,1.328,1.322,1.3005,1.2804,1.2864,1.2923,1.2988,1.318,1.3694,1.4088,1.4088,1.4088,1.4088,1.4088,1.4088,1.4088,1.4088,1.4088,1.4088,1.4088,1.4088,1.4088,1.4088,1.4088,1.4088,1.4088,1.352,1.2724,1.1702,1.1097,1.0783,1.0783,1.0409,1.0335,1.0527,1.0527,1.0078,0.0,0.0,0.0,0.4491,0.0,0.0,0.0,0.4433,0.4334,0.0,0.0,0.0,0.0,0.0,0.0,0.0,0.0,0.0,0.0,0.0,0.0,0.0,0.0,0.0,0.0,0.0,0.4451,0.5979,0.5754,0.5848,0.6568,0.5254,0.4491,0.4491,0.5496,0.6036,0.6036,0.7503,0.8235,0.8262,0.8619,0.8613,0.8268,0.8619,0.8698,0.8536,0.9007,0.9377,0.9657,0.984,1.0074,1.0323,1.0053,1.0206,1.0561,1.011,1.0296,1.0807,1.0807,1.0969,1.1209,1.1209,1.151,1.1906,1.1906,1.2107,1.2331,1.2485,1.267,1.2817,1.2978,1.3093,1.3173,1.3019,1.3018,1.2939,1.2792,1.2632,1.2563,1.2563,1.2899,1.3213,1.3213,1.3694,1.4088,1.4088,1.4088,1.4088,1.4088,1.4088,1.4088,1.4088,1.4088,1.4088,1.4088,1.4088,1.4088,1.4088,1.4088,1.4088,1.4088,1.3661,1.3041,1.2264,1.1797,1.1545,1.1545,1.1545,1.1545,1.1545,1.1545,1.1279,0.0,0.0,0.0,0.0,0.0,0.4736,0.0,0.0,0.0,0.0,0.0,0.0,0.0,0.0,0.0,0.0,0.0,0.0,0.0,0.0,0.0,0.0,0.0,0.0,0.0,0.0,0.4509,0.5881,0.5409,0.5466,0.6347,0.5199,0.4491,0.4491,0.5878,0.6588,0.6588,0.8076,0.8804,0.8804,0.8804,0.8804,0.8804,0.8804,0.8804,0.8824,0.9031,0.9164,0.9231,0.9499,0.9766,0.997,0.96,0.9933,1.0498,0.9817,0.9983,1.0593,1.0593,1.0747,1.0909,1.0909,1.1309,1.1832,1.1886,1.2107,1.2305,1.2305,1.2478,1.2697,1.2697,1.2846,1.2973,1.2757,1.2697,1.263,1.2351,1.2305,1.2318,1.2378,1.2832,1.3213,1.3213,1.3694,1.4088,1.4088,1.4088,1.4088,1.4088,1.4088,1.4088,1.4088,1.4088,1.4088,1.4088,1.4088,1.4088,1.4088,1.4088,1.4088,1.4088,1.376,1.3387,1.2884,1.2599,1.2478,1.2478,1.2478,1.2418,1.2305,1.2365,1.2385,0.0,0.0,0.0,0.0,0.5378,0.0,0.0,0.0,0.0,0.0,0.0,0.0,0.0,0.0,0.0,0.0,0.0,0.0,0.0,0.0,0.0,0.0,0.0,0.0,0.0,0.0,0.0,0.5207,0.5527,0.568,0.5629,0.4921,0.4491,0.4491,0.5878,0.6588,0.6588,0.8076,0.8804,0.8804,0.8804,0.8804,0.8804,0.8804,0.8804,0.8811,0.8844,0.8978,0.9217,0.9251,0.9437,0.976,0.9933,1.0265,1.0593,1.0491,1.0498,1.0593,1.0593,1.0613,1.064,1.064,1.1002,1.1523,1.1826,1.2107,1.2305,1.2305,1.2325,1.2351,1.2351,1.2378,1.2398,1.2358,1.2351,1.2345,1.2311,1.2305,1.2378,1.2683,1.2973,1.3213,1.3213,1.3694,1.4088,1.4088,1.4088,1.4088,1.4088,1.4088,1.4088,1.4088,1.4088,1.4088,1.4088,1.4088,1.4088,1.4088,1.4088,1.4088,1.4088,1.376,1.3453,1.3166,1.3126,1.3106,1.3106,1.3106,1.2826,1.2311,1.261,1.273,0.0,0.0,0.0,0.0,0.0,0.0,0.0,0.0,0.5869,0.0,0.0,0.0,0.0,0.0,0.0,0.0,0.0,0.0,0.0,0.0,0.0,0.0,0.0,0.0,0.0,0.0,0.0,0.0,0.0,0.4849,0.5369,0.4706,0.4375,0.4487,0.5878,0.6588,0.6588,0.8076,0.8804,0.8804,0.8804,0.8804,0.8804,0.8804,0.8804,0.8804,0.8804,0.8878,0.8958,0.8958,0.9138,0.9411,0.9531,0.9793,1.0104,1.0241,1.0301,1.0327,1.0533,1.0593,1.062,1.0787,1.1089,1.1449,1.1819,1.2107,1.2305,1.2305,1.2305,1.2305,1.2305,1.2305,1.2305,1.2305,1.2438,1.2596,1.2596,1.2699,1.2866,1.2993,1.326,1.342,1.342,1.3808,1.4088,1.4088,1.4088,1.4088,1.4088,1.4088,1.4088,1.4088,1.4088,1.4088,1.4088,1.4088,1.4088,1.4088,1.4088,1.4088,1.4088,1.376,1.3547,1.342,1.33,1.3213,1.3213,1.3213,1.308,1.2832,1.2959,1.3013,0.6588,0.0,0.0,0.0,0.0,0.0,0.0,0.0,0.0,0.0,0.0,0.0,0.0,0.0,0.0,0.0,0.0,0.0,0.0,0.0,0.0,0.0,0.0,0.0,0.0,0.0,0.0,0.0,0.4252,0.0,0.4906,0.448,0.4347,0.4721,0.5932,0.6696,0.6912,0.8156,0.8804,0.8804,0.8804,0.8804,0.8804,0.8804,0.8804,0.8804,0.8804,0.8804,0.8804,0.8804,0.8904,0.9098,0.9178,0.9344,0.9606,0.998,1.0167,1.0267,1.0519,1.0593,1.0626,1.0841,1.1122,1.147,1.1683,1.2011,1.2305,1.2305,1.2305,1.2305,1.2305,1.2305,1.2305,1.2305,1.2563,1.2784,1.2784,1.3025,1.3233,1.3313,1.346,1.3626,1.3706,1.3941,1.4088,1.4088,1.4088,1.4088,1.4088,1.4088,1.4088,1.4088,1.4088,1.4088,1.4088,1.4088,1.4088,1.4088,1.4088,1.4088,1.4088,1.3881,1.3726,1.3726,1.3561,1.3454,1.3454,1.3454,1.3454,1.3447,1.3367,1.3327,0.0,0.0,0.0,0.7482,0.0,0.0,0.0,0.0,0.7423,0.0,0.0,0.0,0.0,0.0,0.0,0.0,0.0,0.0,0.0,0.0,0.0,0.0,0.0,0.0,0.0,0.0,0.0,0.3872,0.4349,0.0,0.4069,0.4142,0.4535,0.5258,0.6131,0.6939,0.767,0.8427,0.8804,0.8804,0.8804,0.8804,0.8804,0.8804,0.8804,0.8804,0.8804,0.8804,0.8804,0.8804,0.8811,0.8851,0.9104,0.9217,0.9297,0.9877,1.0301,1.0579,1.0586,1.0593,1.0593,1.06,1.0962,1.1389,1.1402,1.1844,1.2305,1.2305,1.2305,1.2305,1.2305,1.2305,1.2305,1.2305,1.2563,1.2784,1.2784,1.3025,1.3293,1.3533,1.3593,1.3693,1.4021,1.4082,1.4088,1.4088,1.4088,1.4088,1.4088,1.4088,1.4088,1.4088,1.4088,1.4088,1.4088,1.4088,1.4088,1.4088,1.4088,1.4088,1.4088,1.4082,1.4075,1.4075,1.4068,1.4055,1.4055,1.4055,1.4055,1.4048,1.372,1.3586,0.0,0.0,0.8103,0.8374,0.0,0.0,0.0,0.0,0.0,0.0,0.0,0.0,0.0,0.0,0.0,0.0,0.0,0.0,0.0,0.0,0.0,0.0,0.0,0.0,0.0,0.0,0.0,0.3668,0.3852,0.4127,0.0,0.4673,0.5145,0.5883,0.6839,0.7456,0.7696,0.8427,0.8804,0.8804,0.8804,0.8804,0.8804,0.8804,0.8804,0.8804,0.8804,0.8804,0.8804,0.8804,0.8891,0.9078,0.9171,0.9451,0.981,1.001,1.018,1.0294,1.0526,1.0593,1.0626,1.0814,1.1109,1.1429,1.1657,1.1991,1.2305,1.2305,1.2305,1.2305,1.2305,1.2305,1.2305,1.2305,1.2685,1.3053,1.3053,1.344,1.3821,1.3915,1.3935,1.3968,1.4068,1.4088,1.4088,1.4088,1.4088,1.4088,1.4088,1.4088,1.4088,1.4088,1.4088,1.4088,1.4088,1.4088,1.4088,1.4088,1.4088,1.4088,1.4088,1.4088,1.4088,1.4088,1.4088,1.4088,1.4088,1.4088,1.4088,1.4082,1.3981,1.3935,0.8804,0.8804,0.0,0.0,0.8454,0.0,0.8699,0.0,0.0,0.0,0.0,0.0,0.0,0.0,0.0,0.0,0.0,0.0,0.0,0.0,0.0,0.0,0.0,0.0,0.0,0.0,0.3814,0.3622,0.3604,0.3819,0.0,0.0,0.5177,0.6237,0.6945,0.7563,0.8076,0.856,0.8804,0.8804,0.8804,0.8804,0.8804,0.8804,0.8804,0.8804,0.8804,0.8804,0.8804,0.8804,0.8951,0.9224,0.9331,0.9664,1.0083,1.0083,1.018,1.0301,1.0526,1.0593,1.064,1.0902,1.1189,1.1449,1.1819,1.2107,1.2305,1.2305,1.2305,1.2305,1.2305,1.2305,1.2305,1.2305,1.2766,1.3213,1.3213,1.3988,1.4573,1.4166,1.4412,1.4531,1.4173,1.4088,1.4088,1.4088,1.4088,1.4088,1.4088,1.4088,1.4088,1.4088,1.4088,1.4088,1.4088,1.4088,1.4088,1.4088,1.4088,1.4088,1.4088,1.4088,1.4088,1.4088,1.4088,1.4292,1.4657,1.4657,1.4657,1.4657,1.4657,1.4454]}]]